[[{"header":{"parameterUnit":"m.s-1","parameterCategory":1,"la1":30.6,"la2":29.2853,"lo1":-89.7004,"lo2":-87.6739,"dy":0.0162,"dx":0.0183,"nx":112,"ny":82,"refTime":"2023-03-17T00:00:00:Z","depth":0,"parameterNumber":2,"parameterNumberName":"U-component_of_WINDS"},"data":[0.0,0.0,0.0,0.0,0.0,0.0,0.0,0.0,0.0,0.0,0.0,0.0,0.0,0.0,0.0,0.0,0.0,0.0,0.0,0.0,0.0,0.0,0.0,0.0,0.0,0.0,0.0,0.0,0.0,0.0,0.0,0.0,0.0,0.0,0.0,0.0,0.0,0.0,0.0,0.0,0.0,0.0,0.0,0.0,0.0,0.0,0.0,0.0,0.0,0.0,0.0,0.0,0.0,0.0,0.0,0.0,0.0,0.0,0.0,0.0,0.0,0.0,0.0,0.0,0.0,0.0,0.0,0.0,0.0,0.0,0.0,0.0,0.0,0.0,0.0,0.0,0.0,0.0,0.0,0.0,0.0,0.0,0.0,0.0,0.0,0.0,0.0,0.0,0.0,0.0,3.8299,3.829,3.8174,3.7933,3.7533,3.7433,3.7423,3.7477,0.0,0.0,0.0,0.0,0.0,0.0,0.0,0.0,0.0,0.0,0.0,0.0,0.0,0.0,0.0,0.0,0.0,0.0,0.0,0.0,0.0,0.0,0.0,0.0,0.0,0.0,0.0,0.0,0.0,0.0,0.0,0.0,0.0,0.0,0.0,0.0,0.0,0.0,0.0,0.0,0.0,0.0,0.0,0.0,0.0,0.0,0.0,0.0,0.0,0.0,0.0,0.0,0.0,0.0,0.0,0.0,0.0,0.0,0.0,0.0,0.0,0.0,0.0,0.0,0.0,0.0,0.0,0.0,0.0,0.0,0.0,0.0,0.0,0.0,0.0,0.0,0.0,0.0,0.0,0.0,0.0,0.0,0.0,0.0,0.0,0.0,0.0,0.0,0.0,0.0,0.0,0.0,0.0,0.0,0.0,0.0,0.0,0.0,0.0,0.0,0.0,0.0,0.0,0.0,3.8274,3.8225,3.7854,3.7587,3.7505,3.7189,3.6841,3.6533,0.0,0.0,0.0,0.0,0.0,0.0,0.0,0.0,0.0,0.0,0.0,0.0,0.0,0.0,0.0,0.0,0.0,0.0,0.0,0.0,0.0,0.0,0.0,0.0,0.0,0.0,0.0,0.0,0.0,0.0,0.0,0.0,0.0,0.0,0.0,0.0,0.0,0.0,0.0,0.0,0.0,0.0,0.0,0.0,0.0,0.0,0.0,0.0,0.0,0.0,0.0,0.0,0.0,0.0,0.0,0.0,0.0,0.0,0.0,0.0,0.0,0.0,0.0,0.0,0.0,0.0,0.0,0.0,0.0,0.0,0.0,0.0,0.0,0.0,0.0,0.0,0.0,0.0,0.0,0.0,0.0,0.0,0.0,0.0,0.0,0.0,0.0,0.0,0.0,0.0,0.0,0.0,0.0,0.0,0.0,0.0,0.0,0.0,0.0,0.0,0.0,0.0,0.0,3.8259,3.8224,3.8209,3.8011,3.7685,3.72,3.7007,3.6739,3.6332,3.6224,0.0,0.0,0.0,0.0,0.0,0.0,0.0,0.0,0.0,0.0,0.0,0.0,0.0,0.0,0.0,0.0,0.0,0.0,0.0,0.0,0.0,0.0,0.0,0.0,0.0,0.0,0.0,0.0,0.0,0.0,0.0,0.0,0.0,0.0,0.0,0.0,0.0,0.0,0.0,0.0,0.0,0.0,0.0,0.0,0.0,0.0,0.0,0.0,0.0,0.0,0.0,0.0,0.0,0.0,0.0,0.0,0.0,0.0,0.0,0.0,0.0,0.0,0.0,0.0,0.0,0.0,0.0,0.0,0.0,0.0,0.0,0.0,0.0,0.0,0.0,0.0,0.0,0.0,0.0,0.0,0.0,0.0,0.0,0.0,0.0,0.0,0.0,0.0,0.0,0.0,0.0,0.0,0.0,0.0,0.0,0.0,0.0,0.0,0.0,0.0,0.0,0.0,3.82,3.82,3.82,3.8011,3.7613,3.6949,3.6711,3.6534,3.6421,3.5896,0.0,0.0,0.0,0.0,0.0,0.0,0.0,0.0,0.0,0.0,0.0,0.0,0.0,0.0,0.0,0.0,0.0,0.0,0.0,0.0,0.0,0.0,0.0,0.0,0.0,0.0,0.0,0.0,0.0,0.0,0.0,0.0,0.0,0.0,0.0,0.0,0.0,0.0,0.0,0.0,0.0,0.0,0.0,0.0,0.0,0.0,0.0,0.0,0.0,0.0,0.0,0.0,0.0,0.0,0.0,0.0,0.0,0.0,0.0,0.0,0.0,0.0,0.0,0.0,0.0,0.0,0.0,0.0,0.0,0.0,0.0,0.0,0.0,0.0,0.0,0.0,0.0,0.0,0.0,0.0,0.0,0.0,0.0,0.0,0.0,0.0,0.0,0.0,0.0,0.0,0.0,0.0,0.0,0.0,0.0,0.0,0.0,0.0,0.0,0.0,0.0,0.0,3.82,3.82,3.82,3.7477,3.6958,3.69,3.6161,3.6005,3.6723,3.6022,0.0,0.0,0.0,0.0,0.0,0.0,0.0,0.0,0.0,0.0,0.0,0.0,0.0,0.0,0.0,0.0,0.0,0.0,0.0,0.0,0.0,0.0,0.0,0.0,0.0,0.0,0.0,0.0,0.0,0.0,0.0,0.0,0.0,0.0,0.0,0.0,0.0,0.0,0.0,0.0,0.0,0.0,0.0,0.0,0.0,0.0,0.0,0.0,0.0,0.0,0.0,0.0,0.0,0.0,0.0,0.0,0.0,0.0,0.0,0.0,0.0,0.0,0.0,0.0,0.0,0.0,0.0,0.0,0.0,0.0,0.0,0.0,0.0,0.0,0.0,0.0,0.0,0.0,0.0,0.0,0.0,0.0,0.0,0.0,0.0,0.0,0.0,0.0,0.0,0.0,0.0,0.0,0.0,0.0,0.0,0.0,0.0,0.0,0.0,0.0,0.0,0.0,3.816,3.8338,0.0,3.8191,3.8174,3.7918,3.7599,3.7428,3.7489,0.0,0.0,0.0,0.0,0.0,0.0,0.0,0.0,0.0,0.0,0.0,0.0,0.0,0.0,0.0,0.0,0.0,0.0,0.0,0.0,0.0,0.0,0.0,0.0,0.0,0.0,0.0,0.0,0.0,0.0,0.0,0.0,0.0,0.0,0.0,0.0,0.0,0.0,0.0,0.0,0.0,0.0,0.0,0.0,0.0,0.0,0.0,0.0,0.0,0.0,0.0,0.0,0.0,0.0,0.0,0.0,0.0,0.0,0.0,0.0,0.0,0.0,0.0,0.0,0.0,0.0,0.0,0.0,0.0,0.0,0.0,0.0,0.0,0.0,0.0,0.0,0.0,0.0,0.0,0.0,0.0,0.0,0.0,0.0,0.0,0.0,0.0,0.0,0.0,0.0,0.0,0.0,0.0,0.0,0.0,0.0,0.0,0.0,0.0,0.0,0.0,0.0,3.8247,3.853,3.8661,0.0,3.8685,3.8801,3.8509,3.838,3.8298,3.8251,0.0,0.0,0.0,0.0,0.0,0.0,0.0,0.0,0.0,0.0,0.0,0.0,0.0,0.0,0.0,0.0,0.0,0.0,0.0,0.0,0.0,0.0,0.0,0.0,0.0,0.0,0.0,0.0,0.0,0.0,0.0,0.0,0.0,0.0,0.0,0.0,0.0,0.0,0.0,0.0,0.0,0.0,0.0,0.0,0.0,0.0,0.0,0.0,0.0,0.0,0.0,0.0,0.0,0.0,0.0,0.0,0.0,0.0,0.0,0.0,0.0,0.0,0.0,0.0,0.0,0.0,0.0,0.0,0.0,0.0,0.0,0.0,0.0,0.0,0.0,0.0,0.0,0.0,0.0,0.0,0.0,0.0,0.0,0.0,0.0,0.0,0.0,0.0,0.0,0.0,0.0,0.0,0.0,0.0,0.0,0.0,0.0,0.0,0.0,0.0,0.0,0.0,3.9669,3.9378,3.9094,3.9094,3.8742,3.851,3.851,3.8148,3.8244,0.0,0.0,0.0,0.0,0.0,0.0,0.0,0.0,0.0,0.0,0.0,0.0,0.0,0.0,0.0,0.0,0.0,0.0,0.0,0.0,0.0,0.0,0.0,0.0,0.0,0.0,0.0,0.0,0.0,0.0,0.0,0.0,0.0,0.0,0.0,0.0,0.0,0.0,0.0,0.0,0.0,0.0,0.0,0.0,0.0,0.0,0.0,0.0,0.0,0.0,0.0,0.0,0.0,0.0,0.0,0.0,0.0,0.0,0.0,0.0,0.0,0.0,0.0,0.0,0.0,0.0,0.0,0.0,0.0,0.0,0.0,0.0,0.0,0.0,0.0,0.0,0.0,0.0,0.0,0.0,0.0,0.0,0.0,0.0,0.0,0.0,0.0,0.0,0.0,0.0,0.0,0.0,0.0,0.0,0.0,0.0,0.0,0.0,0.0,0.0,0.0,0.0,0.0,3.8921,3.9226,3.933,3.907,3.9394,3.9632,3.9632,3.9527,3.9542,3.9762,0.0,0.0,0.0,0.0,0.0,0.0,0.0,0.0,0.0,0.0,0.0,0.0,0.0,0.0,0.0,0.0,0.0,0.0,0.0,0.0,0.0,0.0,0.0,0.0,0.0,0.0,0.0,0.0,0.0,0.0,0.0,0.0,0.0,0.0,0.0,0.0,0.0,0.0,0.0,0.0,0.0,0.0,0.0,0.0,0.0,0.0,0.0,0.0,0.0,0.0,0.0,0.0,0.0,0.0,0.0,0.0,0.0,0.0,0.0,0.0,0.0,0.0,0.0,0.0,0.0,0.0,0.0,0.0,0.0,0.0,0.0,0.0,0.0,0.0,0.0,0.0,0.0,0.0,0.0,0.0,0.0,0.0,0.0,0.0,0.0,0.0,0.0,0.0,0.0,0.0,0.0,0.0,0.0,0.0,0.0,0.0,0.0,0.0,0.0,0.0,0.0,0.0,3.9439,3.9889,4.0156,3.9905,4.054,4.0861,4.0557,4.054,4.0405,4.013,0.0,0.0,0.0,0.0,0.0,0.0,0.0,0.0,0.0,0.0,0.0,0.0,0.0,0.0,0.0,0.0,0.0,0.0,0.0,0.0,0.0,0.0,0.0,0.0,0.0,0.0,0.0,0.0,0.0,0.0,0.0,0.0,0.0,0.0,0.0,0.0,0.0,0.0,0.0,0.0,0.0,0.0,0.0,0.0,0.0,0.0,0.0,0.0,0.0,0.0,0.0,0.0,0.0,0.0,0.0,0.0,0.0,0.0,0.0,0.0,0.0,0.0,0.0,0.0,0.0,0.0,0.0,0.0,0.0,0.0,0.0,0.0,0.0,0.0,0.0,0.0,0.0,0.0,0.0,0.0,0.0,0.0,0.0,0.0,0.0,0.0,0.0,0.0,0.0,0.0,0.0,0.0,0.0,0.0,0.0,0.0,0.0,0.0,0.0,0.0,0.0,0.0,4.0748,4.1039,4.1238,4.1288,4.1897,4.2029,4.1373,4.1292,4.1018,4.035,0.0,0.0,0.0,0.0,0.0,0.0,0.0,0.0,0.0,0.0,0.0,0.0,0.0,0.0,0.0,0.0,0.0,0.0,0.0,0.0,0.0,0.0,0.0,0.0,0.0,0.0,0.0,0.0,0.0,0.0,0.0,0.0,0.0,0.0,0.0,0.0,0.0,0.0,0.0,0.0,0.0,0.0,0.0,0.0,0.0,0.0,0.0,0.0,0.0,0.0,0.0,0.0,0.0,0.0,0.0,0.0,0.0,0.0,0.0,0.0,3.3725,0.0,0.0,0.0,0.0,0.0,0.0,0.0,0.0,0.0,0.0,0.0,0.0,0.0,0.0,0.0,0.0,0.0,0.0,0.0,0.0,0.0,0.0,0.0,0.0,0.0,0.0,0.0,0.0,0.0,0.0,0.0,0.0,0.0,0.0,0.0,0.0,0.0,0.0,0.0,0.0,0.0,4.1065,4.115,4.1424,4.1999,4.2215,4.2249,4.2066,4.208,4.2012,4.1843,4.1826,0.0,0.0,0.0,0.0,0.0,0.0,0.0,0.0,0.0,0.0,0.0,0.0,0.0,0.0,0.0,0.0,0.0,0.0,0.0,0.0,0.0,0.0,0.0,0.0,0.0,0.0,0.0,0.0,0.0,0.0,0.0,0.0,0.0,0.0,0.0,0.0,0.0,0.0,0.0,0.0,0.0,0.0,0.0,0.0,0.0,0.0,0.0,0.0,0.0,0.0,0.0,0.0,0.0,0.0,0.0,0.0,0.0,0.0,0.0,0.0,3.4281,0.0,0.0,0.0,0.0,0.0,0.0,0.0,0.0,0.0,0.0,0.0,0.0,0.0,0.0,0.0,0.0,0.0,0.0,0.0,0.0,0.0,0.0,0.0,0.0,0.0,0.0,0.0,0.0,0.0,0.0,0.0,0.0,0.0,0.0,0.0,0.0,0.0,0.0,0.0,0.0,4.1666,4.2036,4.2391,4.2794,4.3166,4.3247,4.2861,4.2828,4.2675,4.2317,4.23,0.0,0.0,0.0,0.0,0.0,0.0,0.0,0.0,0.0,0.0,0.0,0.0,0.0,0.0,0.0,0.0,0.0,0.0,0.0,0.0,0.0,0.0,0.0,0.0,0.0,0.0,0.0,0.0,0.0,0.0,0.0,0.0,0.0,0.0,0.0,0.0,0.0,0.0,0.0,0.0,0.0,0.0,0.0,0.0,0.0,0.0,0.0,0.0,0.0,0.0,0.0,0.0,0.0,3.3839,3.3812,3.3444,3.3894,3.3907,3.3615,3.4505,3.5005,3.5184,3.5282,0.0,0.0,0.0,0.0,0.0,0.0,0.0,0.0,0.0,0.0,0.0,0.0,0.0,0.0,0.0,0.0,0.0,0.0,0.0,0.0,0.0,0.0,0.0,0.0,3.8096,3.8216,0.0,0.0,0.0,0.0,0.0,0.0,0.0,0.0,0.0,0.0,0.0,0.0,4.2388,4.3149,4.366,4.3795,4.4502,4.4719,4.4048,4.3879,4.3541,4.2943,4.2773,4.2706,0.0,0.0,0.0,0.0,0.0,0.0,0.0,0.0,0.0,0.0,0.0,0.0,0.0,0.0,0.0,0.0,0.0,0.0,0.0,0.0,0.0,0.0,0.0,0.0,0.0,0.0,0.0,0.0,0.0,0.0,0.0,0.0,3.0203,3.0072,0.0,0.0,0.0,0.0,0.0,0.0,0.0,0.0,0.0,0.0,0.0,0.0,0.0,3.2492,3.3151,3.3073,3.3469,3.4328,3.421,3.4226,3.4328,3.44,3.4657,3.5033,3.5169,0.0,3.3547,3.402,0.0,0.0,0.0,0.0,0.0,0.0,0.0,0.0,0.0,0.0,0.0,0.0,0.0,0.0,0.0,0.0,0.0,0.0,0.0,0.0,0.0,0.0,3.7787,3.7877,3.8874,3.9812,0.0,3.8766,3.8103,3.8802,3.8885,0.0,0.0,0.0,0.0,0.0,0.0,0.0,4.3152,4.3944,4.4702,4.5317,4.6058,4.6479,4.6346,4.5771,4.5365,4.5263,4.4651,4.4296,4.4296,4.4296,0.0,0.0,0.0,0.0,0.0,0.0,0.0,0.0,0.0,0.0,0.0,0.0,0.0,0.0,0.0,0.0,0.0,0.0,0.0,0.0,0.0,0.0,0.0,0.0,0.0,0.0,0.0,0.0,0.0,3.0291,3.0518,3.1146,3.0945,3.0868,0.0,0.0,0.0,0.0,0.0,0.0,0.0,0.0,0.0,3.3146,3.3103,3.324,3.3588,3.3544,3.3923,3.4714,3.4638,3.4836,3.5293,3.5293,3.5477,3.581,3.581,3.5513,3.5065,3.515,3.5324,3.5529,0.0,0.0,0.0,0.0,3.6396,3.6444,3.6774,3.6896,0.0,3.7297,0.0,0.0,0.0,0.0,0.0,0.0,0.0,0.0,0.0,0.0,3.9868,4.0273,4.0865,4.1339,4.1335,4.0828,4.046,0.0,4.0849,4.1064,4.1711,0.0,0.0,0.0,0.0,4.4009,4.5162,4.5633,4.5971,4.6278,4.6614,4.68,4.68,4.6498,4.6312,4.6312,4.5618,4.5227,4.5227,4.4821,4.4432,0.0,0.0,0.0,0.0,0.0,0.0,0.0,0.0,0.0,0.0,0.0,0.0,0.0,0.0,0.0,0.0,0.0,0.0,0.0,0.0,0.0,0.0,0.0,0.0,0.0,0.0,0.0,0.0,3.0801,3.0994,3.1901,3.1569,3.1449,0.0,0.0,0.0,0.0,0.0,0.0,3.2989,3.3123,3.3455,3.4091,3.4076,3.4227,3.4606,3.4575,3.4938,3.5667,3.562,3.5908,3.641,3.641,3.649,3.6649,3.6682,3.6794,3.6907,3.6407,3.6286,3.641,3.641,3.6599,3.6922,3.736,3.765,3.7853,3.8313,3.8451,3.8485,3.8671,0.0,3.9039,3.9039,0.0,0.0,0.0,0.0,3.9982,4.0519,4.1081,4.1677,4.2405,4.274,4.2943,4.3132,4.3332,4.323,0.0,4.23,4.2435,4.2824,0.0,0.0,0.0,0.0,4.5505,4.665,4.6925,4.7029,4.709,4.7242,4.7361,4.7361,4.7192,4.7073,4.7073,4.6397,4.5974,4.5974,4.5464,4.5074,4.4888,0.0,0.0,0.0,0.0,0.0,0.0,0.0,0.0,0.0,0.0,0.0,0.0,0.0,0.0,0.0,0.0,0.0,0.0,0.0,0.0,0.0,0.0,0.0,0.0,0.0,0.0,0.0,0.0,0.0,3.1568,3.1782,0.0,0.0,0.0,0.0,3.2659,3.335,3.3818,3.3849,3.3729,3.3969,3.4647,3.4537,3.5137,3.6545,3.6427,3.6825,3.776,3.7624,3.7639,3.7805,3.7805,3.7805,3.7822,3.8022,3.8106,3.8016,3.6923,3.6783,3.7246,3.7246,3.7941,3.895,3.898,3.9393,3.9956,3.9982,3.9986,4.0096,4.0802,4.1508,4.208,4.208,4.208,0.0,0.0,4.2113,4.2147,4.2181,4.2215,4.2422,4.3169,4.3927,4.4685,4.5382,4.6075,4.5734,0.0,4.23,4.2773,4.4228,0.0,4.499,4.6479,4.6532,4.649,4.6771,4.7245,4.7637,4.7821,4.8462,4.8883,4.8883,4.8242,4.7836,4.7836,4.7158,4.6735,4.6735,4.6716,4.6346,4.5669,4.5652,0.0,0.0,0.0,0.0,0.0,0.0,0.0,0.0,0.0,0.0,0.0,0.0,0.0,0.0,0.0,0.0,0.0,0.0,0.0,0.0,0.0,0.0,0.0,0.0,0.0,0.0,0.0,0.0,3.2239,3.23,0.0,3.2886,3.3171,3.3472,3.3831,3.4133,3.466,3.5532,3.5529,3.578,3.6424,3.639,3.6825,3.7775,3.7738,3.8327,3.9514,3.946,3.9685,4.0145,4.0145,4.0233,4.0341,4.0414,4.0506,4.0538,4.0152,3.9221,3.8057,3.8057,3.8341,3.8759,3.9153,3.9729,4.0358,4.0732,4.1157,4.1559,4.1813,4.2097,4.2388,4.2861,4.3,4.3115,4.3636,4.4127,4.4485,4.4485,4.484,4.5263,4.5534,4.5819,4.6061,4.6197,4.6509,4.6422,4.511,4.5053,4.5319,4.5742,4.5933,4.6287,4.7058,4.73,4.7514,4.7848,4.8166,4.8397,4.8475,4.8711,4.891,4.8986,4.8749,4.8597,4.8597,4.7921,4.7498,4.7498,4.7056,4.6682,4.6413,4.6413,4.6041,0.0,0.0,0.0,0.0,0.0,0.0,0.0,0.0,0.0,0.0,0.0,0.0,0.0,0.0,0.0,0.0,0.0,0.0,0.0,0.0,0.0,0.0,0.0,0.0,0.0,3.1985,3.2269,3.2901,3.3096,3.3381,3.3923,3.4295,3.4697,3.5131,3.5356,3.597,3.7092,3.7152,3.7524,3.8392,3.8422,3.8736,3.9412,3.9412,3.9861,4.0726,4.0726,4.0965,4.1403,4.1403,4.146,4.1607,4.1678,4.1742,4.1839,4.1883,4.0999,3.9657,3.9741,3.9928,4.0183,4.0632,4.1247,4.1903,4.2566,4.3079,4.3496,4.3736,4.3822,4.391,4.4401,4.4539,4.4671,4.5193,4.5657,4.5986,4.6061,4.637,4.6762,4.7001,4.7113,4.7198,4.7267,4.7379,4.7411,4.72,4.6885,4.672,4.6791,4.6947,4.7261,4.7789,4.7998,4.8213,4.856,4.8658,4.8707,4.8707,4.8754,4.8849,4.8909,4.8924,4.8956,4.8986,4.8529,4.8276,4.8276,4.78,4.7428,4.7175,4.6921,4.6549,4.6075,0.0,0.0,0.0,0.0,0.0,0.0,0.0,0.0,0.0,0.0,0.0,0.0,0.0,0.0,0.0,0.0,0.0,0.0,0.0,0.0,0.0,0.0,0.0,3.2689,3.2616,3.2811,3.3484,3.4158,3.4563,3.4578,3.5775,3.6568,3.6598,3.715,3.7793,3.8469,3.8482,3.9098,4.0382,4.0427,4.0741,4.1418,4.1433,4.1433,4.1463,4.1463,4.1463,4.1463,4.1463,4.1463,4.1463,4.1667,4.1757,4.1761,4.1884,4.1943,4.1981,4.2206,4.2685,4.3292,4.3485,4.397,4.4641,4.5401,4.5653,4.5762,4.6484,4.6727,4.6741,4.6773,4.6805,4.6836,4.6853,4.6718,4.6612,4.6809,4.6703,4.6735,4.746,4.7784,4.808,4.8666,4.8802,4.8802,4.8786,4.7559,4.6742,4.7327,4.7537,4.788,4.8668,4.8611,0.0,4.8738,4.8611,4.8483,4.8483,4.8658,4.8769,4.8785,4.8785,4.8848,4.897,4.8986,4.8986,4.8986,4.9001,4.8648,4.7954,4.7208,4.6834,4.6834,0.0,0.0,0.0,0.0,0.0,0.0,0.0,0.0,0.0,0.0,0.0,0.0,0.0,0.0,0.0,0.0,0.0,0.0,0.0,0.0,0.0,3.3095,3.3066,3.2616,3.3365,3.4203,3.4876,3.5534,3.6134,3.6552,3.7375,3.8078,3.8571,3.9215,3.9873,4.0535,4.058,4.0745,4.1119,4.1134,4.1448,4.2126,4.2126,4.2346,4.2771,4.2771,4.2771,4.2771,4.2771,4.2771,4.2771,4.2845,4.2864,4.2864,4.2908,4.2927,4.2842,4.2258,4.2123,4.2291,4.2346,4.2787,4.3461,4.4211,4.4461,4.4494,4.4691,4.5129,4.5689,4.6377,4.6951,4.7486,4.8089,4.821,4.8147,4.8069,4.799,4.8009,4.8211,4.8292,4.8344,4.8354,4.8484,4.8516,4.8277,4.7959,4.779,4.7942,4.8135,4.825,4.8227,4.8389,0.0,4.8245,4.826,4.8276,4.8276,4.8324,4.842,4.8579,4.8595,4.8611,4.8642,4.8768,4.8848,4.8848,4.8956,4.89,4.8698,4.7971,4.7599,0.0,0.0,0.0,0.0,0.0,0.0,0.0,0.0,0.0,0.0,0.0,0.0,0.0,0.0,0.0,0.0,0.0,0.0,0.0,0.0,0.0,0.0,3.4143,3.4292,3.4188,3.4592,3.5266,3.6193,3.715,3.7853,3.8195,3.9095,3.9831,4.0217,4.0591,4.1119,4.1777,4.1807,4.1927,4.2192,4.2207,4.2387,4.2761,4.2776,4.2955,4.329,4.329,4.329,4.329,4.329,4.329,4.329,4.329,4.329,4.329,4.329,4.329,0.0,0.0,0.0,0.0,0.0,4.3021,4.3472,4.4201,4.445,4.4503,4.4818,4.5415,4.6127,4.6668,4.7368,4.8072,4.8541,4.8611,4.8532,4.8499,4.8436,4.8372,4.8372,4.8436,4.8452,4.8243,4.8292,4.8324,4.8115,4.8098,0.0,4.853,4.846,4.8308,4.8115,4.8243,4.8292,4.8098,4.8413,4.8645,4.858,4.8895,4.9043,4.884,4.8839,0.0,0.0,0.0,4.8707,4.8802,4.8879,0.0,0.0,0.0,4.836,4.836,0.0,0.0,0.0,4.6887,4.658,0.0,0.0,0.0,0.0,0.0,0.0,0.0,0.0,0.0,0.0,0.0,0.0,0.0,0.0,0.0,0.0,3.5385,3.6058,3.6731,3.6372,3.6447,3.7492,3.8808,3.9631,3.9631,4.0771,4.1508,4.1508,4.1583,4.1867,4.2466,0.0,0.0,0.0,0.0,4.329,4.329,4.329,4.329,4.329,4.329,4.329,4.329,4.329,4.329,4.329,4.329,4.329,4.329,4.329,4.329,4.3309,4.3557,4.3651,4.369,4.3851,4.3929,4.4011,4.4677,0.0,0.0,4.5654,4.6384,4.6986,4.702,4.7572,4.8226,4.8323,4.8211,4.813,4.8388,4.8308,4.8196,4.8196,4.8374,4.8521,4.8344,4.8362,4.8428,4.8428,4.8315,4.8465,4.911,4.8713,4.8329,4.8412,4.8428,4.8428,4.8428,4.9011,4.936,4.9226,0.0,0.0,4.946,4.9393,4.9193,4.872,4.8719,4.8798,4.9038,4.8953,4.8966,4.9089,4.9037,4.9001,4.9001,4.9001,4.9001,4.8968,4.7665,4.7039,0.0,0.0,0.0,0.0,0.0,0.0,0.0,0.0,0.0,0.0,0.0,0.0,0.0,0.0,0.0,3.6746,3.7404,3.8063,3.8733,3.92,3.9349,3.9047,4.0202,4.1014,4.1014,4.1733,4.2216,4.2216,4.2656,4.2995,4.3115,4.313,4.319,4.329,4.329,4.329,4.329,4.329,4.329,4.329,0.0,0.0,4.329,4.329,4.329,4.329,4.329,4.329,4.329,4.329,4.329,4.3309,4.3364,4.3384,4.3384,4.3409,4.3443,4.3463,4.3591,4.3649,4.3654,4.3815,4.44,4.5079,4.523,4.5812,0.0,4.7186,4.7338,4.7438,4.7968,4.8082,4.805,4.805,4.8514,4.8962,4.8929,4.9393,4.9807,4.9807,4.979,4.9822,4.9955,4.9392,4.9127,4.9724,4.9807,4.9807,4.9807,4.994,5.0022,4.9988,5.0138,5.0172,5.0039,5.0022,4.9973,4.9891,4.9976,5.0192,5.0553,4.9964,4.9628,4.9627,4.9228,4.9001,4.9001,4.9001,4.9001,4.9001,4.8714,4.8578,0.0,0.0,0.0,0.0,0.0,0.0,0.0,0.0,0.0,0.0,0.0,3.57,3.6342,0.0,3.727,3.824,3.8673,3.926,4.0262,4.0984,4.1149,4.0472,4.1283,4.1897,4.1897,4.2481,4.2851,4.2851,4.313,4.329,4.329,4.329,4.329,4.329,4.329,4.329,4.329,4.3638,4.3803,4.3803,4.4132,4.4296,4.4296,4.4296,4.4296,4.4296,4.4296,4.4296,4.4296,4.4296,4.4296,4.4296,4.4296,4.3893,4.329,4.329,4.329,4.329,4.329,4.329,4.329,4.329,4.3849,4.4587,4.5006,4.5703,4.6451,4.7145,4.7349,4.7527,4.8262,4.8451,4.8553,4.8993,4.9375,4.964,4.964,4.9938,5.0203,5.0203,5.0203,5.032,5.0684,5.0436,5.0204,5.0203,5.0203,5.0203,5.0203,5.0518,5.0595,5.0158,5.0415,5.0319,4.9532,4.9105,4.8895,4.8895,4.8952,4.9325,5.007,4.9791,4.9859,5.0386,5.0129,5.0039,5.0102,5.0023,5.0039,5.0102,5.0102,4.9696,0.0,0.0,0.0,0.0,0.0,0.0,0.0,3.5311,3.5878,3.6553,3.6671,3.6896,3.7642,3.7776,3.8225,3.9571,3.9885,4.0367,4.1433,4.2152,4.2361,4.1837,4.2241,4.2571,4.2571,4.2995,4.329,4.329,4.329,4.329,4.329,4.329,4.3349,4.3504,4.3484,4.3564,4.3698,4.4222,4.4491,4.4511,4.5035,4.5289,4.5289,4.5289,4.5289,4.5289,4.5289,4.5289,4.5289,4.5289,4.5289,4.5289,4.5289,4.4646,4.3698,4.3698,4.3698,4.3698,4.3698,4.3698,4.3698,4.3698,4.4125,4.4768,4.5299,4.5905,4.6569,4.7201,4.7396,4.7587,4.8425,4.8768,4.9073,4.9791,5.0183,5.0402,5.0402,5.0397,5.0358,5.0358,5.0253,5.0312,5.0922,5.1021,5.0913,5.0665,5.0479,5.0358,5.0358,5.0747,5.0736,5.0042,5.0483,5.0333,4.9034,4.8369,4.8041,4.8079,4.8209,4.8602,4.9335,4.9513,4.9977,5.0861,5.076,5.0842,5.1153,5.1056,5.1072,5.1201,5.1201,5.0558,3.1875,3.3139,3.4291,3.5087,3.5325,3.5534,0.0,3.6329,3.6568,3.718,3.73,3.7671,3.8943,3.9182,3.9634,4.0969,4.1673,4.2126,4.2276,4.2806,4.3175,4.31,4.316,4.3205,4.3205,4.3245,4.329,4.329,4.329,4.329,4.329,4.329,4.3579,4.4162,4.4192,4.4461,4.5065,4.5155,4.5185,4.5185,4.5259,4.5289,4.5289,4.5289,4.5289,4.5289,4.5289,4.5289,4.5289,4.5289,4.5289,4.5289,4.5289,4.5214,4.508,4.508,4.508,4.508,4.508,4.508,4.508,4.508,4.5142,4.5224,4.5299,4.5376,4.5621,4.6412,4.6625,4.6807,4.7548,4.8315,4.8913,4.9019,5.0145,5.1182,5.1182,5.1077,5.1004,5.1004,5.0371,4.987,4.9953,4.9969,5.047,5.1929,5.1498,5.1004,5.1004,5.0397,4.993,4.9832,4.9911,4.9872,4.9694,4.9596,4.9627,4.981,5.0374,5.0488,5.0019,5.0135,5.0265,5.0373,4.9846,5.0071,5.1007,5.1024,5.1072,5.1201,5.1201,5.1116,3.1885,3.3129,3.4258,3.46,3.5301,3.5977,3.6258,3.6692,3.7163,3.7646,3.8186,3.8638,3.8876,3.9841,4.0526,4.0381,4.1038,4.154,4.1369,4.2041,4.2339,4.1796,4.2217,4.2739,4.325,4.2855,4.2739,4.327,4.329,4.329,4.329,4.3683,4.4012,4.4282,4.4691,4.502,4.5289,4.5693,4.5867,4.5882,4.6277,4.6456,4.6456,4.6456,4.6456,4.6456,4.6456,4.6456,4.6456,4.6456,4.6456,4.6456,4.6456,4.6456,4.6367,4.5589,4.5289,4.5289,4.5289,4.5289,4.5289,4.5289,4.5289,4.5364,4.5747,4.5867,4.6026,4.6758,4.6968,4.7146,4.7979,4.8442,4.8835,4.9318,4.9938,5.0427,5.0427,5.0387,5.0345,5.0345,5.0057,4.9912,5.0322,5.0365,5.0763,5.188,5.1083,5.0489,5.0884,5.062,5.0342,5.0232,4.9791,4.9509,4.9509,4.9509,4.9552,4.9643,4.9897,5.0149,5.0331,5.0499,5.1076,5.2091,5.186,5.205,5.2755,5.2619,5.2722,5.3011,5.3011,5.3298,3.2368,3.3276,3.4066,3.4266,3.5218,3.6146,3.6318,3.6947,3.7602,3.8074,3.87,3.9125,3.8921,3.9983,4.0693,3.9998,4.0444,4.0823,4.0618,4.1191,4.1359,4.0689,4.0965,4.1589,4.2482,4.1976,4.1873,4.2502,4.2977,4.3223,4.3223,4.407,4.4655,4.485,4.5313,4.5663,4.5843,4.6315,4.657,4.6585,4.707,4.7309,4.7309,4.7309,4.7309,4.7309,4.7309,4.7309,4.7309,4.7309,4.7309,4.7309,4.7309,4.7309,4.7189,4.6202,4.5843,4.5843,4.5843,4.5843,4.5843,4.5843,4.5843,4.5948,4.642,4.657,4.6674,4.7174,4.7309,4.7445,4.8082,4.8545,4.9001,4.9584,5.0048,5.035,5.035,5.0169,4.9987,4.9987,4.9804,4.9832,5.0294,5.0388,5.0559,5.1046,5.0274,4.993,5.062,5.0518,5.0338,5.0182,4.9665,4.9292,4.9292,4.9292,4.9292,4.9292,4.9509,4.979,5.0155,5.0758,5.1694,5.2962,5.3253,5.3656,5.4237,5.406,5.422,5.4591,5.4591,5.5,0.0,3.3788,3.3979,3.4692,3.5353,3.5964,3.6623,3.7251,3.7854,3.8458,3.8604,3.8821,3.9452,3.9606,3.9859,4.0463,4.0582,4.0618,4.0589,4.0625,4.0646,4.0603,3.9812,3.9659,4.0603,4.0667,4.0646,4.0689,4.2143,4.3025,4.3025,4.4451,4.5574,4.6226,4.6256,4.657,4.7234,4.7264,4.7279,4.7279,4.7294,4.7309,4.7309,4.7309,4.7309,4.7309,4.7309,4.7309,4.7309,4.7309,4.7309,4.7309,4.7309,4.7309,4.7309,4.7249,4.7249,4.7249,4.7249,4.7249,4.7249,4.7249,4.7249,4.7249,4.7264,4.7279,4.7279,4.7294,4.7309,4.7309,4.7316,4.8405,4.9485,4.9506,5.0653,5.1736,5.1736,5.1088,5.0491,5.0491,4.9862,4.9322,4.9337,4.9352,4.9352,4.9367,4.9337,4.9604,5.0414,4.9826,4.9352,4.9344,4.9314,4.9292,4.9292,4.9292,4.9292,4.9292,5.0039,5.0112,4.9367,5.0981,5.1891,5.1932,5.2852,5.3785,5.4772,5.4772,5.4971,5.5364,5.5364,5.5488,0.0,3.3919,3.435,3.5,3.6028,3.6928,3.7154,3.7778,3.833,3.839,3.8859,3.9102,3.8571,3.9449,3.9937,3.897,3.929,3.9475,3.8886,3.9326,3.9467,3.8863,3.9037,3.9091,3.8832,3.9334,4.01,4.112,4.1693,4.246,4.3479,4.4427,4.5384,4.6264,4.6734,4.7063,4.7309,4.7309,4.7309,4.7309,4.7309,4.7309,4.7324,4.7758,4.7952,4.7982,4.8438,4.8633,4.8633,4.8633,4.8633,4.8633,4.8633,4.8633,4.8633,4.8633,4.8633,4.8498,4.7608,4.7309,4.7369,4.7818,4.7952,4.8042,4.8498,4.8633,4.8633,4.8633,4.8633,4.8633,4.8633,4.899,4.9362,4.9362,4.9755,5.0142,5.0142,4.9916,4.9694,4.9694,4.9501,4.9426,4.9838,4.989,5.0062,5.0496,5.0174,4.9989,5.0276,5.0455,5.0556,5.0556,5.0556,5.0556,5.0556,5.0556,5.0556,5.0556,5.0802,5.0825,5.0556,5.113,5.1729,5.2337,5.3281,5.4006,5.4466,5.5052,5.5462,5.5721,5.5868,5.6302,3.4097,3.4593,3.5103,3.5482,3.6439,3.7254,3.7254,3.7833,3.8306,3.8188,3.8594,3.8781,3.8027,3.8854,3.9251,3.8093,3.8372,3.8526,3.7992,3.8395,3.854,3.7969,3.8567,3.881,3.8234,0.0,3.9648,4.0435,4.1207,4.2239,4.3577,4.4622,4.5449,4.6105,4.6897,4.7142,4.6785,4.7121,4.7429,4.7653,4.7893,4.7997,4.8012,4.8468,4.8663,4.8678,4.9097,4.9292,4.9292,4.9292,4.9292,4.9292,4.9292,4.9292,4.9292,4.9292,4.9292,4.9172,4.8319,4.7997,4.8072,4.8528,4.8663,4.8738,4.9157,4.9292,4.9292,4.9292,4.9292,4.9292,4.9292,4.9456,4.9613,4.9613,4.9793,4.9995,4.9995,4.9995,4.9995,4.9995,4.9995,5.0092,5.0488,5.0563,5.0712,5.1131,5.0832,5.0563,5.0563,5.0936,5.1191,5.1191,5.1191,5.1191,5.1191,5.1191,5.1191,5.1191,5.1191,5.1191,5.1191,5.1511,5.198,5.2583,5.3524,5.4068,5.4182,5.508,5.5605,5.5817,5.6327,5.6949,3.5365,3.5757,3.6162,3.6188,3.6619,3.705,3.705,3.7495,3.79,3.79,3.79,3.79,3.79,3.79,3.79,3.79,3.79,3.79,3.79,3.79,3.7913,3.7939,3.8397,3.8723,0.0,0.0,3.9416,3.8817,4.0676,4.2273,4.3316,4.4823,4.5666,4.5711,4.6704,4.6778,4.5859,4.6881,4.7713,4.8364,4.8992,4.9292,4.9292,4.9322,4.9337,4.9337,4.9381,4.9396,4.9396,4.9396,4.9396,4.9396,4.9396,4.9396,4.9396,4.9396,4.9396,4.9396,4.9396,4.9337,4.9307,4.9337,4.9337,4.9337,4.9381,4.9396,4.9396,4.9396,4.9396,4.9396,4.9396,4.9823,5.024,5.024,5.0742,5.1191,5.1191,5.1191,5.1191,5.1191,5.1191,5.1191,5.1191,5.1191,5.1191,5.1191,5.1191,5.1191,5.1191,5.1191,5.1191,5.1191,5.1191,5.1191,5.1191,5.1191,5.1191,5.1191,5.1191,5.1191,5.1191,5.2071,5.2538,5.2538,5.3452,5.3944,5.3975,5.4867,5.5401,5.564,5.6788,5.7427,3.6345,3.6671,3.6881,3.7338,3.756,3.7678,3.7678,3.7795,3.79,3.79,3.79,3.79,3.79,3.79,3.79,3.79,3.79,3.79,3.79,3.79,3.8057,3.8462,3.8632,3.8893,3.9337,3.9862,4.0123,3.9967,4.0482,4.1419,4.2879,4.333,4.3923,4.4661,4.5658,4.631,4.6542,4.8044,4.8873,4.9037,4.9224,4.9292,4.9307,4.9778,4.9964,4.9994,5.0511,5.072,5.072,5.072,5.072,5.072,5.072,5.072,5.072,5.072,5.072,5.072,5.072,5.0077,4.9366,4.9823,4.9964,5.0054,5.0548,5.072,5.072,5.072,5.072,5.072,5.072,5.0817,5.0951,5.0951,5.1071,5.1191,5.1191,5.1191,5.1191,5.1191,5.1191,5.1191,5.1191,5.1191,5.1191,5.1191,5.1191,5.1191,5.1191,5.1191,5.1191,5.1191,5.1191,5.1191,5.1191,5.1191,5.1191,5.1191,5.1191,5.1191,5.1191,5.1433,5.1572,5.1572,5.2471,5.3195,5.3706,5.4642,5.5329,5.5865,5.7033,5.7642,3.6763,3.7194,3.7482,3.7821,3.79,3.79,3.79,3.79,3.79,3.79,3.79,3.79,3.79,3.79,3.79,3.79,3.79,3.79,3.79,3.8109,3.837,3.8648,3.9155,3.9586,3.9901,4.045,4.079,4.079,4.079,4.1388,4.273,4.2792,4.3259,4.4266,4.5102,4.6068,4.7134,4.8385,4.9247,4.9703,4.9987,5.0122,5.0137,5.0473,5.0652,5.0667,0.0,5.1191,5.1191,5.1191,5.1191,5.1191,5.1191,5.1191,5.1191,5.1191,5.1191,5.1191,5.1191,5.0735,5.0182,5.0533,5.0652,5.0712,5.1086,5.1191,5.1191,5.1191,5.1191,5.1191,5.1191,5.1191,5.1191,5.1191,5.1191,5.1191,5.1191,5.1191,5.1191,5.1191,5.1191,5.1191,5.1191,5.1191,5.1191,5.1191,5.1191,5.131,5.1618,5.1648,5.1648,5.1648,5.1902,5.2082,5.2082,5.2082,5.2082,5.2082,5.2082,5.2082,5.2082,5.2082,5.2082,5.2082,5.2581,5.3052,5.3432,5.4366,5.5216,5.597,5.7146,5.7936,3.6959,3.7508,3.79,3.79,3.79,3.79,3.79,3.79,3.79,3.79,3.79,3.79,3.79,3.79,3.79,3.79,3.79,3.79,3.79,3.837,3.8736,3.8815,3.9745,4.0424,4.0502,4.0985,4.1286,4.1286,4.1286,4.1683,4.2563,4.2598,4.3098,4.4204,4.4885,4.5957,4.7514,4.834,4.9212,5.013,5.0851,5.1191,5.1191,5.1191,5.1191,5.1191,5.1191,0.0,5.1191,5.1191,5.1191,5.1191,5.1191,5.1191,5.1191,5.1191,5.1191,5.1191,5.1191,5.1191,5.1191,5.1191,5.1191,5.1191,5.1191,5.1191,5.1191,5.1191,5.1191,5.1191,5.1191,5.1191,5.1191,5.1191,5.1191,5.1191,5.1191,5.1191,5.1191,5.1191,5.1191,5.1191,5.1191,5.1191,5.1221,5.131,5.1325,5.1565,5.2247,5.2261,5.2232,5.2321,5.2854,5.3198,5.3198,5.3198,5.3198,5.3198,5.3198,5.3198,5.3198,5.3198,5.3198,5.3198,5.3198,5.3243,5.3333,5.4162,5.4993,5.5918,5.7032,5.8088,3.7586,3.7821,3.79,3.79,3.79,3.79,3.79,3.79,3.79,3.79,3.79,3.79,3.79,3.79,3.79,3.79,3.79,3.79,3.79,3.837,3.8893,3.9366,3.9993,4.0594,4.1115,4.1234,4.1286,4.1286,4.1286,4.1386,4.1547,4.1572,4.2242,4.3759,4.4861,4.5992,4.7095,4.8642,4.9524,4.9708,5.0716,5.1191,5.1191,5.1191,5.1191,5.1191,5.1191,0.0,5.1191,5.1191,5.1191,5.1191,5.1191,5.1191,5.1191,5.1191,5.1191,5.1191,5.1191,5.1191,5.1191,5.1191,5.1191,5.1191,5.1191,5.1191,5.1191,5.1191,5.1191,5.1191,5.1191,5.1191,5.1191,5.1191,5.1191,5.1191,5.1191,5.1191,5.1191,5.1191,5.1191,5.1191,5.1191,5.1191,5.1385,5.1947,5.2037,5.2276,5.2944,5.2531,5.2411,5.2974,5.3139,5.3198,5.3198,5.3198,5.3198,5.3198,5.3198,5.3198,5.3198,5.3198,5.3198,5.3198,5.3198,5.3458,5.4027,5.42,5.4628,5.5362,5.6332,5.7323,3.7743,3.79,3.79,3.79,3.79,3.79,3.79,3.79,3.79,3.79,3.79,3.79,3.79,3.79,3.79,3.79,3.79,3.79,3.79,3.837,3.8909,3.9534,4.0058,4.0657,4.1234,4.1286,4.1286,4.1286,4.1286,4.1286,4.1286,4.2098,4.2931,4.3772,4.486,4.5859,4.6684,4.7524,4.851,4.9625,5.0124,5.0665,5.1191,5.1191,5.1191,5.1191,5.1191,0.0,5.1191,5.1191,5.1191,5.1191,5.1191,5.1191,5.1191,5.1191,5.1191,5.1191,5.1191,5.1191,5.1191,5.1191,5.1191,5.1191,5.1191,5.1191,5.1191,5.1191,5.1191,5.1191,5.1191,5.1191,5.1191,5.1191,5.1191,5.1191,5.1191,5.1191,5.1191,5.1191,5.1191,5.1191,5.1191,5.1191,5.1415,5.2097,5.2202,5.2576,5.3593,5.3443,5.3369,5.3683,5.4027,5.4246,5.4246,5.4246,5.4246,5.4246,5.4246,5.4246,5.4246,5.4246,5.4246,5.4246,5.4246,5.4386,5.4715,5.4715,5.5125,5.5943,5.6387,5.7134,3.7743,3.79,3.79,3.79,3.79,3.79,3.79,3.79,3.79,3.79,3.79,3.79,3.79,3.79,3.79,3.79,3.79,3.79,3.79,3.8475,3.9076,3.9523,4.0176,4.0763,4.1247,4.1286,4.1286,4.1286,4.1428,4.1494,4.1494,4.2931,4.3782,4.3899,4.4783,4.5496,4.6032,4.6269,4.7357,4.9254,4.9489,5.0172,5.1191,5.1191,5.1191,5.1191,5.1191,0.0,0.0,5.1191,5.1191,5.1191,5.1191,5.1191,5.1191,5.1191,5.1191,5.1191,5.1191,5.1191,5.1191,5.1191,5.1191,5.1191,5.1191,5.1191,5.1191,5.1191,5.1191,5.1191,5.1191,5.1191,5.1191,5.1191,5.1191,5.1191,5.1191,5.1191,5.1191,5.1191,5.1191,5.1191,5.1191,5.131,5.1648,5.2306,5.2531,5.3069,5.4266,5.4416,5.4416,5.4416,5.488,5.5194,5.5194,5.5194,5.5194,5.5194,5.5194,5.5194,5.5194,5.5194,5.5194,5.5194,5.5194,5.5194,5.5194,5.5194,5.5576,5.6305,5.6305,5.6815,3.7743,3.79,3.79,3.79,3.79,3.79,3.79,3.79,3.79,3.79,3.79,3.79,3.79,3.79,3.79,3.79,3.79,3.79,3.79,3.8841,3.9547,3.9599,4.0566,4.1234,4.1286,4.1286,4.1286,4.1286,4.1794,4.2121,4.2121,4.3245,4.3887,4.3899,4.445,4.4805,4.4857,4.5887,4.6985,4.8156,4.9131,5.0172,5.1191,5.1191,5.1191,5.1191,5.1191,0.0,0.0,5.1191,5.1191,5.1191,5.1191,5.1191,5.1191,5.1191,5.1191,5.1191,5.1191,5.1191,5.1191,5.1191,5.1191,5.1191,5.1191,5.1191,5.1191,5.1191,5.1191,5.1191,5.1191,5.1191,5.1191,5.1191,5.1191,5.1191,5.1191,5.1191,5.1191,5.1191,5.1191,5.1191,5.1191,5.1708,5.2336,5.3019,5.3623,5.4281,5.4999,5.5104,5.5104,5.5104,5.5149,5.5194,5.5194,5.5194,5.5194,5.5194,5.5194,5.5194,5.5194,5.5194,5.5194,5.5194,5.5194,5.5194,5.5194,5.5194,5.5229,5.533,5.533,5.5819,3.7344,3.7625,3.79,3.79,3.79,3.79,3.79,3.79,3.79,3.79,3.79,3.79,3.79,3.79,3.79,3.79,3.79,3.79,3.79,3.8292,3.8841,3.9534,3.9993,4.0566,4.1221,4.1286,4.1455,4.1794,4.2356,4.2827,4.3193,4.365,4.4056,4.4382,4.4577,4.4695,4.4695,4.514,4.5927,4.7048,4.8131,4.8869,4.9313,5.0618,5.0846,5.0268,5.0917,0.0,0.0,5.1191,5.1191,5.1191,5.1191,5.1191,5.1191,5.1191,5.1191,5.1191,5.1191,5.1191,5.1191,5.1191,5.1191,5.1191,5.1191,5.1191,5.1191,5.1191,5.1191,5.1191,5.1191,5.1191,5.1191,5.1191,5.1191,5.1191,5.1191,5.1191,5.1191,5.1191,5.1191,5.1191,5.1191,5.1768,5.2426,5.3109,5.3773,5.4446,5.5104,5.5194,5.5194,5.5194,5.5194,5.5194,5.5194,5.5194,5.5194,5.5194,5.5194,5.5194,5.5194,5.5194,5.5194,5.5194,5.5194,5.5194,5.5194,5.5194,5.5194,5.5194,5.5194,5.5391,3.6795,3.705,3.7377,3.7377,3.7377,3.7416,3.7599,3.7639,3.7691,3.7861,3.79,3.79,3.79,3.79,3.79,3.79,3.79,3.79,3.79,3.8044,3.8501,3.9494,3.9732,4.0215,4.1194,4.1286,4.1625,4.2395,4.2788,4.3323,4.4108,4.4134,4.4304,4.4695,4.4695,4.4695,4.4695,4.4695,4.5275,4.64,4.7177,4.77,4.8055,4.9878,5.0316,4.9674,5.0736,0.0,0.0,5.1191,5.1191,5.1191,5.1191,5.1191,5.1191,5.1191,5.1191,5.1191,5.1191,5.1191,5.1191,5.1191,5.1191,5.1191,5.1191,5.1191,5.1191,5.1191,5.1191,5.1191,5.1191,5.1191,5.1191,5.1191,5.1191,5.1191,5.1191,5.1191,5.1191,5.1191,5.1191,5.1191,5.1191,5.1932,5.2675,5.3139,5.3937,5.467,5.5134,5.5194,5.5194,5.5194,5.5194,5.5194,5.5194,5.5194,5.5194,5.5194,5.5194,5.5194,5.5194,5.5194,5.5194,5.5194,5.5194,5.5194,5.5194,5.5194,5.5194,5.5194,5.5194,5.5194,3.6178,3.6123,3.6123,3.6123,3.6123,3.6279,3.6881,3.7011,3.7181,3.7782,3.79,3.79,3.79,3.79,3.79,3.79,3.79,3.79,3.79,3.8357,3.8932,3.9534,4.0058,4.062,4.1234,4.1286,4.1769,4.2905,4.2997,0.0,4.4629,4.4695,4.4695,4.4695,4.4695,4.4695,4.4695,4.4695,4.5275,4.64,4.64,4.6971,4.8055,4.9131,4.9625,4.9674,5.0736,0.0,0.0,5.1191,5.1191,5.1191,5.1191,5.1191,5.1191,5.1191,5.1191,5.1191,5.1191,5.1191,5.1191,5.1191,5.1191,5.1191,5.1191,5.1191,5.1191,5.1191,5.1191,5.1191,5.1191,5.1191,5.1191,5.1191,5.1191,5.1191,5.1191,5.1191,5.1191,5.1191,5.1191,5.1191,5.1191,5.2306,5.3198,5.3198,5.4351,5.5179,5.5194,5.5194,5.5194,5.5194,5.5194,5.5194,5.5194,5.5194,5.5194,5.5194,5.5194,5.5194,5.5194,5.5194,5.5194,5.5194,5.5194,5.5194,5.5194,5.5194,5.5194,5.5194,5.5194,5.5194,3.6563,3.6492,3.6341,3.6153,3.6109,3.6162,3.6345,3.6711,3.705,3.7246,3.7612,3.79,3.79,3.79,3.79,3.79,3.79,3.79,3.79,3.8057,3.8514,3.9494,4.0424,4.1077,4.1273,4.1286,4.1769,4.2905,4.2997,4.3493,4.4643,4.4695,4.4695,4.4695,4.4695,4.4695,4.4695,4.4695,4.4884,4.5248,4.6046,4.6164,4.5847,4.8421,4.9205,4.8621,0.0,0.0,0.0,5.1191,5.1191,5.1191,5.1191,5.1191,5.1191,5.1191,5.1191,5.1191,5.1191,5.1191,5.1191,5.1191,5.1191,5.1191,5.1191,5.1191,5.1191,5.1191,5.1191,5.1191,5.1191,5.1191,5.1191,5.1191,5.1191,5.1191,5.1191,5.1191,5.1191,5.1191,5.1191,5.1191,5.1191,5.2306,5.3198,5.3198,5.4351,5.5194,5.5194,5.5194,5.5194,5.5194,5.5194,5.5194,5.5194,5.5194,5.5194,5.5194,5.5194,5.5194,5.5194,5.5194,5.5194,5.5194,5.5194,5.5194,5.5194,5.5194,5.5194,5.5194,5.5194,5.5194,0.0,3.6462,3.6201,3.5726,3.5533,3.5521,3.5744,3.6083,3.6488,3.692,3.7299,3.7639,3.7861,3.79,3.79,3.79,3.79,3.79,3.79,3.79,3.8331,3.9444,4.0618,4.1286,4.1286,4.1286,4.1703,4.2631,4.2905,4.3402,4.4356,4.4577,4.4695,4.4695,4.4695,4.4695,4.4695,4.4695,4.4695,4.4695,4.5422,4.5395,4.4776,4.7254,4.8245,4.8105,0.0,0.0,0.0,5.1191,5.1191,5.1191,5.1191,5.1191,5.1191,5.1191,5.1191,5.1191,5.1191,5.1191,5.1191,5.1191,5.1191,5.1191,5.1191,5.1191,5.1191,5.1191,5.1191,5.1191,5.1191,5.1191,5.1191,5.1191,5.1191,5.1191,5.1191,5.1191,5.1191,5.1191,5.1191,5.1191,5.1191,5.2306,5.3198,5.3198,5.4351,5.5194,5.5194,5.5194,5.5194,5.5194,5.5194,5.5194,5.5194,5.5194,5.5194,5.5194,5.5194,5.5194,5.5194,5.5194,5.5194,5.5194,5.5194,5.5194,5.5194,5.5194,5.5194,5.5194,5.5194,5.5194,0.0,3.6247,3.583,3.499,3.4598,3.4541,3.5103,3.5273,0.0,3.6711,3.6972,3.7181,3.7795,3.79,3.79,3.79,3.79,3.79,3.79,3.7978,3.8436,3.9534,4.062,4.1286,4.1286,4.1286,4.1546,4.2147,4.2696,4.3271,4.3873,4.4421,4.4695,4.4695,4.4695,4.4695,4.4695,4.4695,4.4695,4.4695,4.4695,4.4695,4.4749,4.5966,4.7048,0.0,0.0,0.0,0.0,5.1191,5.1191,5.1191,5.1191,5.1191,5.1191,5.1191,5.1191,5.1191,5.1191,5.1191,5.1191,5.1191,5.1191,5.1191,5.1191,5.1191,5.1191,5.1191,5.1191,5.1191,5.1191,5.1191,5.1191,5.1191,5.1191,5.1191,5.1191,5.1191,5.1191,5.1191,5.1191,5.1191,5.1191,5.2306,5.3198,5.3198,5.4351,5.5194,5.5194,5.5194,5.5194,5.5194,5.5194,5.5194,5.5194,5.5194,5.5194,5.5194,5.5194,5.5194,5.5194,5.5194,5.5194,5.5194,5.5194,5.5194,5.5194,5.5194,5.5194,5.5194,5.5194,5.5194,3.776,0.0,3.599,3.5031,3.4598,3.4437,0.0,0.0,0.0,0.0,0.0,3.7181,3.7795,3.79,3.79,3.79,3.79,3.79,3.79,3.8658,3.9444,4.0123,4.0855,4.1286,4.1286,4.1286,4.1546,4.2147,4.2696,4.3271,4.3873,4.4421,4.4695,4.4695,4.4695,4.4695,4.4695,4.4695,4.4695,4.4695,4.4695,4.4695,4.4776,4.6738,4.7777,0.0,0.0,0.0,5.1191,5.1191,5.1191,5.1191,5.1191,5.1191,5.1191,5.1191,5.1191,5.1191,5.1191,5.1191,5.1191,5.1191,5.1191,5.1191,5.1191,5.1191,5.1191,5.1191,5.1191,5.1191,5.1191,5.1191,5.1191,5.1191,5.1191,5.1191,5.1191,5.1191,5.1191,5.1191,5.1191,5.1191,5.1191,5.2306,5.3198,5.3198,5.4351,5.5194,5.5194,5.5194,5.5194,5.5194,5.5194,5.5194,5.5194,5.5194,5.5194,5.5194,5.5194,5.5194,5.5194,5.5194,5.5194,5.5194,5.5194,5.5194,5.5194,5.5194,5.5194,5.5194,5.5194,5.5194,3.7768,3.7131,3.6248,3.5635,3.4943,3.4397,3.4397,0.0,0.0,0.0,0.0,3.6776,3.7377,3.7717,3.79,3.79,3.79,3.7991,3.824,3.905,3.9808,4.0332,4.092,4.1286,4.1286,4.1286,4.1442,4.1755,4.2304,4.2879,4.3454,4.4016,4.446,4.4695,4.4695,4.4695,4.4695,4.4695,4.4695,4.4695,4.4695,4.4695,4.4749,4.5939,4.6764,0.0,0.0,0.0,5.0499,5.1003,5.1191,5.1191,5.1191,5.1191,5.1191,5.1191,5.1191,5.1191,5.1191,5.1191,5.1191,5.1191,5.1191,5.1191,5.1191,5.1191,5.1191,5.1191,5.1191,5.1191,5.1191,5.1191,5.1191,5.1191,5.1191,5.1191,5.1191,5.1191,5.1191,5.1191,5.1191,5.1191,5.1191,5.2306,5.3198,5.3198,5.4351,5.5194,5.5194,5.5194,5.5194,5.5194,5.5194,5.5194,5.5194,5.5194,5.5194,5.5194,5.5194,5.5194,5.5194,5.5194,5.5194,5.5194,5.5194,5.5194,5.5194,5.5194,5.5194,5.5194,5.5194,5.5194,3.7332,3.6836,3.633,3.6311,3.5447,3.4551,3.4439,0.0,0.0,0.0,0.0,3.6279,3.6894,3.7495,3.79,3.79,3.79,3.8122,3.8762,3.9285,3.9823,4.045,4.0972,4.1286,4.1286,4.1286,4.1286,4.1286,4.1872,4.2408,4.284,4.352,4.4121,4.4551,4.4656,4.4695,4.4695,4.4695,4.4695,4.4695,4.4695,4.4695,4.4695,4.4884,4.5582,4.6699,0.0,0.0,4.9917,5.0822,5.1191,5.1191,5.1191,5.1191,5.1191,5.1191,5.1191,5.1191,5.1191,5.1191,5.1191,5.1191,5.1191,5.1191,5.1191,5.1191,5.1191,5.1191,5.1191,5.1191,5.1191,5.1191,5.1191,5.1191,5.1191,5.1191,5.1191,5.1191,5.1191,5.1191,5.1191,5.1191,5.1191,5.2306,5.3198,5.3198,5.4351,5.5194,5.5194,5.5194,5.5194,5.5194,5.5194,5.5194,5.5194,5.5194,5.5194,5.5194,5.5194,5.5194,5.5194,5.5194,5.5194,5.5194,5.5194,5.5194,5.5194,5.5194,5.5194,5.5194,5.5194,5.5194,3.7317,3.6591,3.5754,3.6181,3.591,3.5305,3.4571,0.0,0.0,0.0,3.573,3.6279,3.6894,3.7495,3.79,3.79,3.79,3.8279,3.9324,3.9523,4.0004,4.1025,4.1234,4.1286,4.1286,4.1286,4.1286,4.1286,4.1872,4.2225,4.2317,4.3324,4.3938,4.403,4.4474,4.4695,4.4695,4.4695,4.4695,4.4695,4.4695,4.4695,4.4722,4.5702,4.6725,4.7802,0.0,4.9965,5.0979,5.112,5.1191,5.1191,5.1191,5.1191,5.1191,5.1191,5.1191,5.1191,5.1191,5.1191,5.1191,5.1191,5.1191,5.1191,5.1191,5.1191,5.1191,5.1191,5.1191,5.1191,5.1191,5.1191,5.1191,5.1191,5.1191,5.1191,5.1191,5.1191,5.1191,5.1191,5.1191,5.1191,5.1191,5.2306,5.3198,5.3198,5.4351,5.5194,5.5194,5.5194,5.5194,5.5194,5.5194,5.5194,5.5194,5.5194,5.5194,5.5194,5.5194,5.5194,5.5194,5.5194,5.5194,5.5194,5.5194,5.5194,5.5194,5.5194,5.5194,5.5194,5.5194,5.5194,3.7323,3.7249,3.6858,3.65,3.569,3.4889,3.4501,0.0,0.0,0.0,3.573,3.6279,3.6894,3.7495,3.79,3.79,3.8148,3.8645,3.9494,3.986,4.0332,4.1194,4.1286,4.1286,4.1286,4.1286,4.1286,4.1286,4.1559,4.1872,4.2173,4.2958,4.3546,4.3886,4.4434,4.4695,4.4695,4.4695,4.4695,4.4695,4.4695,4.4695,4.4722,4.5248,4.6085,4.7203,0.0,4.9352,5.0364,5.0964,5.1191,5.1191,5.1191,5.1191,5.1191,5.1191,5.1191,5.1191,5.1191,5.1191,5.1191,5.1191,5.1191,5.1191,5.1191,5.1191,5.1191,5.1191,5.1191,5.1191,5.1191,5.1191,5.1191,5.1191,5.1191,5.1191,5.1191,5.1191,5.1191,5.1191,5.1191,5.1191,5.1191,5.2007,5.265,5.265,5.3803,5.4655,5.4655,5.497,5.5194,5.5194,5.5194,5.5194,5.5194,5.5194,5.5194,5.5194,5.5194,5.5194,5.5194,5.5194,5.5194,5.5194,5.5194,5.5194,5.5194,5.5194,5.5194,5.5194,5.5194,5.5194,3.7123,3.7447,3.7387,3.6489,0.0,0.0,0.0,0.0,0.0,0.0,3.5835,3.6449,3.692,3.7495,3.79,3.79,3.8357,3.8919,3.9534,4.0045,4.062,4.1221,4.1286,4.1286,4.1286,4.1286,4.1286,4.1286,4.1286,4.1507,4.1964,4.2631,4.3219,4.3677,4.4356,4.4695,4.4695,4.4695,4.4695,4.4695,4.4695,4.4695,4.4695,4.4695,4.5475,4.6829,4.765,4.8745,5.0037,5.087,5.1191,5.1191,5.1191,5.1191,5.1191,5.1191,5.1191,5.1191,5.1191,5.1191,5.1191,5.1191,5.1191,5.1191,5.1191,5.1191,5.1191,5.1191,5.1191,5.1191,5.1191,5.1191,5.1191,5.1191,5.1191,5.1191,5.1191,5.1191,5.1191,5.1191,5.1191,5.1191,5.1191,5.1768,5.2202,5.2202,5.3204,5.4027,5.4192,5.4655,5.5029,5.5179,5.5194,5.5194,5.5194,5.5194,5.5194,5.5194,5.5194,5.5194,5.5194,5.5194,5.5194,5.5194,5.5194,5.5194,5.5194,5.5194,5.5194,5.5194,5.5194,5.5194,3.6553,3.623,3.5832,3.5608,3.6292,0.0,3.4806,3.4829,0.0,3.5286,0.0,3.6946,3.6998,3.7495,3.79,3.79,3.8357,3.8919,3.9534,4.0045,4.062,4.1221,4.1286,4.1286,4.1286,4.1286,4.1286,4.1286,4.1286,4.1312,4.1376,4.2396,4.301,4.3049,4.4133,4.4695,4.4695,4.4695,4.4695,4.4695,4.4695,4.4695,4.4695,4.4695,4.5874,4.7903,4.7979,4.9166,5.1097,5.1167,5.1191,5.1191,5.1191,5.1191,5.1191,5.1191,5.1191,5.1191,5.1191,5.1191,5.1191,5.1191,5.1191,5.1191,5.1191,5.1191,5.1191,5.1191,5.1191,5.1191,5.1191,5.1191,5.1191,5.1191,5.1191,5.1191,5.1191,5.1191,5.1191,5.1191,5.1191,5.1191,5.1191,5.1768,5.2202,5.2202,5.28,5.3488,5.4132,5.4251,5.4521,5.5119,5.5194,5.5194,5.5194,5.5194,5.5194,5.5194,5.5194,5.5194,5.5194,5.5194,5.5194,5.5194,5.5194,5.5194,5.5194,5.5194,5.5194,5.5194,5.5194,5.5194,3.6507,3.6505,3.6346,3.5672,3.5976,0.0,0.0,3.4868,3.5391,3.573,3.6436,3.7116,3.7495,3.7756,3.79,3.79,3.8648,3.9351,3.9573,4.0372,4.1038,4.126,4.1286,4.1286,4.1286,4.1286,4.1286,4.1286,4.1286,4.1286,4.1286,4.237,4.2997,4.2997,4.4107,4.4695,4.4695,4.4695,4.4695,4.4695,4.4695,4.4695,4.4695,4.4695,4.59,4.8005,4.8005,4.9215,5.1191,5.1191,5.1191,5.1191,5.1191,5.1191,5.1191,5.1191,5.1191,5.1191,5.1191,5.1191,5.1191,5.1191,5.1191,5.1191,5.1191,5.1191,5.1191,5.1191,5.1191,5.1191,5.1191,5.1191,5.1191,5.1191,5.1191,5.1191,5.1191,5.1191,5.1191,5.1191,5.1191,5.1191,5.1191,5.14,5.1588,5.1588,5.2157,5.2815,5.3488,5.3937,5.4461,5.5119,5.5194,5.5194,5.5194,5.5194,5.5194,5.5194,5.5194,5.5194,5.5194,5.5194,5.5194,5.5194,5.5194,5.5194,5.5194,5.5194,5.5194,5.5194,5.5194,5.5194,3.6414,3.6649,3.6662,3.5669,0.0,0.0,3.4873,3.5129,3.5704,3.6279,3.6867,3.7416,3.7835,3.79,3.79,3.79,3.8867,3.9612,3.9612,4.0567,4.1286,4.1286,4.1286,4.1286,4.1286,4.1286,4.1286,4.1286,4.1286,4.1286,4.1286,4.2226,4.2788,4.2866,4.3898,4.4498,4.4572,4.4572,4.4626,4.4695,4.4599,4.4626,4.4695,4.4695,4.59,4.8005,4.8005,4.9215,5.1191,5.1191,5.1191,5.1191,5.1191,5.1191,5.1191,5.1191,5.1191,5.1191,5.1191,5.1191,5.1191,5.1191,5.1191,5.1191,5.1191,5.1191,5.1191,5.1191,5.1191,5.1191,5.1191,5.1191,5.1191,5.1191,5.1191,5.1191,5.1191,5.1191,5.1191,5.1191,5.1191,5.1191,5.1191,5.1191,5.1191,5.1191,5.1783,5.2441,5.3124,5.3788,5.4461,5.5119,5.5194,5.5194,5.5194,5.5194,5.5194,5.5194,5.5194,5.5194,5.5194,5.5194,5.5194,5.5194,5.5194,5.5194,5.5194,5.5194,5.5194,5.5194,5.5194,5.5194,3.6196,3.6443,3.6462,3.5446,3.5555,3.5798,3.5392,3.5717,3.6279,3.6881,3.7482,3.79,3.79,3.79,3.79,3.79,3.8867,3.9612,3.9612,4.0567,4.1286,4.1286,4.1286,4.1286,4.1286,4.1286,4.1286,4.1286,4.1286,4.1286,4.1286,4.1885,4.2332,4.2604,4.3453,4.4026,4.4313,4.4285,4.4436,4.4695,4.4449,4.4436,4.4695,4.4695,4.59,4.8005,4.8005,4.9215,5.1191,5.1191,5.1191,5.1191,5.1191,5.1191,5.1191,5.1191,5.1191,5.1191,5.1191,5.1191,5.1191,5.1191,5.1191,5.1191,5.1191,5.1191,5.1191,5.1191,5.1191,5.1191,5.1191,5.1191,5.1191,5.1191,5.1191,5.1191,5.1191,5.1191,5.1191,5.1191,5.1191,5.1191,5.1191,5.1191,5.1191,5.1191,5.1783,5.2441,5.3124,5.3788,5.4461,5.5119,5.5194,5.5194,5.5194,5.5194,5.5194,5.5194,5.5194,5.5194,5.5194,5.5194,5.5194,5.5194,5.5194,5.5194,5.5194,5.5194,5.5194,5.5194,5.5194,5.5194,3.6414,3.6139,3.5783,3.5487,3.544,3.5543,3.5799,3.5992,3.6397,3.7429,3.7782,3.79,3.79,3.79,3.79,3.79,3.8867,3.9612,3.9612,4.0567,4.1286,4.1286,4.1286,4.1286,4.1286,4.1286,4.1286,4.1286,4.1286,4.1286,4.1286,4.1885,4.2409,4.2879,4.3545,4.412,4.4599,4.4572,4.4518,4.4422,4.4518,4.4626,4.4695,4.4695,4.59,4.8005,4.8005,4.9215,5.1191,5.1191,5.1191,5.1191,5.1191,5.1191,5.1191,5.1191,5.1191,5.1191,5.1191,5.1191,5.1191,5.1191,5.1191,5.1191,5.1191,5.1191,5.1191,5.1191,5.1191,5.1191,5.1191,5.1191,5.1191,5.1191,5.1191,5.1191,5.1191,5.1191,5.1191,5.1191,5.1191,5.1191,5.1191,5.1191,5.1191,5.1191,5.1783,5.2606,5.3758,5.4491,5.497,5.5164,5.5194,5.5194,5.5194,5.5194,5.5194,5.5194,5.5194,5.5194,5.5194,5.5194,5.5194,5.5194,5.5194,5.5194,5.5194,5.5194,5.5194,5.5194,5.5194,5.5194,3.5847,3.5753,3.5617,3.4975,3.5294,3.5897,3.6345,3.6645,3.7024,3.7756,3.79,3.79,3.79,3.79,3.79,3.79,3.8867,3.9612,3.9612,4.0567,4.1286,4.1286,4.1286,4.1286,4.1286,4.1286,4.1261,4.1147,4.1122,4.1122,4.1122,4.1473,4.2033,4.2827,4.331,4.3818,4.4382,4.4491,4.4422,4.4134,4.4285,4.4395,4.4395,4.4599,4.59,4.8055,4.8904,4.9999,5.1191,5.1191,5.1191,5.1191,5.1191,5.1191,5.1191,5.1191,5.1191,5.1191,5.1191,5.1191,5.1191,5.1191,5.1191,5.1191,5.1191,5.1191,5.1191,5.1191,5.1191,5.1191,5.1191,5.1191,5.1191,5.1191,5.1191,5.1191,5.1191,5.1191,5.1191,5.1191,5.1191,5.1191,5.1191,5.1191,5.1191,5.1191,5.2007,5.3069,5.4416,5.494,5.5194,5.5194,5.5194,5.5194,5.5194,5.5194,5.5194,5.5194,5.5194,5.5194,5.5194,5.5194,5.5194,5.5194,5.5194,5.5194,5.5194,5.5194,5.5194,5.5194,5.5194,5.5194,3.4909,3.5359,3.574,3.4202,3.5156,3.658,3.6993,3.7508,3.79,3.79,3.79,3.79,3.79,3.79,3.79,3.79,3.8867,3.9612,3.9612,4.0567,4.1286,4.1286,4.1286,4.1286,4.1286,4.1286,4.1186,4.0908,4.0908,4.0883,4.0858,4.0858,4.1401,4.2539,4.2788,4.3241,4.3942,4.4189,4.4161,4.3899,4.3927,4.3899,4.3859,4.4422,4.586,4.8117,5.0182,5.112,5.1191,5.1191,5.1191,5.1191,5.1191,5.1191,5.1191,5.1191,5.1191,5.1191,5.1191,5.1191,5.1191,5.1191,5.1191,5.1191,5.1191,5.1191,5.1191,5.1191,5.1191,5.1191,5.1191,5.1191,5.1191,5.1191,5.1191,5.1191,5.1191,5.1191,5.1191,5.1191,5.1191,5.1191,5.1191,5.1191,5.1236,5.1355,5.2411,5.3692,5.504,5.5194,5.5194,5.5194,5.5194,5.5194,5.5194,5.5194,5.5194,5.5194,5.5194,5.5194,5.5194,5.5194,5.5194,5.5194,5.5194,5.5194,5.5194,5.5194,5.5194,5.5194,5.5194,5.5194,3.5206,3.5207,3.5183,3.4269,3.5109,3.6446,3.7475,3.7808,3.79,3.79,3.79,3.79,3.79,3.79,3.79,3.79,3.8867,3.9612,3.9612,4.0567,4.1286,4.1286,4.1286,4.1286,4.1286,4.1286,4.1186,4.0908,4.0908,4.082,4.0605,4.0605,4.1119,4.225,4.2341,4.2961,4.419,4.4258,4.4161,0.0,4.4107,4.3984,4.3517,4.4108,4.5715,4.808,4.9376,5.0427,5.1191,5.1191,5.1191,5.1191,5.1191,5.1191,5.1191,5.1191,5.1191,5.1191,5.1191,5.1191,5.1191,5.1191,5.1191,5.1191,5.1191,5.1191,5.1191,5.1191,5.1191,5.1191,5.1191,5.1191,5.1191,5.1191,5.1191,5.1191,5.1191,5.1191,5.1191,5.1191,5.1191,5.1191,5.1191,5.1191,5.155,5.2606,5.3019,5.3692,5.504,5.5194,5.5194,5.5194,5.5194,5.5194,5.5194,5.5194,5.5194,5.5194,5.5194,5.5194,5.5194,5.5194,5.5194,5.5194,5.5194,5.5194,5.5194,5.5194,5.5194,5.5194,5.5194,5.5194,3.4664,3.477,3.5167,3.5076,3.5577,3.6423,3.7625,3.79,3.79,3.79,3.79,3.79,3.79,3.79,3.79,3.79,3.8867,3.9612,3.9612,4.0567,4.1286,4.1286,4.1286,4.1286,4.1286,4.1286,4.1135,4.0744,4.0719,4.0593,4.0313,4.0313,4.076,4.1799,4.2068,4.2619,4.3491,4.3883,4.3969,4.3668,4.3806,4.3806,4.3668,4.4614,4.6137,4.8055,4.9131,5.022,5.1191,5.1191,5.1191,5.1191,5.1191,5.1191,5.1191,5.1191,5.1191,5.1191,5.1191,5.1191,5.1191,5.1191,5.1191,5.1191,5.1191,5.1191,5.1191,5.1191,5.1191,5.1191,5.1191,5.1191,5.1191,5.1191,5.1191,5.1191,5.1191,5.1191,5.1191,5.1191,5.1191,5.1191,5.1191,5.1191,5.1663,5.3004,5.3198,5.3692,5.504,5.5194,5.5194,5.5194,5.5194,5.5194,5.5194,5.5194,5.5194,5.5194,5.5194,5.5194,5.5194,5.5194,5.5194,5.5194,5.5194,5.5194,5.5194,5.5194,5.5194,5.5194,5.5194,5.5194,3.399,3.4126,3.4966,3.5754,3.6031,3.6397,3.7495,3.7835,3.79,3.79,3.79,3.79,3.79,3.79,3.79,3.79,3.8776,3.9494,3.9599,4.0476,4.1168,4.1223,4.1236,4.1211,4.1161,4.1161,4.0959,4.0478,4.0428,4.0313,4.0057,4.0032,4.0414,4.122,4.1756,4.2211,4.2607,4.344,4.3764,4.3489,4.3489,4.3668,4.3997,4.5114,4.649,4.8055,4.8944,5.0037,5.1191,5.1191,5.1191,5.1191,5.1191,5.1191,5.1191,5.1191,5.1191,5.1191,5.1191,5.1191,5.1191,5.1191,5.1191,5.1191,5.1191,5.1191,5.1191,5.1191,5.1191,5.1191,5.1191,5.1191,5.1191,5.1191,5.1191,5.1191,5.1191,5.1191,5.1191,5.1191,5.1191,5.1191,5.1191,5.1295,5.1798,5.3019,5.3303,5.3827,5.5029,5.5194,5.5194,5.5194,5.5194,5.5194,5.5194,5.5194,5.5194,5.5194,5.5194,5.5194,5.5194,5.5194,5.5194,5.5194,5.5194,5.5194,5.5194,5.5194,5.5194,5.5194,5.5194,5.5194,3.399,3.327,3.3423,3.501,3.5757,3.6279,3.6972,3.7521,3.79,3.79,3.79,3.79,3.79,3.79,3.79,3.79,3.8423,3.8987,3.9534,4.0123,4.0624,4.0932,4.0933,4.0871,4.0631,4.0605,4.0466,4.0185,4.0147,4.0032,3.9762,3.9736,4.0026,4.0593,4.1133,4.1794,4.258,4.344,4.3872,4.3832,4.3832,4.3969,4.4258,4.4436,4.5794,4.8005,4.8156,4.9337,5.1191,5.1191,5.1191,5.1191,5.1191,5.1191,5.1191,5.1191,5.1191,5.1191,5.1191,5.1191,5.1191,5.1191,5.1191,5.1191,5.1191,5.1191,5.1191,5.1191,5.1191,5.1191,5.1191,5.1191,5.1191,5.1191,5.1191,5.1191,5.1191,5.1191,5.1191,5.1191,5.1191,5.1191,5.1191,5.1669,5.2321,5.3094,5.3683,5.4341,5.5089,5.5194,5.5194,5.5194,5.5194,5.5194,5.5194,5.5194,5.5194,5.5194,5.5194,5.5194,5.5194,5.5194,5.5194,5.5194,5.5194,5.5194,5.5194,5.5194,5.5194,5.5194,5.5194,5.5194,3.4783,3.3903,3.3648,3.496,3.5704,3.6266,3.6867,3.7469,3.79,3.79,3.79,3.79,3.79,3.79,3.79,3.79,3.8264,3.8778,3.9496,3.9961,4.0398,4.0843,4.0908,4.0795,4.0529,4.0504,4.0389,4.0121,4.0096,3.9981,3.9723,3.9697,3.981,4.0049,4.0863,4.1482,4.1868,4.2891,4.3404,4.3404,4.3734,4.3955,4.4079,4.4231,4.5662,4.8005,4.8005,4.9215,5.1191,5.1191,5.1191,5.1191,5.1191,5.1191,5.1191,5.1191,5.1191,5.1191,5.1191,5.1191,5.1191,5.1191,5.1191,5.1191,5.1191,5.1191,5.1191,5.1191,5.1191,5.1191,5.1191,5.1191,5.1191,5.1191,5.1191,5.1191,5.1191,5.1191,5.1191,5.1191,5.1191,5.131,5.1708,5.2007,5.2561,5.3593,5.4012,5.4446,5.5104,5.5194,5.5194,5.5194,5.5194,5.5194,5.5194,5.5194,5.5194,5.5194,5.5194,5.5194,5.5194,5.5194,5.5194,5.5194,5.5194,5.5194,5.5194,5.5194,5.5194,5.5194,5.5194,5.5194,3.5046,3.4253,3.3745,3.4635,3.5391,3.6057,3.6645,3.7246,3.7717,3.7874,3.79,3.7877,3.7808,3.7854,3.7877,3.7808,3.8007,3.8404,3.9097,3.9521,3.9955,4.0436,4.0616,4.058,4.0326,4.03,4.0224,4.0006,4.0006,3.9904,3.9723,3.9697,3.9697,3.9697,4.0738,4.1315,4.1315,4.2504,4.3169,4.3348,4.3776,4.4024,4.4107,4.4313,4.5569,4.7599,4.7878,4.9067,5.0822,5.1097,5.1191,5.1191,5.1191,5.1191,5.1191,5.1191,5.1191,5.1191,5.1191,5.1191,5.1191,5.1191,5.1191,5.1191,5.1191,5.1191,5.1191,5.1191,5.0988,5.0846,5.112,5.0988,5.087,5.1144,5.1191,5.1191,5.1191,5.1191,5.1191,5.1191,5.1191,5.14,5.2082,5.2336,5.2845,5.4027,5.4356,5.464,5.5134,5.5194,5.5194,5.5194,5.5194,5.5194,5.5194,5.5194,5.5194,5.5194,5.5194,5.5194,5.5194,5.5194,5.5194,5.5194,5.5194,5.5194,5.5194,5.5194,5.5194,5.5194,5.5194,5.5194,3.4168,3.3567,3.2915,3.3542,3.4515,3.5482,3.6018,3.6619,3.7207,3.7782,3.79,3.7831,3.7564,3.7726,3.7831,3.7551,3.7531,3.7681,3.8025,3.854,3.9007,3.9334,3.9829,4.0032,3.9774,3.9736,3.9749,3.9723,3.9723,3.9723,3.9697,3.9697,3.9697,3.9697,4.0738,4.1315,4.1315,4.2684,4.3655,4.4231,4.4258,4.4422,4.4654,4.4681,4.5342,4.6557,4.7548,4.8646,4.9771,5.0775,5.1191,5.1191,5.1191,5.1191,5.1191,5.1191,5.1191,5.1191,5.1191,5.1191,5.1191,5.1191,5.1191,5.1191,5.1191,5.1191,5.1191,5.1191,5.0475,4.9917,5.0941,5.0451,4.9941,5.0979,5.1191,5.1191,5.1191,5.1191,5.1191,5.1191,5.1191,5.14,5.2082,5.2734,5.3393,5.4102,5.4745,5.5149,5.5194,5.5194,5.5194,5.5194,5.5194,5.5194,5.5194,5.5194,5.5194,5.5194,5.5194,5.5194,5.5194,5.5194,5.5194,5.5194,5.5194,5.5194,5.5194,5.5194,5.5194,5.5194,5.5194,5.5194,3.4172,3.3797,3.3447,3.3572,3.445,3.5443,3.5979,3.6567,3.7168,3.7782,3.79,3.7831,3.7551,3.7588,3.7564,3.7284,3.7108,3.722,3.7903,3.8026,3.8353,3.9207,3.9461,3.9614,3.9685,3.9697,3.9697,3.9697,3.9697,3.9697,3.9697,3.9697,3.9697,3.9697,4.0738,4.1654,4.2384,4.2884,4.3252,4.3474,4.3859,4.4079,4.4216,4.4545,4.4938,4.5368,4.6491,4.7968,4.9674,5.0775,5.1191,5.1191,5.1191,5.1191,5.1191,5.1191,5.1191,5.1191,5.1191,5.0751,5.0292,5.0979,5.0278,4.9386,5.0784,5.0713,5.0316,5.1003,5.0917,5.0713,5.1097,5.0917,5.0713,5.112,5.1191,5.1191,5.1191,5.1191,5.1191,5.1191,5.1535,5.2052,5.2734,5.3384,5.4072,5.4745,5.5044,5.5194,5.5194,5.5194,5.5194,5.5194,5.5194,5.5194,5.5194,5.5194,5.5194,5.5194,5.5194,5.5194,5.5194,5.5194,5.5194,5.5194,5.5194,5.5194,5.5194,5.5194,5.5194,5.5194,5.5194,5.5194,3.3861,3.3623,3.3413,3.3322,3.4149,3.5142,3.5704,3.6279,3.6867,3.7482,3.7756,3.7785,3.7436,3.7366,3.7284,3.7015,3.6815,3.6872,3.7397,3.747,3.7805,3.8754,3.9045,3.9297,3.9673,3.9697,3.9697,3.9697,3.9697,0.0,3.9697,3.9697,3.9772,3.9961,4.0838,4.1754,4.2713,4.2985,4.3197,4.3321,4.3804,4.4079,4.4189,4.4545,4.4695,4.4749,4.5914,4.7217,4.861,4.9684,5.0134,5.0134,5.0134,5.0134,5.0134,5.0134,5.0134,5.0134,5.0134,4.9645,4.918,4.9902,4.9166,4.8282,4.9693,4.9635,4.9278,5.0364,5.0134,4.9757,5.0499,5.0665,5.0736,5.112,5.1191,5.1191,5.1191,5.1191,5.1265,5.1475,5.1902,5.2471,5.3369,5.3907,5.4431,5.5089,5.5194,5.5194,5.5194,5.5194,5.5194,5.5194,5.5194,5.5194,5.5194,5.5194,5.5194,5.5194,5.5194,5.5194,5.5194,5.5194,5.5194,5.5194,5.5194,5.5194,5.5194,5.5194,5.5194,5.5194,5.5194,5.5194,0.0,0.0,0.0,3.2685,3.3548,3.4554,3.5155,3.5704,3.6253,3.6881,3.7469,3.7713,3.7178,3.7085,3.7015,3.6745,3.6698,3.6628,3.6428,3.6846,3.7386,3.7914,3.8517,3.9082,3.9622,3.9685,3.9697,3.9697,3.9697,3.9697,3.9697,3.9697,3.9948,4.0474,4.1026,4.1605,4.22,4.2989,4.3545,4.3899,4.4161,4.4436,4.4695,4.4695,4.4695,4.4749,4.5861,4.6348,4.6426,4.7548,4.8005,4.8005,4.8005,4.8005,4.8005,4.8005,4.8005,4.8005,4.8005,4.7979,4.7954,4.8005,4.7954,4.7915,4.7979,4.7979,4.8181,4.9254,4.8044,4.6933,4.9032,4.9601,4.9868,5.0941,5.1191,5.1206,5.1221,5.1221,5.1415,5.2067,5.2232,5.2665,5.3982,5.4221,5.4461,5.5089,5.5194,5.5194,5.5194,5.5194,5.5194,5.5194,5.5194,5.5194,5.5194,5.5194,5.5194,5.5194,5.5194,5.5194,5.5194,5.5194,5.5194,5.5194,5.5194,5.5194,5.5194,5.5194,5.5194,5.5194,5.5194,5.5194,3.2541,0.0,0.0,0.0,0.0,0.0,3.5155,3.5417,3.5796,3.6802,3.6994,3.7001,3.7078,3.6932,3.6745,3.6523,3.6476,3.6452,3.6405,3.6543,3.6821,3.7349,3.7902,3.8467,3.907,3.9459,3.9697,0.0,3.9697,3.9697,3.9697,3.9697,3.9948,4.0474,4.1026,4.1605,4.22,4.2989,4.3449,4.3545,4.4066,4.434,4.4422,4.4599,4.4695,4.4722,4.5033,4.5167,4.5315,4.7215,4.8005,4.8005,4.8005,4.8005,4.8005,4.8005,4.8005,4.8005,4.8005,4.7497,4.6971,4.7751,4.6919,4.5913,4.7508,4.7459,4.7088,4.8131,4.8005,4.7878,4.9229,4.9601,4.9868,5.0941,5.1191,5.1325,5.1828,5.1932,5.1977,5.2157,5.298,5.3773,5.4147,5.4596,5.4985,5.5164,5.5194,5.5194,5.5194,5.5194,5.5194,5.5194,5.5194,5.5194,5.5194,5.5194,5.5194,5.5194,5.5194,5.5194,5.5194,5.5194,5.5194,5.5194,5.5194,5.5194,5.5194,5.5194,5.5194,5.5194,5.5194,5.5194,0.0,0.0,0.0,0.0,0.0,0.0,3.4842,3.5116,3.5547,3.6449,3.6614,3.6703,3.7029,3.6886,3.6628,3.6428,3.6405,3.6405,3.6405,3.6405,3.6595,3.7148,3.7487,3.7977,3.8818,3.9183,3.9472,3.9672,3.9697,3.9697,3.9697,3.9697,3.9835,4.0162,4.0901,4.1546,4.2036,4.3081,4.3613,4.3613,4.4094,4.4231,4.4134,4.4422,4.4518,4.4545,4.4654,4.4695,4.4803,4.6098,4.6634,4.6634,4.6634,4.6634,4.6634,4.6634,4.6634,4.6634,4.6634,4.6203,4.5781,4.6425,4.5741,4.4925,4.6229,4.6177,4.5914,4.7023,4.7317,4.7587,4.8646,4.8919,4.9327,5.0846,5.1191,5.137,5.2052,5.2411,5.2695,5.298,5.3683,5.4296,5.4581,5.494,5.5194,5.5194,5.5194,5.5194,5.5194,5.5194,5.5194,5.5194,5.5194,5.5194,5.5194,5.5194,5.5194,5.5194,5.5194,5.5194,5.5194,5.5194,5.5194,5.5194,5.5194,5.5194,5.5194,5.5194,5.5194,5.5194,5.5194,5.5194,0.0,0.0,0.0,0.0,0.0,0.0,3.4397,3.4816,3.5351,3.59,3.6224,3.6535,3.695,3.6796,3.6552,3.6416,3.6405,3.6405,3.6405,3.6405,3.6593,3.706,3.7173,3.76,3.8605,3.8768,3.9032,3.9559,3.9659,3.9697,3.9697,3.9697,3.9697,3.9697,4.0675,4.1386,4.1809,4.3136,4.3835,4.3899,4.4161,4.4161,4.3899,4.4189,4.4285,4.4313,4.4572,4.4695,4.4695,4.4695,4.4695,4.4695,4.4695,4.4695,4.4695,4.4695,4.4695,4.4695,4.4695,4.4695,4.4695,4.4695,4.4695,4.4695,4.4695,4.4695,4.4911,4.594,4.6216,4.6505,4.77,4.8005,4.8532,5.0689,5.1251,5.149,5.2172,5.283,5.3503,5.4177,5.4326,5.4506,5.5089,5.5194,5.5194,5.5194,5.5194,5.5194,5.5194,5.5194,5.5194,5.5194,5.5194,5.5194,5.5194,5.5194,5.5194,5.5194,5.5194,5.5194,5.5194,5.5194,5.5194,5.5194,5.5194,5.5194,5.5194,5.5194,5.5194,5.5194,5.5194,5.5194,0.0,0.0,0.0,0.0,0.0,0.0,3.4397,3.4489,3.4737,3.5325,3.534,3.5489,3.6305,3.6236,3.6134,3.6366,3.6405,3.6405,3.6405,3.6405,3.6455,3.6532,3.6934,3.7298,3.7512,3.7914,3.8417,3.9007,3.9472,3.9697,3.9697,3.9697,3.9697,3.9697,4.0311,4.1022,4.1797,4.2727,4.3425,4.3899,4.4161,4.4161,4.3899,4.4189,4.4285,4.4313,4.4572,4.4695,4.4695,4.4695,4.4695,4.4695,4.4695,4.4695,4.4695,4.4695,4.4695,4.4695,4.4695,4.4695,4.4695,4.4695,4.4695,4.4695,4.4695,4.4695,4.4749,4.4952,4.5033,4.5489,4.7483,4.8005,4.8532,5.0689,5.1594,5.2187,5.2869,5.3533,5.4206,5.4865,5.4999,5.5044,5.5164,5.5194,5.5194,5.5194,5.5194,5.5194,5.5194,5.5194,5.5194,5.5194,5.5194,5.5194,5.5194,5.5194,5.5194,5.5194,5.5194,5.5194,5.5194,5.5194,5.5194,5.5194,5.5194,5.5194,5.5194,5.5194,5.5194,5.5194,5.5194,5.5194,0.0,0.0,0.0,3.3208,0.0,0.0,0.0,3.4397,3.4567,3.5168,3.5093,3.5192,3.6138,3.6083,3.602,3.6353,3.6405,3.6405,3.6405,3.6405,3.6405,3.6405,3.6632,3.6909,3.7185,3.7425,3.7952,3.8831,3.9158,3.9434,3.9685,3.9697,3.9697,3.9697,4.0224,4.0988,4.1997,4.2653,4.3283,4.3899,4.4024,4.3929,4.3668,4.3969,4.4161,4.4313,4.4572,4.4695,4.4695,4.4695,4.4695,4.4695,4.4695,4.4695,4.4695,4.4695,4.4695,4.4695,4.4695,4.4695,4.4695,4.4695,4.4695,4.4695,4.4695,4.4695,4.4695,4.4695,4.4695,4.5208,4.742,4.8005,4.8532,5.0689,5.1723,5.2381,5.3064,5.3728,5.4401,5.5059,5.5194,5.5194,5.5194,5.5194,5.5194,5.5194,5.5194,5.5194,5.5194,5.5194,5.5194,5.5194,5.5194,5.5194,5.5194,5.5194,5.5194,5.5194,5.5194,5.5194,5.5194,5.5194,5.5194,5.5194,5.5194,5.5194,5.5194,5.5194,5.5194,5.5194,5.5194,5.5194,0.0,0.0,0.0,0.0,0.0,3.4397,0.0,0.0,0.0,3.5025,3.4946,3.5051,3.5875,3.5819,3.576,3.6096,3.6179,3.6254,3.6301,3.6377,3.6428,3.6405,3.6405,3.6581,3.6997,3.7196,3.7686,3.8655,3.8881,3.9183,3.9659,3.9736,3.9736,3.9697,4.0176,4.0954,4.2117,4.2551,4.3126,4.3804,4.3804,4.3668,4.3421,4.3736,4.4052,4.4313,4.4572,4.4695,4.4695,4.4695,4.4695,4.4695,4.4695,4.4695,4.4695,4.4695,4.4695,4.4695,4.4695,4.4695,4.4695,4.4695,4.4695,4.4695,4.4695,4.4695,4.4695,4.4695,4.4695,4.5208,4.742,4.8005,4.8532,5.0689,5.1813,5.2531,5.3094,5.3832,5.4551,5.5089,5.5194,5.5194,5.5194,5.5194,5.5194,5.5194,5.5194,5.5194,5.5194,5.5194,5.5194,5.5194,5.5194,5.5194,5.5194,5.5194,5.5194,5.5194,5.5194,5.5194,5.5194,5.5194,5.5194,5.5194,5.5194,5.5194,5.5194,5.5194,5.5194,5.5194,5.5194,5.5194,0.0,0.0,0.0,0.0,3.3992,0.0,3.4397,0.0,3.441,3.4489,0.0,3.4593,3.4973,0.0,0.0,3.5199,3.5443,3.5676,3.5917,3.6358,3.6604,3.6428,3.6405,3.643,3.6469,3.7149,3.7717,3.8077,3.8767,3.9323,3.9685,3.9929,3.9955,3.9723,3.9992,4.0692,4.1837,4.1926,4.2433,4.3462,4.3462,4.3421,4.3421,4.3736,4.4052,4.4313,4.4572,4.4695,4.4695,4.4695,4.4695,4.4695,4.4695,4.4695,4.4695,4.4695,4.4695,4.4695,4.4695,4.4695,4.4695,4.4695,4.4695,4.4695,4.4695,4.4695,4.4695,4.4695,4.4695,4.5208,4.742,4.8005,4.8532,5.0689,5.2172,5.3124,5.3183,5.4177,5.5104,5.5179,5.5194,5.5194,5.5194,5.5194,5.5194,5.5194,5.5194,5.5194,5.5194,5.5194,5.5194,5.5194,5.5194,5.5194,5.5194,5.5194,5.5194,5.5194,5.5194,5.5194,5.5194,5.5194,5.5194,5.5194,5.5194,5.5194,5.5194,5.5194,5.5194,5.5194,5.5194,5.5194,0.0,0.0,0.0,0.0,0.0,0.0,3.4397,0.0,3.4397,0.0,0.0,0.0,0.0,0.0,0.0,0.0,3.5175,3.535,3.5586,3.6103,3.6552,3.6767,3.6805,0.0,3.6805,3.7115,3.745,3.7743,3.8508,3.9055,3.9233,3.9944,4.0147,3.9723,3.9955,4.0489,4.1263,4.1778,4.2419,4.3171,4.3667,4.3903,4.3944,4.4066,4.4285,4.4545,4.4654,4.4695,4.4695,4.4695,4.4695,4.4695,4.4695,4.4695,4.4695,4.4695,4.4695,4.4695,4.4695,4.4695,4.4695,4.4695,4.4695,4.4695,4.4695,4.4695,4.4695,4.4695,4.4695,4.506,4.6673,4.7074,4.7613,4.9757,5.1302,5.2432,5.3077,5.4236,5.5194,5.5194,5.5194,5.5194,5.5194,5.5194,5.5194,5.5194,5.5194,5.5194,5.5194,5.5194,5.5194,5.5194,5.5194,5.5194,5.5194,5.5194,5.5194,5.5194,5.5194,5.5194,5.5194,5.5194,5.5194,5.5194,5.5194,5.5194,5.5194,5.5194,5.5194,5.5194,5.5194,5.5194,3.5338,0.0,0.0,0.0,0.0,0.0,0.0,0.0,0.0,0.0,0.0,0.0,0.0,0.0,0.0,0.0,0.0,3.5035,3.5221,3.5775,3.6341,3.6814,3.7019,0.0,0.0,3.7168,3.7328,3.757,3.8266,3.873,3.8881,3.9816,4.0185,3.9813,4.0057,4.0478,4.1012,4.1743,4.2358,4.2893,4.3769,4.4189,4.4189,4.4258,4.4436,4.4695,4.4695,4.4695,4.4695,4.4695,4.4695,4.4695,4.4695,4.4695,4.4695,4.4695,4.4695,4.4695,4.4695,4.4695,4.4695,4.4695,4.4695,4.4695,4.4695,4.4695,4.4695,4.4695,4.4695,4.4952,4.6098,4.6635,4.7306,4.9155,5.0845,5.2244,5.3028,5.4236,5.5194,5.5194,5.5194,5.5194,5.5194,5.5194,5.5194,5.5194,5.5194,5.5194,5.5194,5.5194,5.5194,5.5194,5.5194,5.5194,5.5194,5.5194,5.5194,5.5194,5.5194,5.5194,5.5194,5.5194,5.5194,5.5194,5.5194,5.5194,5.5194,5.5194,5.5194,5.5194,5.5194,5.5194,0.0,0.0,0.0,3.5273,0.0,0.0,0.0,0.0,3.4335,0.0,0.0,0.0,0.0,0.0,0.0,0.0,0.0,0.0,0.0,3.5452,3.5932,3.6282,3.6775,3.7108,0.0,3.733,3.7528,0.0,3.8027,3.8492,3.8894,3.9621,4.004,4.0083,4.0351,4.0747,4.1285,4.1623,4.2089,4.262,4.3481,4.3899,4.3927,4.4189,4.4436,4.4695,4.4695,4.4695,4.4695,4.4695,4.4695,4.4695,4.4695,4.4695,4.4695,4.4695,4.4695,4.4695,4.4695,4.4695,4.4695,4.4695,4.4695,4.4695,4.4695,4.4695,4.4695,4.4695,4.4695,4.4952,4.6098,4.7177,4.8231,4.9342,5.1414,5.315,5.3174,5.4236,5.5194,5.5194,5.5194,5.5194,5.5194,5.5194,5.5194,5.5194,5.5194,5.5194,5.5194,5.5194,5.5194,5.5194,5.5194,5.5194,5.5194,5.5194,5.5194,5.5194,5.5194,5.5194,5.5194,5.5194,5.5194,5.5194,5.5194,5.5194,5.5194,5.5194,5.5194,5.5194,5.5194,5.5194,0.0,0.0,3.5835,3.5835,0.0,0.0,0.0,0.0,0.0,0.0,0.0,0.0,0.0,0.0,0.0,0.0,0.0,0.0,0.0,0.0,3.5787,3.6657,3.727,3.7634,0.0,0.0,3.7688,3.7544,3.8173,3.8646,3.8822,3.9748,4.0301,4.0351,4.0618,4.0759,4.076,4.1466,4.2071,4.2624,4.3471,4.4086,4.4449,4.4518,4.4599,4.4695,4.4695,4.4695,4.4695,4.4695,4.4695,4.4695,4.4695,4.4695,4.4695,4.4695,4.4695,4.4695,4.4695,4.4695,4.4695,4.4695,4.4695,4.4695,4.4695,4.4695,4.4695,4.4695,4.4695,4.4776,4.5167,4.5542,4.6098,4.7217,4.9334,5.1284,5.1994,5.3757,5.5194,5.5194,5.5194,5.5194,5.5194,5.5194,5.5194,5.5194,5.5194,5.5194,5.5194,5.5194,5.5194,5.5194,5.5194,5.5194,5.5194,5.5194,5.5194,5.5194,5.5194,5.5194,5.5194,5.5194,5.5194,5.5194,5.5194,5.5194,5.5194,5.5194,5.5194,5.5194,5.5194,5.5194,3.6737,3.6513,0.0,3.6278,3.6068,0.0,3.5771,0.0,0.0,0.0,0.0,0.0,0.0,0.0,0.0,0.0,0.0,0.0,0.0,3.492,3.5639,3.6567,3.722,3.7665,3.7887,3.79,3.7785,3.7528,3.8074,3.8423,0.0,3.9518,4.0175,4.0335,4.0717,4.0871,4.0783,4.1466,4.197,4.2281,4.3388,4.4015,4.426,4.4549,4.4695,4.4695,4.4695,4.4695,4.4695,4.4695,4.4695,4.4695,4.4695,4.4695,4.4695,4.4695,4.4695,4.4695,4.4695,4.4695,4.4695,4.4695,4.4695,4.4695,4.4695,4.4695,4.4747,4.4956,4.4865,4.4747,4.4956,4.5177,4.5502,4.6216,4.8221,5.024,5.136,5.3172,5.4692,5.5103,5.5194,5.5194,5.5194,5.5194,5.5194,5.5194,5.5194,5.5194,5.5194,5.5194,5.5194,5.5194,5.5194,5.5194,5.5194,5.5194,5.5194,5.5194,5.5194,5.5194,5.5194,5.5194,5.5194,5.5194,5.5194,5.5194,5.5194,5.5194,5.5194,5.5194,5.5194,5.5194]},{"header":{"parameterUnit":"m.s-1","parameterCategory":1,"la1":30.6,"la2":29.2853,"lo1":-89.7004,"lo2":-87.6739,"dy":0.0162,"dx":0.0183,"nx":112,"ny":82,"refTime":"2023-03-17T00:00:00:Z","depth":0,"parameterNumber":3,"parameterNumberName":"V-component_of_WINDS"},"data":[0.0,0.0,0.0,0.0,0.0,0.0,0.0,0.0,0.0,0.0,0.0,0.0,0.0,0.0,0.0,0.0,0.0,0.0,0.0,0.0,0.0,0.0,0.0,0.0,0.0,0.0,0.0,0.0,0.0,0.0,0.0,0.0,0.0,0.0,0.0,0.0,0.0,0.0,0.0,0.0,0.0,0.0,0.0,0.0,0.0,0.0,0.0,0.0,0.0,0.0,0.0,0.0,0.0,0.0,0.0,0.0,0.0,0.0,0.0,0.0,0.0,0.0,0.0,0.0,0.0,0.0,0.0,0.0,0.0,0.0,0.0,0.0,0.0,0.0,0.0,0.0,0.0,0.0,0.0,0.0,0.0,0.0,0.0,0.0,0.0,0.0,0.0,0.0,0.0,0.0,1.511,1.5131,1.5423,1.5906,1.6637,1.6813,1.6882,1.6858,0.0,0.0,0.0,0.0,0.0,0.0,0.0,0.0,0.0,0.0,0.0,0.0,0.0,0.0,0.0,0.0,0.0,0.0,0.0,0.0,0.0,0.0,0.0,0.0,0.0,0.0,0.0,0.0,0.0,0.0,0.0,0.0,0.0,0.0,0.0,0.0,0.0,0.0,0.0,0.0,0.0,0.0,0.0,0.0,0.0,0.0,0.0,0.0,0.0,0.0,0.0,0.0,0.0,0.0,0.0,0.0,0.0,0.0,0.0,0.0,0.0,0.0,0.0,0.0,0.0,0.0,0.0,0.0,0.0,0.0,0.0,0.0,0.0,0.0,0.0,0.0,0.0,0.0,0.0,0.0,0.0,0.0,0.0,0.0,0.0,0.0,0.0,0.0,0.0,0.0,0.0,0.0,0.0,0.0,0.0,0.0,0.0,0.0,0.0,0.0,0.0,0.0,0.0,0.0,1.5173,1.5347,1.6044,1.6563,1.6698,1.7391,1.8118,1.8816,0.0,0.0,0.0,0.0,0.0,0.0,0.0,0.0,0.0,0.0,0.0,0.0,0.0,0.0,0.0,0.0,0.0,0.0,0.0,0.0,0.0,0.0,0.0,0.0,0.0,0.0,0.0,0.0,0.0,0.0,0.0,0.0,0.0,0.0,0.0,0.0,0.0,0.0,0.0,0.0,0.0,0.0,0.0,0.0,0.0,0.0,0.0,0.0,0.0,0.0,0.0,0.0,0.0,0.0,0.0,0.0,0.0,0.0,0.0,0.0,0.0,0.0,0.0,0.0,0.0,0.0,0.0,0.0,0.0,0.0,0.0,0.0,0.0,0.0,0.0,0.0,0.0,0.0,0.0,0.0,0.0,0.0,0.0,0.0,0.0,0.0,0.0,0.0,0.0,0.0,0.0,0.0,0.0,0.0,0.0,0.0,0.0,0.0,0.0,0.0,0.0,0.0,0.0,1.5264,1.5298,1.5389,1.5769,1.6386,1.7322,1.7775,1.8367,1.9242,1.9362,0.0,0.0,0.0,0.0,0.0,0.0,0.0,0.0,0.0,0.0,0.0,0.0,0.0,0.0,0.0,0.0,0.0,0.0,0.0,0.0,0.0,0.0,0.0,0.0,0.0,0.0,0.0,0.0,0.0,0.0,0.0,0.0,0.0,0.0,0.0,0.0,0.0,0.0,0.0,0.0,0.0,0.0,0.0,0.0,0.0,0.0,0.0,0.0,0.0,0.0,0.0,0.0,0.0,0.0,0.0,0.0,0.0,0.0,0.0,0.0,0.0,0.0,0.0,0.0,0.0,0.0,0.0,0.0,0.0,0.0,0.0,0.0,0.0,0.0,0.0,0.0,0.0,0.0,0.0,0.0,0.0,0.0,0.0,0.0,0.0,0.0,0.0,0.0,0.0,0.0,0.0,0.0,0.0,0.0,0.0,0.0,0.0,0.0,0.0,0.0,0.0,0.0,1.541,1.541,1.541,1.5769,1.655,1.7896,1.8379,1.8942,1.9698,2.0283,0.0,0.0,0.0,0.0,0.0,0.0,0.0,0.0,0.0,0.0,0.0,0.0,0.0,0.0,0.0,0.0,0.0,0.0,0.0,0.0,0.0,0.0,0.0,0.0,0.0,0.0,0.0,0.0,0.0,0.0,0.0,0.0,0.0,0.0,0.0,0.0,0.0,0.0,0.0,0.0,0.0,0.0,0.0,0.0,0.0,0.0,0.0,0.0,0.0,0.0,0.0,0.0,0.0,0.0,0.0,0.0,0.0,0.0,0.0,0.0,0.0,0.0,0.0,0.0,0.0,0.0,0.0,0.0,0.0,0.0,0.0,0.0,0.0,0.0,0.0,0.0,0.0,0.0,0.0,0.0,0.0,0.0,0.0,0.0,0.0,0.0,0.0,0.0,0.0,0.0,0.0,0.0,0.0,0.0,0.0,0.0,0.0,0.0,0.0,0.0,0.0,0.0,1.541,1.541,1.541,1.6858,1.7876,1.7997,1.9481,2.0605,2.1042,2.0771,0.0,0.0,0.0,0.0,0.0,0.0,0.0,0.0,0.0,0.0,0.0,0.0,0.0,0.0,0.0,0.0,0.0,0.0,0.0,0.0,0.0,0.0,0.0,0.0,0.0,0.0,0.0,0.0,0.0,0.0,0.0,0.0,0.0,0.0,0.0,0.0,0.0,0.0,0.0,0.0,0.0,0.0,0.0,0.0,0.0,0.0,0.0,0.0,0.0,0.0,0.0,0.0,0.0,0.0,0.0,0.0,0.0,0.0,0.0,0.0,0.0,0.0,0.0,0.0,0.0,0.0,0.0,0.0,0.0,0.0,0.0,0.0,0.0,0.0,0.0,0.0,0.0,0.0,0.0,0.0,0.0,0.0,0.0,0.0,0.0,0.0,0.0,0.0,0.0,0.0,0.0,0.0,0.0,0.0,0.0,0.0,0.0,0.0,0.0,0.0,0.0,0.0,1.6469,1.6844,0.0,1.8242,1.9033,1.9581,2.0229,2.0907,2.159,0.0,0.0,0.0,0.0,0.0,0.0,0.0,0.0,0.0,0.0,0.0,0.0,0.0,0.0,0.0,0.0,0.0,0.0,0.0,0.0,0.0,0.0,0.0,0.0,0.0,0.0,0.0,0.0,0.0,0.0,0.0,0.0,0.0,0.0,0.0,0.0,0.0,0.0,0.0,0.0,0.0,0.0,0.0,0.0,0.0,0.0,0.0,0.0,0.0,0.0,0.0,0.0,0.0,0.0,0.0,0.0,0.0,0.0,0.0,0.0,0.0,0.0,0.0,0.0,0.0,0.0,0.0,0.0,0.0,0.0,0.0,0.0,0.0,0.0,0.0,0.0,0.0,0.0,0.0,0.0,0.0,0.0,0.0,0.0,0.0,0.0,0.0,0.0,0.0,0.0,0.0,0.0,0.0,0.0,0.0,0.0,0.0,0.0,0.0,0.0,0.0,0.0,1.6954,1.761,1.8208,0.0,1.9367,1.9957,2.0557,2.0838,2.1311,2.2029,0.0,0.0,0.0,0.0,0.0,0.0,0.0,0.0,0.0,0.0,0.0,0.0,0.0,0.0,0.0,0.0,0.0,0.0,0.0,0.0,0.0,0.0,0.0,0.0,0.0,0.0,0.0,0.0,0.0,0.0,0.0,0.0,0.0,0.0,0.0,0.0,0.0,0.0,0.0,0.0,0.0,0.0,0.0,0.0,0.0,0.0,0.0,0.0,0.0,0.0,0.0,0.0,0.0,0.0,0.0,0.0,0.0,0.0,0.0,0.0,0.0,0.0,0.0,0.0,0.0,0.0,0.0,0.0,0.0,0.0,0.0,0.0,0.0,0.0,0.0,0.0,0.0,0.0,0.0,0.0,0.0,0.0,0.0,0.0,0.0,0.0,0.0,0.0,0.0,0.0,0.0,0.0,0.0,0.0,0.0,0.0,0.0,0.0,0.0,0.0,0.0,0.0,1.7792,1.8703,1.9332,1.9332,2.0114,2.0638,2.0638,2.1419,2.208,0.0,0.0,0.0,0.0,0.0,0.0,0.0,0.0,0.0,0.0,0.0,0.0,0.0,0.0,0.0,0.0,0.0,0.0,0.0,0.0,0.0,0.0,0.0,0.0,0.0,0.0,0.0,0.0,0.0,0.0,0.0,0.0,0.0,0.0,0.0,0.0,0.0,0.0,0.0,0.0,0.0,0.0,0.0,0.0,0.0,0.0,0.0,0.0,0.0,0.0,0.0,0.0,0.0,0.0,0.0,0.0,0.0,0.0,0.0,0.0,0.0,0.0,0.0,0.0,0.0,0.0,0.0,0.0,0.0,0.0,0.0,0.0,0.0,0.0,0.0,0.0,0.0,0.0,0.0,0.0,0.0,0.0,0.0,0.0,0.0,0.0,0.0,0.0,0.0,0.0,0.0,0.0,0.0,0.0,0.0,0.0,0.0,0.0,0.0,0.0,0.0,0.0,0.0,1.9591,2.0284,2.0885,2.149,2.2033,2.2366,2.2366,2.2591,2.2801,2.2927,0.0,0.0,0.0,0.0,0.0,0.0,0.0,0.0,0.0,0.0,0.0,0.0,0.0,0.0,0.0,0.0,0.0,0.0,0.0,0.0,0.0,0.0,0.0,0.0,0.0,0.0,0.0,0.0,0.0,0.0,0.0,0.0,0.0,0.0,0.0,0.0,0.0,0.0,0.0,0.0,0.0,0.0,0.0,0.0,0.0,0.0,0.0,0.0,0.0,0.0,0.0,0.0,0.0,0.0,0.0,0.0,0.0,0.0,0.0,0.0,0.0,0.0,0.0,0.0,0.0,0.0,0.0,0.0,0.0,0.0,0.0,0.0,0.0,0.0,0.0,0.0,0.0,0.0,0.0,0.0,0.0,0.0,0.0,0.0,0.0,0.0,0.0,0.0,0.0,0.0,0.0,0.0,0.0,0.0,0.0,0.0,0.0,0.0,0.0,0.0,0.0,0.0,2.0887,2.1742,2.2431,2.2952,2.3376,2.3562,2.3386,2.3376,2.3298,2.311,0.0,0.0,0.0,0.0,0.0,0.0,0.0,0.0,0.0,0.0,0.0,0.0,0.0,0.0,0.0,0.0,0.0,0.0,0.0,0.0,0.0,0.0,0.0,0.0,0.0,0.0,0.0,0.0,0.0,0.0,0.0,0.0,0.0,0.0,0.0,0.0,0.0,0.0,0.0,0.0,0.0,0.0,0.0,0.0,0.0,0.0,0.0,0.0,0.0,0.0,0.0,0.0,0.0,0.0,0.0,0.0,0.0,0.0,0.0,0.0,0.0,0.0,0.0,0.0,0.0,0.0,0.0,0.0,0.0,0.0,0.0,0.0,0.0,0.0,0.0,0.0,0.0,0.0,0.0,0.0,0.0,0.0,0.0,0.0,0.0,0.0,0.0,0.0,0.0,0.0,0.0,0.0,0.0,0.0,0.0,0.0,0.0,0.0,0.0,0.0,0.0,0.0,2.1837,2.3012,2.3809,2.3838,2.4189,2.4235,2.3887,2.387,2.3682,2.3237,0.0,0.0,0.0,0.0,0.0,0.0,0.0,0.0,0.0,0.0,0.0,0.0,0.0,0.0,0.0,0.0,0.0,0.0,0.0,0.0,0.0,0.0,0.0,0.0,0.0,0.0,0.0,0.0,0.0,0.0,0.0,0.0,0.0,0.0,0.0,0.0,0.0,0.0,0.0,0.0,0.0,0.0,0.0,0.0,0.0,0.0,0.0,0.0,0.0,0.0,0.0,0.0,0.0,0.0,0.0,0.0,0.0,0.0,0.0,0.0,1.9865,0.0,0.0,0.0,0.0,0.0,0.0,0.0,0.0,0.0,0.0,0.0,0.0,0.0,0.0,0.0,0.0,0.0,0.0,0.0,0.0,0.0,0.0,0.0,0.0,0.0,0.0,0.0,0.0,0.0,0.0,0.0,0.0,0.0,0.0,0.0,0.0,0.0,0.0,0.0,0.0,0.0,2.3204,2.3609,2.3916,2.4248,2.4342,2.4362,2.4287,2.4264,2.4225,2.4128,2.4118,0.0,0.0,0.0,0.0,0.0,0.0,0.0,0.0,0.0,0.0,0.0,0.0,0.0,0.0,0.0,0.0,0.0,0.0,0.0,0.0,0.0,0.0,0.0,0.0,0.0,0.0,0.0,0.0,0.0,0.0,0.0,0.0,0.0,0.0,0.0,0.0,0.0,0.0,0.0,0.0,0.0,0.0,0.0,0.0,0.0,0.0,0.0,0.0,0.0,0.0,0.0,0.0,0.0,0.0,0.0,0.0,0.0,0.0,0.0,0.0,2.0649,0.0,0.0,0.0,0.0,0.0,0.0,0.0,0.0,0.0,0.0,0.0,0.0,0.0,0.0,0.0,0.0,0.0,0.0,0.0,0.0,0.0,0.0,0.0,0.0,0.0,0.0,0.0,0.0,0.0,0.0,0.0,0.0,0.0,0.0,0.0,0.0,0.0,0.0,0.0,0.0,2.3965,2.43,2.4505,2.4707,2.4922,2.4937,2.4746,2.4727,2.4639,2.4401,2.4391,0.0,0.0,0.0,0.0,0.0,0.0,0.0,0.0,0.0,0.0,0.0,0.0,0.0,0.0,0.0,0.0,0.0,0.0,0.0,0.0,0.0,0.0,0.0,0.0,0.0,0.0,0.0,0.0,0.0,0.0,0.0,0.0,0.0,0.0,0.0,0.0,0.0,0.0,0.0,0.0,0.0,0.0,0.0,0.0,0.0,0.0,0.0,0.0,0.0,0.0,0.0,0.0,0.0,2.3998,2.4035,2.4578,2.3954,2.3935,2.4311,2.3029,2.2006,2.1193,2.1069,0.0,0.0,0.0,0.0,0.0,0.0,0.0,0.0,0.0,0.0,0.0,0.0,0.0,0.0,0.0,0.0,0.0,0.0,0.0,0.0,0.0,0.0,0.0,0.0,2.2023,2.1815,0.0,0.0,0.0,0.0,0.0,0.0,0.0,0.0,0.0,0.0,0.0,0.0,2.4473,2.4912,2.5239,2.5317,2.5693,2.5786,2.5463,2.5366,2.517,2.4762,2.4664,2.4625,0.0,0.0,0.0,0.0,0.0,0.0,0.0,0.0,0.0,0.0,0.0,0.0,0.0,0.0,0.0,0.0,0.0,0.0,0.0,0.0,0.0,0.0,0.0,0.0,0.0,0.0,0.0,0.0,0.0,0.0,0.0,0.0,2.3837,2.4189,0.0,0.0,0.0,0.0,0.0,0.0,0.0,0.0,0.0,0.0,0.0,0.0,0.0,2.5729,2.5871,2.619,2.6414,2.652,2.6608,2.662,2.652,2.6426,2.6056,2.5482,2.526,0.0,2.3599,2.2947,0.0,0.0,0.0,0.0,0.0,0.0,0.0,0.0,0.0,0.0,0.0,0.0,0.0,0.0,0.0,0.0,0.0,0.0,0.0,0.0,0.0,0.0,2.1816,2.1896,2.2472,2.2957,0.0,2.2269,2.1971,2.2205,2.2337,0.0,0.0,0.0,0.0,0.0,0.0,0.0,2.4945,2.5371,2.5776,2.6197,2.6592,2.6801,2.6758,2.6426,2.6191,2.6133,2.5747,2.5542,2.5542,2.5542,0.0,0.0,0.0,0.0,0.0,0.0,0.0,0.0,0.0,0.0,0.0,0.0,0.0,0.0,0.0,0.0,0.0,0.0,0.0,0.0,0.0,0.0,0.0,0.0,0.0,0.0,0.0,0.0,0.0,2.4041,2.4194,2.4942,2.4725,2.4664,0.0,0.0,0.0,0.0,0.0,0.0,0.0,0.0,0.0,2.6662,2.6747,2.6857,2.7017,2.7103,2.7348,2.7736,2.7831,2.799,2.82,2.82,2.7937,2.7509,2.7509,2.7158,2.6423,2.4612,2.3631,2.3322,0.0,0.0,0.0,0.0,2.2058,2.1979,2.15,2.1329,0.0,2.1533,0.0,0.0,0.0,0.0,0.0,0.0,0.0,0.0,0.0,0.0,2.3018,2.3252,2.3594,2.3867,2.3835,2.3542,2.3359,0.0,2.3584,2.3679,2.4082,0.0,0.0,0.0,0.0,2.5376,2.6074,2.6313,2.6508,2.6719,2.6879,2.6986,2.6986,2.6846,2.6738,2.6738,2.6338,2.6079,2.6079,2.5845,2.562,0.0,0.0,0.0,0.0,0.0,0.0,0.0,0.0,0.0,0.0,0.0,0.0,0.0,0.0,0.0,0.0,0.0,0.0,0.0,0.0,0.0,0.0,0.0,0.0,0.0,0.0,0.0,0.0,2.4748,2.482,2.5718,2.5507,2.5438,0.0,0.0,0.0,0.0,0.0,0.0,2.7104,2.7033,2.7243,2.7792,2.7841,2.7965,2.8212,2.828,2.8546,2.9012,2.907,2.9273,2.9616,2.9616,2.9516,2.9381,2.9309,2.9169,2.8803,2.6482,2.5408,2.5229,2.5229,2.4919,2.4438,2.3801,2.3412,2.3083,2.2427,2.2228,2.2248,2.2355,0.0,2.2539,2.2539,0.0,0.0,0.0,0.0,2.3054,2.3335,2.3688,2.4062,2.4482,2.4645,2.4762,2.4902,2.4986,2.4928,0.0,2.4391,2.4469,2.4693,0.0,0.0,0.0,0.0,2.6339,2.6934,2.7161,2.7255,2.7187,2.7275,2.7344,2.7344,2.7246,2.7178,2.7178,2.6787,2.6543,2.6543,2.6215,2.5991,2.5884,0.0,0.0,0.0,0.0,0.0,0.0,0.0,0.0,0.0,0.0,0.0,0.0,0.0,0.0,0.0,0.0,0.0,0.0,0.0,0.0,0.0,0.0,0.0,0.0,0.0,0.0,0.0,0.0,0.0,2.6401,2.6112,0.0,0.0,0.0,0.0,2.6952,2.7248,2.7447,2.7471,2.765,2.8033,2.8624,2.8756,2.9256,3.0159,3.0363,3.0525,3.068,3.0877,3.0889,3.0717,3.0717,3.0717,3.0696,3.0448,3.0311,3.0205,2.8847,2.7844,2.7154,2.7154,2.6106,2.4575,2.4565,2.3934,2.3098,2.3054,2.3086,2.3208,2.3587,2.3965,2.4264,2.4264,2.4264,0.0,0.0,2.4284,2.4303,2.4323,2.4342,2.4492,2.4955,2.5361,2.5767,2.6201,2.6602,2.6371,0.0,2.4391,2.4664,2.5503,0.0,2.5942,2.6801,2.7137,2.7248,2.7037,2.7621,2.7956,2.7679,2.8015,2.8223,2.8223,2.7888,2.7653,2.7653,2.7226,2.6982,2.6982,2.6937,2.6758,2.6367,2.6357,0.0,0.0,0.0,0.0,0.0,0.0,0.0,0.0,0.0,0.0,0.0,0.0,0.0,0.0,0.0,0.0,0.0,0.0,0.0,0.0,0.0,0.0,0.0,0.0,0.0,0.0,0.0,0.0,2.6754,2.6804,0.0,2.729,2.7497,2.7777,2.82,2.8325,2.8731,2.9453,2.9549,2.9857,3.0428,3.0468,3.0831,3.1522,3.1596,3.2018,3.2791,3.2855,3.3043,3.3314,3.3314,3.3239,3.3107,3.3019,3.2874,3.268,3.2225,3.0885,2.9104,2.9104,2.8696,2.8063,2.7511,2.6672,2.5711,2.5113,2.4486,2.3994,2.4141,2.4274,2.4473,2.4746,2.4857,2.4893,2.5162,2.5445,2.5684,2.5684,2.5889,2.6133,2.6289,2.642,2.6627,2.6975,2.7021,2.6937,2.6705,2.634,2.6231,2.6709,2.6653,2.6859,2.7823,2.7758,2.7779,2.829,2.8443,2.8437,2.8341,2.8479,2.8488,2.8318,2.8181,2.8093,2.8093,2.7702,2.7457,2.7457,2.7168,2.6918,2.6797,2.6797,2.6582,0.0,0.0,0.0,0.0,0.0,0.0,0.0,0.0,0.0,0.0,0.0,0.0,0.0,0.0,0.0,0.0,0.0,0.0,0.0,0.0,0.0,0.0,0.0,0.0,0.0,2.6602,2.6779,2.7303,2.7648,2.7917,2.8151,2.865,2.9082,2.9446,2.9634,3.0149,3.109,3.114,3.1486,3.2215,3.224,3.2503,3.3034,3.3034,3.3411,3.4173,3.4173,3.4374,3.4703,3.4703,3.4635,3.4489,3.4433,3.4295,3.4146,3.403,3.2979,3.1404,3.1329,3.109,3.0729,3.0066,2.9184,2.8164,2.715,2.6367,2.5749,2.5379,2.5269,2.5352,2.5635,2.5747,2.5791,2.6059,2.6427,2.6717,2.6627,2.6873,2.7169,2.7341,2.7304,2.7353,2.7738,2.77,2.7684,2.8081,2.7617,2.728,2.7699,2.755,2.7631,2.8467,2.8344,2.8364,2.889,2.8877,2.8834,2.8834,2.8754,2.8631,2.8451,2.8424,2.8408,2.8318,2.8054,2.7907,2.7907,2.7598,2.7383,2.7236,2.709,2.6875,2.6602,0.0,0.0,0.0,0.0,0.0,0.0,0.0,0.0,0.0,0.0,0.0,0.0,0.0,0.0,0.0,0.0,0.0,0.0,0.0,0.0,0.0,0.0,0.0,2.7037,2.7217,2.7562,2.8097,2.8631,2.8969,2.8982,2.9986,3.0651,3.0676,3.1173,3.1712,3.2244,3.229,3.2771,3.3884,3.3922,3.4186,3.4715,3.4728,3.4728,3.4753,3.4753,3.4753,3.4753,3.4753,3.4753,3.4753,3.4539,3.446,3.4425,3.4183,3.4079,3.4033,3.3722,3.305,3.2218,3.1957,3.1219,3.0217,2.9063,2.8666,2.8491,2.745,2.7114,2.7088,2.7072,2.7057,2.7041,2.7051,2.7245,2.7388,2.7127,2.7271,2.7563,2.8026,2.7937,2.7934,2.8595,2.8711,2.8711,2.8737,2.805,2.7705,2.8402,2.8317,2.8274,2.8668,2.8956,0.0,2.8781,2.8956,2.9132,2.9132,2.8877,2.8727,2.8701,2.8701,2.8594,2.8344,2.8318,2.8318,2.8318,2.8291,2.8122,2.7721,2.7256,2.7006,2.7006,0.0,0.0,0.0,0.0,0.0,0.0,0.0,0.0,0.0,0.0,0.0,0.0,0.0,0.0,0.0,0.0,0.0,0.0,0.0,0.0,0.0,2.777,2.7715,2.7278,2.7935,2.8668,2.9264,2.9817,3.0287,3.067,3.1361,3.1951,3.2365,3.2905,3.3458,3.3975,3.4013,3.4151,3.4465,3.4477,3.4741,3.527,3.527,3.5493,3.5929,3.5929,3.5929,3.5929,3.5929,3.5929,3.5929,3.5871,3.5848,3.5848,3.5765,3.5742,3.5631,3.4373,3.3732,3.3489,3.342,3.2757,3.1758,3.0706,3.0343,3.0295,3.0003,2.9412,2.8828,2.8944,2.842,2.7867,2.815,2.8292,2.8361,2.8492,2.8587,2.8669,2.8789,2.8767,2.8833,2.927,2.9168,2.9115,2.9548,2.9281,2.9071,2.9271,2.903,2.9027,2.9554,2.9327,0.0,2.96,2.9538,2.9475,2.9475,2.9396,2.9237,2.9009,2.8983,2.8956,2.8867,2.8691,2.8594,2.8594,2.8408,2.8232,2.8151,2.7731,2.7516,0.0,0.0,0.0,0.0,0.0,0.0,0.0,0.0,0.0,0.0,0.0,0.0,0.0,0.0,0.0,0.0,0.0,0.0,0.0,0.0,0.0,0.0,2.8649,2.8775,2.8687,2.9026,2.9559,3.0369,3.1173,3.1763,3.2085,3.2805,3.3386,3.3746,3.406,3.4465,3.5017,3.5042,3.5142,3.5403,3.5416,3.5567,3.5881,3.5893,3.6044,3.6405,3.6405,3.6405,3.6405,3.6405,3.6405,3.6405,3.6405,3.6405,3.6405,3.6405,3.6405,0.0,0.0,0.0,0.0,0.0,3.4297,3.366,3.2632,3.2258,3.2185,3.1711,3.085,3.0027,3.009,2.9384,2.8564,2.8807,2.8956,2.9089,2.9105,2.9211,2.9317,2.9317,2.9211,2.9185,2.9527,2.9448,2.9396,2.9774,2.98,0.0,3.0031,2.9623,2.9422,2.9774,2.9527,2.9448,2.98,2.9849,2.9919,3.0062,3.011,2.998,2.96,2.9563,0.0,0.0,0.0,2.8834,2.8711,2.8541,0.0,0.0,0.0,2.7956,2.7956,0.0,0.0,0.0,2.707,2.6859,0.0,0.0,0.0,0.0,0.0,0.0,0.0,0.0,0.0,0.0,0.0,0.0,0.0,0.0,0.0,0.0,2.9691,3.0256,3.0821,3.052,3.0583,3.1494,3.26,3.3291,3.3291,3.4211,3.4791,3.4791,3.4853,3.5092,3.5594,0.0,0.0,0.0,0.0,3.6405,3.6405,3.6405,3.6405,3.6405,3.6405,3.6405,3.6405,3.6405,3.6405,3.6405,3.6405,3.6405,3.6405,3.6405,3.6405,3.6381,3.6146,3.6063,3.6015,3.5788,3.5692,3.556,3.4593,0.0,0.0,3.3093,3.2028,3.1173,3.1122,3.038,2.9481,2.9359,2.9544,2.9675,2.929,2.9422,2.9643,2.9643,2.9463,2.9371,2.9662,2.9782,2.9786,2.9786,3.0007,3.0284,3.0725,3.0181,2.9725,2.9813,2.9786,2.9786,2.9786,3.0107,3.0433,3.076,0.0,0.0,3.0383,3.0342,3.0072,2.9383,2.9309,2.9176,2.8849,2.88,2.8663,2.8413,2.8347,2.8291,2.8291,2.8291,2.8291,2.8271,2.7519,2.7158,0.0,0.0,0.0,0.0,0.0,0.0,0.0,0.0,0.0,0.0,0.0,0.0,0.0,0.0,0.0,3.0834,3.1386,3.1938,3.2537,3.2893,3.3018,3.2801,3.3734,3.4377,3.4377,3.4979,3.5345,3.5345,3.5793,3.6117,3.6218,3.623,3.6281,3.6405,3.6405,3.6405,3.6405,3.6405,3.6405,3.6405,0.0,0.0,3.6405,3.6405,3.6405,3.6405,3.6405,3.6405,3.6405,3.6405,3.6405,3.6381,3.6346,3.6323,3.6323,3.6263,3.6252,3.6228,3.6013,3.5942,3.5906,3.5679,3.4884,3.397,3.3736,3.2942,0.0,3.1047,3.0852,3.0733,3.001,2.9863,2.9916,2.9916,3.0168,3.0409,3.0463,3.0789,3.1047,3.1047,3.1074,3.117,3.1253,3.0826,3.0624,3.0996,3.1047,3.1047,3.1047,3.113,3.1182,3.1274,3.1292,3.1275,3.1192,3.1182,3.1113,3.0949,3.07,3.0308,2.9778,2.9431,2.9233,2.9196,2.8601,2.8291,2.8291,2.8291,2.8291,2.8291,2.8125,2.8047,0.0,0.0,0.0,0.0,0.0,0.0,0.0,0.0,0.0,0.0,0.0,2.9923,3.0495,0.0,3.1273,3.2123,3.2487,3.2943,3.3784,3.4352,3.449,3.396,3.4603,3.5117,3.5117,3.5606,3.5956,3.5956,3.623,3.6405,3.6405,3.6405,3.6405,3.6405,3.6405,3.6405,3.6405,3.6658,3.6796,3.6796,3.7072,3.721,3.721,3.721,3.721,3.721,3.721,3.721,3.721,3.721,3.721,3.721,3.721,3.6871,3.6405,3.6405,3.6405,3.6405,3.6405,3.6405,3.6405,3.6405,3.5667,3.4835,3.4965,3.4245,3.3324,3.3088,3.3001,3.2779,3.1793,3.154,3.1418,3.0838,3.0891,3.1056,3.1056,3.1243,3.1408,3.1408,3.1408,3.1443,3.1671,3.1516,3.1371,3.1408,3.1408,3.1408,3.1408,3.1567,3.1923,3.2534,3.2818,3.3108,3.341,3.3239,3.3096,3.3096,3.2941,3.2416,3.1401,3.1,3.0442,2.9716,2.9344,2.9072,2.8963,2.9099,2.9072,2.8963,2.8963,2.8728,0.0,0.0,0.0,0.0,0.0,0.0,0.0,2.9597,3.0105,3.0638,3.0771,3.0959,3.162,3.1733,3.211,3.3241,3.3504,3.3872,3.4728,3.533,3.5506,3.5067,3.5406,3.5682,3.5682,3.6117,3.6405,3.6405,3.6405,3.6405,3.6405,3.6405,3.6455,3.6545,3.6568,3.6595,3.6708,3.7148,3.7374,3.7349,3.7789,3.8002,3.8002,3.8002,3.8002,3.8002,3.8002,3.8002,3.8002,3.8002,3.8002,3.8002,3.8002,3.7462,3.6708,3.6708,3.6708,3.6708,3.6708,3.6708,3.6708,3.6708,3.6132,3.549,3.5952,3.5463,3.4815,3.5046,3.5111,3.4852,3.3711,3.3283,3.2867,3.195,3.1625,3.1533,3.1533,3.176,3.2005,3.2005,3.2169,3.2439,3.2754,3.2818,3.2552,3.1775,3.185,3.2005,3.2005,3.2485,3.3185,3.4153,3.4615,3.5039,3.5585,3.5304,3.5024,3.4972,3.4826,3.4309,3.3316,3.2733,3.1877,3.0674,3.05,3.0173,2.9682,2.9887,2.9859,2.9598,2.9598,2.9227,3.1153,3.0903,3.0538,2.9802,2.9641,2.9817,0.0,3.045,3.0651,3.1198,3.1298,3.1645,3.2713,3.2914,3.3257,3.4339,3.4929,3.527,3.5395,3.5918,3.6268,3.6205,3.6256,3.6293,3.6293,3.6367,3.6405,3.6405,3.6405,3.6405,3.6405,3.6405,3.6607,3.7097,3.7122,3.7349,3.7814,3.7889,3.7914,3.7914,3.7977,3.8002,3.8002,3.8002,3.8002,3.8002,3.8002,3.8002,3.8002,3.8002,3.8002,3.8002,3.8002,3.7939,3.7826,3.7826,3.7826,3.7826,3.7826,3.7826,3.7826,3.7826,3.7753,3.7654,3.7717,3.7655,3.7357,3.6465,3.6223,3.5957,3.4904,3.387,3.307,3.2947,3.2409,3.1943,3.1943,3.3091,3.416,3.416,3.4984,3.5695,3.5713,3.5725,3.5012,3.2883,3.3483,3.416,3.416,3.5084,3.5779,3.5915,3.5972,3.6027,3.6105,3.6075,3.5932,3.5611,3.4946,3.4781,3.535,3.4016,3.3191,3.3026,3.2332,3.1288,2.997,2.998,2.9859,2.9598,2.9598,2.9549,3.2552,3.2273,3.2051,3.174,3.1577,3.1551,3.1763,3.1442,3.1461,3.2906,3.2759,3.3073,3.5312,3.4786,3.4651,3.6559,3.6588,3.6671,3.7535,3.74,3.7417,3.7965,3.7556,3.6989,3.6452,3.6886,3.6989,3.6428,3.6405,3.6405,3.6405,3.6695,3.6972,3.7198,3.75,3.7776,3.8002,3.8341,3.8529,3.8542,3.8831,3.8981,3.8981,3.8981,3.8981,3.8981,3.8981,3.8981,3.8981,3.8981,3.8981,3.8981,3.8981,3.8981,3.8906,3.8253,3.8002,3.8002,3.8002,3.8002,3.8002,3.8002,3.8002,3.8065,3.8429,3.8529,3.8492,3.8373,3.8332,3.8051,3.6899,3.6256,3.5726,3.5056,3.4683,3.4455,3.4455,3.4995,3.5498,3.5498,3.587,3.6305,3.6603,3.6677,3.646,3.5823,3.5603,3.5599,3.592,3.6358,3.7039,3.8068,3.877,3.9161,3.9161,3.9161,3.9107,3.896,3.8634,3.8307,3.797,3.7155,3.6055,3.4642,3.4284,3.3239,3.1464,3.1616,3.1444,3.0993,3.0993,3.1043,3.396,3.3677,3.3549,3.3344,3.3311,3.3377,3.3536,3.3194,3.334,3.5003,3.4808,3.5036,3.7381,3.6678,3.6359,3.829,3.8046,3.7985,3.9054,3.8621,3.8441,3.9121,3.8832,3.8192,3.7256,3.7795,3.791,3.7232,3.7073,3.6997,3.6997,3.7267,3.7512,3.7675,3.8065,3.8316,3.8467,3.8906,3.912,3.9132,3.9496,3.9697,3.9697,3.9697,3.9697,3.9697,3.9697,3.9697,3.9697,3.9697,3.9697,3.9697,3.9697,3.9697,3.9597,3.8768,3.8467,3.8467,3.8467,3.8467,3.8467,3.8467,3.8467,3.8555,3.8994,3.912,3.9208,3.9584,3.9697,3.9504,3.8633,3.827,3.7941,3.711,3.678,3.6665,3.6665,3.6912,3.7158,3.7158,3.7403,3.7722,3.8115,3.8186,3.8316,3.8772,3.8142,3.7625,3.7714,3.7981,3.8669,3.9916,4.0804,4.1315,4.1315,4.1315,4.1315,4.1315,4.0993,4.059,4.0074,3.9213,3.7904,3.6145,3.5751,3.4678,3.2791,3.3006,3.278,3.2197,3.2197,3.2196,0.0,3.5142,3.4957,3.4166,3.444,3.5073,3.5599,3.613,3.6715,3.7382,3.7484,3.7653,3.8265,3.8331,3.8491,3.9074,3.9147,3.9139,3.9197,3.9188,3.9166,3.921,3.9986,4.0138,3.921,3.9144,3.9166,3.9121,3.8744,3.8528,3.8528,3.8175,3.8241,3.8831,3.8856,3.912,3.9634,3.9659,3.9672,3.9672,3.9685,3.9697,3.9697,3.9697,3.9697,3.9697,3.9697,3.9697,3.9697,3.9697,3.9697,3.9697,3.9697,3.9697,3.9697,3.9647,3.9647,3.9647,3.9647,3.9647,3.9647,3.9647,3.9647,3.9647,3.9659,3.9672,3.9672,3.9685,3.9697,3.9697,3.9659,3.9197,3.8749,3.8722,3.8256,3.7847,3.7847,3.8717,3.9492,3.9492,4.0377,4.1157,4.117,4.1182,4.1182,4.1195,4.117,4.0755,3.9654,4.0483,4.1182,4.1222,4.1288,4.1315,4.1315,4.1315,4.1315,4.1315,4.0251,4.0129,4.1195,3.8987,3.7701,3.7644,3.6409,3.5053,3.3564,3.3564,3.3275,3.2693,3.2693,3.2522,0.0,3.6895,3.7241,3.741,3.7512,3.7619,3.7808,3.7573,3.7626,3.8811,3.8563,3.8678,4.0512,3.9795,3.9417,4.0887,4.0553,4.0346,4.1022,4.0546,4.0381,4.1043,4.0823,4.0745,4.11,4.051,4.0057,3.9883,3.9739,3.9551,3.9278,3.9479,3.9365,3.8906,3.9258,3.9534,3.9697,3.9697,3.9697,3.9697,3.9697,3.9697,3.971,4.0074,4.0237,4.0262,4.06,4.0763,4.0763,4.0763,4.0763,4.0763,4.0763,4.0763,4.0763,4.0763,4.0763,4.065,3.9948,3.9697,3.9747,4.0124,4.0237,4.0312,4.065,4.0763,4.0763,4.0763,4.0763,4.0763,4.0763,4.0609,4.0465,4.0465,4.0291,4.0153,4.0153,4.0466,4.0738,4.0738,4.1033,4.1428,4.1819,4.1909,4.2007,4.2371,4.2147,4.176,4.1352,4.1963,4.2421,4.2421,4.2421,4.2421,4.2421,4.2421,4.2421,4.2421,4.2065,4.2037,4.2421,4.1635,4.0825,3.9978,3.8711,3.7248,3.5582,3.4777,3.4195,3.3771,3.3527,3.3372,3.7868,3.842,3.8986,3.9407,3.9592,3.9688,3.9688,3.9435,3.9494,4.0418,4.014,4.0203,4.1819,4.1078,4.0645,4.1891,4.1556,4.136,4.2009,4.1535,4.1374,4.203,4.1721,4.1709,4.237,0.0,4.1644,4.1237,4.1297,4.1058,4.0415,4.0576,4.0387,3.9726,3.9701,3.9865,4.0224,3.989,3.9798,3.9986,4.0187,4.0275,4.0287,4.0625,4.0788,4.08,4.1152,4.1315,4.1315,4.1315,4.1315,4.1315,4.1315,4.1315,4.1315,4.1315,4.1315,4.1214,4.0499,4.0275,4.0337,4.0675,4.0788,4.0851,4.1202,4.1315,4.1315,4.1315,4.1315,4.1315,4.1315,4.1453,4.163,4.163,4.1781,4.1904,4.1904,4.1904,4.1904,4.1904,4.1904,4.2032,4.2411,4.2474,4.26,4.2951,4.27,4.2474,4.2474,4.2788,4.3002,4.3002,4.3002,4.3002,4.3002,4.3002,4.3002,4.3002,4.3002,4.3002,4.3002,4.2557,4.1952,4.1129,3.9832,3.8655,3.7543,3.6284,3.551,3.5176,3.4391,3.3965,3.9276,3.9712,4.0162,4.0191,4.067,4.1149,4.1149,4.1642,4.2092,4.2092,4.2092,4.2092,4.2092,4.2092,4.2092,4.2092,4.2092,4.2092,4.2092,4.2092,4.2107,4.2136,4.2644,4.3007,0.0,0.0,4.3776,4.3158,4.3334,4.3018,4.1967,4.157,4.1344,4.1294,4.0287,4.0262,4.1247,4.0262,4.0036,4.0537,4.1064,4.1315,4.1315,4.134,4.1352,4.1352,4.139,4.1403,4.1403,4.1403,4.1403,4.1403,4.1403,4.1403,4.1403,4.1403,4.1403,4.1403,4.1403,4.1352,4.1327,4.1352,4.1352,4.1352,4.139,4.1403,4.1403,4.1403,4.1403,4.1403,4.1403,4.1806,4.225,4.225,4.2625,4.3002,4.3002,4.3002,4.3002,4.3002,4.3002,4.3002,4.3002,4.3002,4.3002,4.3002,4.3002,4.3002,4.3002,4.3002,4.3002,4.3002,4.3002,4.3002,4.3002,4.3002,4.3002,4.3002,4.3002,4.3002,4.3002,4.1838,4.1186,4.1186,3.996,3.9327,3.935,3.8063,3.7281,3.6959,3.5356,3.4421,4.0365,4.0728,4.096,4.1468,4.1715,4.1845,4.1845,4.1976,4.2092,4.2092,4.2092,4.2092,4.2092,4.2092,4.2092,4.2092,4.2092,4.2092,4.2092,4.2092,4.2266,4.2716,4.2905,4.3195,4.3689,4.432,4.461,4.4436,4.447,4.4271,4.3682,4.3567,4.3163,4.2428,4.1382,4.1152,4.1861,4.1215,4.0964,4.1102,4.1213,4.1315,4.1327,4.1769,4.1972,4.1997,4.2384,4.2559,4.2559,4.2559,4.2559,4.2559,4.2559,4.2559,4.2559,4.2559,4.2559,4.2559,4.2559,4.202,4.1378,4.1806,4.1972,4.2047,4.2462,4.2559,4.2559,4.2559,4.2559,4.2559,4.2559,4.2688,4.2801,4.2801,4.2901,4.3002,4.3002,4.3002,4.3002,4.3002,4.3002,4.3002,4.3002,4.3002,4.3002,4.3002,4.3002,4.3002,4.3002,4.3002,4.3002,4.3002,4.3002,4.3002,4.3002,4.3002,4.3002,4.3002,4.3002,4.3002,4.3002,4.2681,4.2513,4.2513,4.1272,4.0818,4.121,3.9928,3.9511,3.9802,3.8109,3.7254,4.0829,4.1308,4.1628,4.2005,4.2092,4.2092,4.2092,4.2092,4.2092,4.2092,4.2092,4.2092,4.2092,4.2092,4.2092,4.2092,4.2092,4.2092,4.2092,4.2324,4.2615,4.297,4.3485,4.3964,4.4364,4.4974,4.5351,4.5351,4.5351,4.5018,4.4345,4.4312,4.3829,4.284,4.2474,4.2353,4.2487,4.2432,4.2154,4.1706,4.1944,4.2057,4.207,4.2399,4.2549,4.2562,0.0,4.3002,4.3002,4.3002,4.3002,4.3002,4.3002,4.3002,4.3002,4.3002,4.3002,4.3002,4.3002,4.2572,4.2108,4.2449,4.2549,4.26,4.2914,4.3002,4.3002,4.3002,4.3002,4.3002,4.3002,4.3002,4.3002,4.3002,4.3002,4.3002,4.3002,4.3002,4.3002,4.3002,4.3002,4.3002,4.3002,4.3002,4.3002,4.3002,4.3002,4.3102,4.3313,4.3338,4.3338,4.3338,4.3551,4.3702,4.3702,4.3702,4.3702,4.3702,4.3702,4.3702,4.3702,4.3702,4.3702,4.3702,4.3008,4.2769,4.3075,4.1858,4.1091,4.0758,3.9092,3.7984,4.1047,4.1657,4.2092,4.2092,4.2092,4.2092,4.2092,4.2092,4.2092,4.2092,4.2092,4.2092,4.2092,4.2092,4.2092,4.2092,4.2092,4.2092,4.2092,4.2615,4.3021,4.3108,4.4189,4.4944,4.5032,4.5569,4.5903,4.5903,4.5903,4.5489,4.4559,4.4499,4.4097,4.3156,4.3773,4.3899,4.3348,4.3717,4.3444,4.2532,4.2859,4.3002,4.3002,4.3002,4.3002,4.3002,4.3002,0.0,4.3002,4.3002,4.3002,4.3002,4.3002,4.3002,4.3002,4.3002,4.3002,4.3002,4.3002,4.3002,4.3002,4.3002,4.3002,4.3002,4.3002,4.3002,4.3002,4.3002,4.3002,4.3002,4.3002,4.3002,4.3002,4.3002,4.3002,4.3002,4.3002,4.3002,4.3002,4.3002,4.3002,4.3002,4.3002,4.3002,4.3027,4.3102,4.3115,4.3316,4.384,4.3853,4.3827,4.3903,4.4301,4.4589,4.4589,4.4589,4.4589,4.4589,4.4589,4.4589,4.4589,4.4589,4.4589,4.4589,4.4589,4.4627,4.4702,4.3664,4.258,4.1424,3.9842,3.8357,4.1744,4.2005,4.2092,4.2092,4.2092,4.2092,4.2092,4.2092,4.2092,4.2092,4.2092,4.2092,4.2092,4.2092,4.2092,4.2092,4.2092,4.2092,4.2092,4.2615,4.3195,4.3768,4.4465,4.5133,4.5663,4.5845,4.5903,4.5903,4.5903,4.5813,4.564,4.5617,4.5398,4.4871,4.5951,4.6042,4.5083,4.4719,4.4445,4.4268,4.3411,4.3002,4.3002,4.3002,4.3002,4.3002,4.3002,0.0,4.3002,4.3002,4.3002,4.3002,4.3002,4.3002,4.3002,4.3002,4.3002,4.3002,4.3002,4.3002,4.3002,4.3002,4.3002,4.3002,4.3002,4.3002,4.3002,4.3002,4.3002,4.3002,4.3002,4.3002,4.3002,4.3002,4.3002,4.3002,4.3002,4.3002,4.3002,4.3002,4.3002,4.3002,4.3002,4.3002,4.3165,4.3589,4.3664,4.3865,4.4376,4.4079,4.3978,4.4401,4.4539,4.4589,4.4589,4.4589,4.4589,4.4589,4.4589,4.4589,4.4589,4.4589,4.4589,4.4589,4.4589,4.4857,4.5334,4.5127,4.5132,4.5283,4.3913,4.2513,4.1918,4.2092,4.2092,4.2092,4.2092,4.2092,4.2092,4.2092,4.2092,4.2092,4.2092,4.2092,4.2092,4.2092,4.2092,4.2092,4.2092,4.2092,4.2092,4.2615,4.326,4.3906,4.4538,4.5155,4.5845,4.5903,4.5903,4.5903,4.5903,4.5903,4.5903,4.5691,4.6038,4.7043,4.7118,4.7024,4.6786,4.6549,4.5834,4.4683,4.4152,4.356,4.3002,4.3002,4.3002,4.3002,4.3002,0.0,4.3002,4.3002,4.3002,4.3002,4.3002,4.3002,4.3002,4.3002,4.3002,4.3002,4.3002,4.3002,4.3002,4.3002,4.3002,4.3002,4.3002,4.3002,4.3002,4.3002,4.3002,4.3002,4.3002,4.3002,4.3002,4.3002,4.3002,4.3002,4.3002,4.3002,4.3002,4.3002,4.3002,4.3002,4.3002,4.3002,4.319,4.3714,4.3802,4.4116,4.497,4.4844,4.4782,4.5045,4.5334,4.5468,4.5468,4.5468,4.5468,4.5468,4.5468,4.5468,4.5468,4.5468,4.5468,4.5468,4.5468,4.5635,4.5912,4.5912,4.5695,4.5251,4.4602,4.3544,4.1918,4.2092,4.2092,4.2092,4.2092,4.2092,4.2092,4.2092,4.2092,4.2092,4.2092,4.2092,4.2092,4.2092,4.2092,4.2092,4.2092,4.2092,4.2092,4.2731,4.3398,4.3942,4.4669,4.5322,4.5859,4.5903,4.5903,4.5903,4.6011,4.6084,4.6084,4.6038,4.6847,4.8648,4.8077,4.7943,4.8349,4.8122,4.6997,4.5034,4.4805,4.4097,4.3002,4.3002,4.3002,4.3002,4.3002,0.0,0.0,4.3002,4.3002,4.3002,4.3002,4.3002,4.3002,4.3002,4.3002,4.3002,4.3002,4.3002,4.3002,4.3002,4.3002,4.3002,4.3002,4.3002,4.3002,4.3002,4.3002,4.3002,4.3002,4.3002,4.3002,4.3002,4.3002,4.3002,4.3002,4.3002,4.3002,4.3002,4.3002,4.3002,4.3002,4.3102,4.3338,4.389,4.4079,4.4531,4.5535,4.566,4.566,4.566,4.605,4.6313,4.6313,4.6313,4.6313,4.6313,4.6313,4.6313,4.6313,4.6313,4.6313,4.6313,4.6313,4.6313,4.6313,4.6313,4.5762,4.4737,4.4737,4.3991,4.1918,4.2092,4.2092,4.2092,4.2092,4.2092,4.2092,4.2092,4.2092,4.2092,4.2092,4.2092,4.2092,4.2092,4.2092,4.2092,4.2092,4.2092,4.2092,4.3137,4.3921,4.3979,4.5053,4.5845,4.5903,4.5903,4.5903,4.5903,4.6417,4.6728,4.6728,4.7766,4.8475,4.8701,4.9204,4.9489,4.9547,4.8514,4.7396,4.615,4.5168,4.4097,4.3002,4.3002,4.3002,4.3002,4.3002,0.0,0.0,4.3002,4.3002,4.3002,4.3002,4.3002,4.3002,4.3002,4.3002,4.3002,4.3002,4.3002,4.3002,4.3002,4.3002,4.3002,4.3002,4.3002,4.3002,4.3002,4.3002,4.3002,4.3002,4.3002,4.3002,4.3002,4.3002,4.3002,4.3002,4.3002,4.3002,4.3002,4.3002,4.3002,4.3002,4.3388,4.3915,4.4439,4.4995,4.5547,4.615,4.6238,4.6238,4.6238,4.6276,4.6313,4.6313,4.6313,4.6313,4.6313,4.6313,4.6313,4.6313,4.6313,4.6313,4.6313,4.6313,4.6313,4.6313,4.6313,4.624,4.612,4.612,4.5403,4.1384,4.1787,4.2092,4.2092,4.2092,4.2092,4.2092,4.2092,4.2092,4.2092,4.2092,4.2092,4.2092,4.2092,4.2092,4.2092,4.2092,4.2092,4.2092,4.2528,4.3137,4.3906,4.4465,4.5053,4.583,4.5903,4.604,4.6417,4.7042,4.7564,4.7918,4.8426,4.8875,4.9291,4.9562,4.9693,4.9693,4.9262,4.8449,4.7306,4.6176,4.5422,4.494,4.3615,4.3379,4.3987,4.3295,0.0,0.0,4.3002,4.3002,4.3002,4.3002,4.3002,4.3002,4.3002,4.3002,4.3002,4.3002,4.3002,4.3002,4.3002,4.3002,4.3002,4.3002,4.3002,4.3002,4.3002,4.3002,4.3002,4.3002,4.3002,4.3002,4.3002,4.3002,4.3002,4.3002,4.3002,4.3002,4.3002,4.3002,4.3002,4.3002,4.3438,4.3991,4.4514,4.5121,4.5686,4.6238,4.6313,4.6313,4.6313,4.6313,4.6313,4.6313,4.6313,4.6313,4.6313,4.6313,4.6313,4.6313,4.6313,4.6313,4.6313,4.6313,4.6313,4.6313,4.6313,4.6313,4.6313,4.6313,4.6017,4.0642,4.1149,4.1512,4.1512,4.1512,4.1555,4.1758,4.1802,4.186,4.2049,4.2092,4.2092,4.2092,4.2092,4.2092,4.2092,4.2092,4.2092,4.2092,4.2252,4.276,4.3863,4.4175,4.4712,4.5801,4.5903,4.6229,4.7033,4.7521,4.8168,4.8933,4.9016,4.9204,4.9693,4.9693,4.9693,4.9693,4.9693,4.9139,4.7996,4.7177,4.662,4.6254,4.4371,4.3932,4.4629,4.3477,0.0,0.0,4.3002,4.3002,4.3002,4.3002,4.3002,4.3002,4.3002,4.3002,4.3002,4.3002,4.3002,4.3002,4.3002,4.3002,4.3002,4.3002,4.3002,4.3002,4.3002,4.3002,4.3002,4.3002,4.3002,4.3002,4.3002,4.3002,4.3002,4.3002,4.3002,4.3002,4.3002,4.3002,4.3002,4.3002,4.3576,4.415,4.4539,4.5259,4.5874,4.6263,4.6313,4.6313,4.6313,4.6313,4.6313,4.6313,4.6313,4.6313,4.6313,4.6313,4.6313,4.6313,4.6313,4.6313,4.6313,4.6313,4.6313,4.6313,4.6313,4.6313,4.6313,4.6313,4.6313,3.9699,4.0118,4.0118,4.0118,4.0118,4.0292,4.096,4.1105,4.1294,4.1961,4.2092,4.2092,4.2092,4.2092,4.2092,4.2092,4.2092,4.2092,4.2092,4.26,4.3239,4.3906,4.4538,4.5162,4.5845,4.5903,4.644,4.7704,4.7805,0.0,4.962,4.9693,4.9693,4.9693,4.9693,4.9693,4.9693,4.9693,4.9139,4.7996,4.7996,4.7383,4.6254,4.5168,4.4683,4.4629,4.3477,0.0,0.0,4.3002,4.3002,4.3002,4.3002,4.3002,4.3002,4.3002,4.3002,4.3002,4.3002,4.3002,4.3002,4.3002,4.3002,4.3002,4.3002,4.3002,4.3002,4.3002,4.3002,4.3002,4.3002,4.3002,4.3002,4.3002,4.3002,4.3002,4.3002,4.3002,4.3002,4.3002,4.3002,4.3002,4.3002,4.389,4.4589,4.4589,4.5555,4.6301,4.6313,4.6313,4.6313,4.6313,4.6313,4.6313,4.6313,4.6313,4.6313,4.6313,4.6313,4.6313,4.6313,4.6313,4.6313,4.6313,4.6313,4.6313,4.6313,4.6313,4.6313,4.6313,4.6313,4.6313,3.8028,3.909,3.9921,4.0064,4.0104,4.0162,4.0365,4.0771,4.1149,4.1366,4.1773,4.2092,4.2092,4.2092,4.2092,4.2092,4.2092,4.2092,4.2092,4.2266,4.2774,4.3863,4.4944,4.5671,4.5888,4.5903,4.644,4.7704,4.7805,4.8357,4.9635,4.9693,4.9693,4.9693,4.9693,4.9693,4.9693,4.9693,4.9522,4.9164,4.8363,4.8223,4.8524,4.59,4.5088,4.5688,0.0,0.0,0.0,4.3002,4.3002,4.3002,4.3002,4.3002,4.3002,4.3002,4.3002,4.3002,4.3002,4.3002,4.3002,4.3002,4.3002,4.3002,4.3002,4.3002,4.3002,4.3002,4.3002,4.3002,4.3002,4.3002,4.3002,4.3002,4.3002,4.3002,4.3002,4.3002,4.3002,4.3002,4.3002,4.3002,4.3002,4.389,4.4589,4.4589,4.5555,4.6313,4.6313,4.6313,4.6313,4.6313,4.6313,4.6313,4.6313,4.6313,4.6313,4.6313,4.6313,4.6313,4.6313,4.6313,4.6313,4.6313,4.6313,4.6313,4.6313,4.6313,4.6313,4.6313,4.6313,4.6313,0.0,3.7799,3.8694,3.9159,3.9334,3.945,3.9697,4.0075,4.0525,4.1004,4.1424,4.1802,4.2049,4.2092,4.2092,4.2092,4.2092,4.2092,4.2092,4.2092,4.2571,4.3855,4.5111,4.5903,4.5903,4.5903,4.6316,4.7346,4.7651,4.8255,4.9262,4.9562,4.9693,4.9693,4.9693,4.9693,4.9693,4.9693,4.9693,4.9693,4.8976,4.9001,4.962,4.71,4.6084,4.6202,0.0,0.0,0.0,4.3002,4.3002,4.3002,4.3002,4.3002,4.3002,4.3002,4.3002,4.3002,4.3002,4.3002,4.3002,4.3002,4.3002,4.3002,4.3002,4.3002,4.3002,4.3002,4.3002,4.3002,4.3002,4.3002,4.3002,4.3002,4.3002,4.3002,4.3002,4.3002,4.3002,4.3002,4.3002,4.3002,4.3002,4.389,4.4589,4.4589,4.5555,4.6313,4.6313,4.6313,4.6313,4.6313,4.6313,4.6313,4.6313,4.6313,4.6313,4.6313,4.6313,4.6313,4.6313,4.6313,4.6313,4.6313,4.6313,4.6313,4.6313,4.6313,4.6313,4.6313,4.6313,4.6313,0.0,3.6287,3.678,3.7687,3.8047,3.8362,3.8986,3.9175,0.0,4.0771,4.1062,4.1294,4.1976,4.2092,4.2092,4.2092,4.2092,4.2092,4.2092,4.2179,4.2687,4.3906,4.5162,4.5903,4.5903,4.5903,4.6142,4.6757,4.7419,4.8058,4.8672,4.9335,4.9693,4.9693,4.9693,4.9693,4.9693,4.9693,4.9693,4.9693,4.9693,4.9693,4.9644,4.8438,4.7306,0.0,0.0,0.0,0.0,4.3002,4.3002,4.3002,4.3002,4.3002,4.3002,4.3002,4.3002,4.3002,4.3002,4.3002,4.3002,4.3002,4.3002,4.3002,4.3002,4.3002,4.3002,4.3002,4.3002,4.3002,4.3002,4.3002,4.3002,4.3002,4.3002,4.3002,4.3002,4.3002,4.3002,4.3002,4.3002,4.3002,4.3002,4.389,4.4589,4.4589,4.5555,4.6313,4.6313,4.6313,4.6313,4.6313,4.6313,4.6313,4.6313,4.6313,4.6313,4.6313,4.6313,4.6313,4.6313,4.6313,4.6313,4.6313,4.6313,4.6313,4.6313,4.6313,4.6313,4.6313,4.6313,4.6313,3.2536,0.0,3.6624,3.7649,3.8047,3.8246,0.0,0.0,0.0,0.0,0.0,4.1294,4.1976,4.2092,4.2092,4.2092,4.2092,4.2092,4.2092,4.2934,4.3855,4.461,4.5424,4.5903,4.5903,4.5903,4.6142,4.6757,4.7419,4.8058,4.8672,4.9335,4.9693,4.9693,4.9693,4.9693,4.9693,4.9693,4.9693,4.9693,4.9693,4.9693,4.962,4.7613,4.6542,0.0,0.0,0.0,4.3002,4.3002,4.3002,4.3002,4.3002,4.3002,4.3002,4.3002,4.3002,4.3002,4.3002,4.3002,4.3002,4.3002,4.3002,4.3002,4.3002,4.3002,4.3002,4.3002,4.3002,4.3002,4.3002,4.3002,4.3002,4.3002,4.3002,4.3002,4.3002,4.3002,4.3002,4.3002,4.3002,4.3002,4.3002,4.389,4.4589,4.4589,4.5555,4.6313,4.6313,4.6313,4.6313,4.6313,4.6313,4.6313,4.6313,4.6313,4.6313,4.6313,4.6313,4.6313,4.6313,4.6313,4.6313,4.6313,4.6313,4.6313,4.6313,4.6313,4.6313,4.6313,4.6313,4.6313,3.1377,3.3543,3.562,3.6861,3.7677,3.8202,3.8202,0.0,0.0,0.0,0.0,4.0844,4.1512,4.1889,4.2092,4.2092,4.2092,4.2194,4.2469,4.3369,4.4211,4.4843,4.5496,4.5903,4.5903,4.5903,4.6026,4.6374,4.6983,4.7622,4.8261,4.8885,4.9378,4.9693,4.9693,4.9693,4.9693,4.9693,4.9693,4.9693,4.9693,4.9693,4.9644,4.841,4.7587,0.0,0.0,0.0,4.3753,4.3225,4.3002,4.3002,4.3002,4.3002,4.3002,4.3002,4.3002,4.3002,4.3002,4.3002,4.3002,4.3002,4.3002,4.3002,4.3002,4.3002,4.3002,4.3002,4.3002,4.3002,4.3002,4.3002,4.3002,4.3002,4.3002,4.3002,4.3002,4.3002,4.3002,4.3002,4.3002,4.3002,4.3002,4.389,4.4589,4.4589,4.5555,4.6313,4.6313,4.6313,4.6313,4.6313,4.6313,4.6313,4.6313,4.6313,4.6313,4.6313,4.6313,4.6313,4.6313,4.6313,4.6313,4.6313,4.6313,4.6313,4.6313,4.6313,4.6313,4.6313,4.6313,4.6313,3.074,3.2554,3.4438,3.5917,3.715,3.8037,3.8165,0.0,0.0,0.0,0.0,4.0292,4.0974,4.1642,4.2092,4.2092,4.2092,4.2339,4.305,4.3631,4.4276,4.4974,4.5554,4.5903,4.5903,4.5903,4.5903,4.5903,4.6453,4.7047,4.7631,4.8333,4.8948,4.9533,4.9649,4.9693,4.9693,4.9693,4.9693,4.9693,4.9693,4.9693,4.9693,4.9522,4.8827,4.7677,0.0,0.0,4.4357,4.3406,4.3002,4.3002,4.3002,4.3002,4.3002,4.3002,4.3002,4.3002,4.3002,4.3002,4.3002,4.3002,4.3002,4.3002,4.3002,4.3002,4.3002,4.3002,4.3002,4.3002,4.3002,4.3002,4.3002,4.3002,4.3002,4.3002,4.3002,4.3002,4.3002,4.3002,4.3002,4.3002,4.3002,4.389,4.4589,4.4589,4.5555,4.6313,4.6313,4.6313,4.6313,4.6313,4.6313,4.6313,4.6313,4.6313,4.6313,4.6313,4.6313,4.6313,4.6313,4.6313,4.6313,4.6313,4.6313,4.6313,4.6313,4.6313,4.6313,4.6313,4.6313,4.6313,2.9451,3.1529,3.3967,3.5827,3.6702,3.7285,3.8018,0.0,0.0,0.0,3.9683,4.0292,4.0974,4.1642,4.2092,4.2092,4.2092,4.2513,4.3674,4.3942,4.4429,4.5612,4.5845,4.5903,4.5903,4.5903,4.5903,4.5903,4.6453,4.6844,4.6946,4.8063,4.8745,4.8846,4.9393,4.9693,4.9693,4.9693,4.9693,4.9693,4.9693,4.9693,4.9669,4.8688,4.7652,4.6516,0.0,4.4302,4.3252,4.3085,4.3002,4.3002,4.3002,4.3002,4.3002,4.3002,4.3002,4.3002,4.3002,4.3002,4.3002,4.3002,4.3002,4.3002,4.3002,4.3002,4.3002,4.3002,4.3002,4.3002,4.3002,4.3002,4.3002,4.3002,4.3002,4.3002,4.3002,4.3002,4.3002,4.3002,4.3002,4.3002,4.3002,4.389,4.4589,4.4589,4.5555,4.6313,4.6313,4.6313,4.6313,4.6313,4.6313,4.6313,4.6313,4.6313,4.6313,4.6313,4.6313,4.6313,4.6313,4.6313,4.6313,4.6313,4.6313,4.6313,4.6313,4.6313,4.6313,4.6313,4.6313,4.6313,2.916,3.0502,3.2323,3.4599,3.6398,3.7701,3.8108,0.0,0.0,0.0,3.9683,4.0292,4.0974,4.1642,4.2092,4.2092,4.2368,4.2919,4.3863,4.4269,4.4843,4.5801,4.5903,4.5903,4.5903,4.5903,4.5903,4.5903,4.6156,4.6453,4.6786,4.7709,4.8362,4.8687,4.9349,4.9693,4.9693,4.9693,4.9693,4.9693,4.9693,4.9693,4.9669,4.9164,4.8299,4.7151,0.0,4.4926,4.3878,4.324,4.3002,4.3002,4.3002,4.3002,4.3002,4.3002,4.3002,4.3002,4.3002,4.3002,4.3002,4.3002,4.3002,4.3002,4.3002,4.3002,4.3002,4.3002,4.3002,4.3002,4.3002,4.3002,4.3002,4.3002,4.3002,4.3002,4.3002,4.3002,4.3002,4.3002,4.3002,4.3002,4.3002,4.3639,4.4179,4.4179,4.5146,4.5861,4.5861,4.6125,4.6313,4.6313,4.6313,4.6313,4.6313,4.6313,4.6313,4.6313,4.6313,4.6313,4.6313,4.6313,4.6313,4.6313,4.6313,4.6313,4.6313,4.6313,4.6313,4.6313,4.6313,4.6313,2.9003,2.9853,3.1163,3.3436,0.0,0.0,0.0,0.0,0.0,0.0,3.9799,4.0481,4.1004,4.1642,4.2092,4.2092,4.26,4.3224,4.3906,4.4523,4.5162,4.583,4.5903,4.5903,4.5903,4.5903,4.5903,4.5903,4.5903,4.6098,4.6554,4.7346,4.7999,4.8455,4.9262,4.9693,4.9693,4.9693,4.9693,4.9693,4.9693,4.9693,4.9693,4.9693,4.8927,4.755,4.6672,4.5555,4.4221,4.3351,4.3002,4.3002,4.3002,4.3002,4.3002,4.3002,4.3002,4.3002,4.3002,4.3002,4.3002,4.3002,4.3002,4.3002,4.3002,4.3002,4.3002,4.3002,4.3002,4.3002,4.3002,4.3002,4.3002,4.3002,4.3002,4.3002,4.3002,4.3002,4.3002,4.3002,4.3002,4.3002,4.3002,4.3438,4.3802,4.3802,4.4644,4.5334,4.5472,4.5861,4.6175,4.6301,4.6313,4.6313,4.6313,4.6313,4.6313,4.6313,4.6313,4.6313,4.6313,4.6313,4.6313,4.6313,4.6313,4.6313,4.6313,4.6313,4.6313,4.6313,4.6313,4.6313,2.8558,2.9866,3.1597,3.3096,3.4478,0.0,3.7777,3.8681,0.0,3.9189,0.0,4.1033,4.1091,4.1642,4.2092,4.2092,4.26,4.3224,4.3906,4.4523,4.5162,4.583,4.5903,4.5903,4.5903,4.5903,4.5903,4.5903,4.5903,4.5932,4.5953,4.7137,4.782,4.7863,4.9069,4.9693,4.9693,4.9693,4.9693,4.9693,4.9693,4.9693,4.9693,4.9693,4.8499,4.6412,4.6333,4.5101,4.3113,4.303,4.3002,4.3002,4.3002,4.3002,4.3002,4.3002,4.3002,4.3002,4.3002,4.3002,4.3002,4.3002,4.3002,4.3002,4.3002,4.3002,4.3002,4.3002,4.3002,4.3002,4.3002,4.3002,4.3002,4.3002,4.3002,4.3002,4.3002,4.3002,4.3002,4.3002,4.3002,4.3002,4.3002,4.3438,4.3802,4.3802,4.4305,4.4882,4.5422,4.5522,4.5748,4.625,4.6313,4.6313,4.6313,4.6313,4.6313,4.6313,4.6313,4.6313,4.6313,4.6313,4.6313,4.6313,4.6313,4.6313,4.6313,4.6313,4.6313,4.6313,4.6313,4.6313,2.849,2.9992,3.184,3.3084,3.478,0.0,0.0,3.8725,3.9305,3.9683,4.0466,4.1221,4.1642,4.1932,4.2092,4.2092,4.297,4.3703,4.395,4.4886,4.5627,4.5874,4.5903,4.5903,4.5903,4.5903,4.5903,4.5903,4.5903,4.5903,4.5903,4.7108,4.7805,4.7805,4.904,4.9693,4.9693,4.9693,4.9693,4.9693,4.9693,4.9693,4.9693,4.9693,4.8474,4.6307,4.6307,4.5048,4.3002,4.3002,4.3002,4.3002,4.3002,4.3002,4.3002,4.3002,4.3002,4.3002,4.3002,4.3002,4.3002,4.3002,4.3002,4.3002,4.3002,4.3002,4.3002,4.3002,4.3002,4.3002,4.3002,4.3002,4.3002,4.3002,4.3002,4.3002,4.3002,4.3002,4.3002,4.3002,4.3002,4.3002,4.3002,4.3178,4.3288,4.3288,4.3765,4.4317,4.4882,4.5259,4.5698,4.625,4.6313,4.6313,4.6313,4.6313,4.6313,4.6313,4.6313,4.6313,4.6313,4.6313,4.6313,4.6313,4.6313,4.6313,4.6313,4.6313,4.6313,4.6313,4.6313,4.6313,2.8578,2.991,3.1625,3.3116,0.0,0.0,3.814,3.9015,3.9654,4.0292,4.0945,4.1555,4.202,4.2092,4.2092,4.2092,4.3166,4.3993,4.3993,4.5104,4.5903,4.5903,4.5903,4.5903,4.5903,4.5903,4.5903,4.5903,4.5903,4.5903,4.5903,4.6896,4.7625,4.7922,4.886,4.9529,4.9829,4.9829,4.9781,4.9693,4.9805,4.9781,4.9693,4.9693,4.8474,4.6307,4.6307,4.5048,4.3002,4.3002,4.3002,4.3002,4.3002,4.3002,4.3002,4.3002,4.3002,4.3002,4.3002,4.3002,4.3002,4.3002,4.3002,4.3002,4.3002,4.3002,4.3002,4.3002,4.3002,4.3002,4.3002,4.3002,4.3002,4.3002,4.3002,4.3002,4.3002,4.3002,4.3002,4.3002,4.3002,4.3002,4.3002,4.3002,4.3002,4.3002,4.3451,4.4003,4.4527,4.5133,4.5698,4.625,4.6313,4.6313,4.6313,4.6313,4.6313,4.6313,4.6313,4.6313,4.6313,4.6313,4.6313,4.6313,4.6313,4.6313,4.6313,4.6313,4.6313,4.6313,4.6313,4.6313,2.8791,2.9544,3.0867,3.3126,3.426,3.5603,3.8539,3.9668,4.0292,4.096,4.1628,4.2092,4.2092,4.2092,4.2092,4.2092,4.3166,4.3993,4.3993,4.5104,4.5903,4.5903,4.5903,4.5903,4.5903,4.5903,4.5903,4.5903,4.5903,4.5903,4.5903,4.6467,4.7221,4.8155,4.8525,4.9165,5.0086,5.011,4.9951,4.9693,4.9965,4.9951,4.9693,4.9693,4.8474,4.6307,4.6307,4.5048,4.3002,4.3002,4.3002,4.3002,4.3002,4.3002,4.3002,4.3002,4.3002,4.3002,4.3002,4.3002,4.3002,4.3002,4.3002,4.3002,4.3002,4.3002,4.3002,4.3002,4.3002,4.3002,4.3002,4.3002,4.3002,4.3002,4.3002,4.3002,4.3002,4.3002,4.3002,4.3002,4.3002,4.3002,4.3002,4.3002,4.3002,4.3002,4.3451,4.4003,4.4527,4.5133,4.5698,4.625,4.6313,4.6313,4.6313,4.6313,4.6313,4.6313,4.6313,4.6313,4.6313,4.6313,4.6313,4.6313,4.6313,4.6313,4.6313,4.6313,4.6313,4.6313,4.6313,4.6313,2.8578,3.0493,3.2646,3.331,3.5712,3.824,3.9542,3.9973,4.0423,4.157,4.1961,4.2092,4.2092,4.2092,4.2092,4.2092,4.3166,4.3993,4.3993,4.5104,4.5903,4.5903,4.5903,4.5903,4.5903,4.5903,4.5903,4.5903,4.5903,4.5903,4.5903,4.6467,4.7152,4.7884,4.8415,4.9054,4.9805,4.9829,4.9878,4.999,4.9878,4.9781,4.9693,4.9693,4.8474,4.6307,4.6307,4.5048,4.3002,4.3002,4.3002,4.3002,4.3002,4.3002,4.3002,4.3002,4.3002,4.3002,4.3002,4.3002,4.3002,4.3002,4.3002,4.3002,4.3002,4.3002,4.3002,4.3002,4.3002,4.3002,4.3002,4.3002,4.3002,4.3002,4.3002,4.3002,4.3002,4.3002,4.3002,4.3002,4.3002,4.3002,4.3002,4.3002,4.3002,4.3002,4.3451,4.4141,4.5108,4.5723,4.6125,4.6288,4.6313,4.6313,4.6313,4.6313,4.6313,4.6313,4.6313,4.6313,4.6313,4.6313,4.6313,4.6313,4.6313,4.6313,4.6313,4.6313,4.6313,4.6313,4.6313,4.6313,2.9223,3.1183,3.3286,3.396,3.6429,3.9003,4.0233,4.0699,4.112,4.1932,4.2092,4.2092,4.2092,4.2092,4.2092,4.2092,4.3166,4.3993,4.3993,4.5104,4.5903,4.5903,4.5903,4.5903,4.5903,4.5903,4.5925,4.6001,4.6023,4.6023,4.6023,4.6365,4.6991,4.7931,4.8206,4.8879,4.9999,4.9902,4.999,5.027,5.011,5.0014,5.0014,4.9805,4.8474,4.6254,4.5355,4.4235,4.3002,4.3002,4.3002,4.3002,4.3002,4.3002,4.3002,4.3002,4.3002,4.3002,4.3002,4.3002,4.3002,4.3002,4.3002,4.3002,4.3002,4.3002,4.3002,4.3002,4.3002,4.3002,4.3002,4.3002,4.3002,4.3002,4.3002,4.3002,4.3002,4.3002,4.3002,4.3002,4.3002,4.3002,4.3002,4.3002,4.3002,4.3002,4.3639,4.4531,4.566,4.61,4.6313,4.6313,4.6313,4.6313,4.6313,4.6313,4.6313,4.6313,4.6313,4.6313,4.6313,4.6313,4.6313,4.6313,4.6313,4.6313,4.6313,4.6313,4.6313,4.6313,4.6313,4.6313,3.0279,3.1629,3.3183,3.4766,3.6644,3.8632,4.0726,4.1657,4.2092,4.2092,4.2092,4.2092,4.2092,4.2092,4.2092,4.2092,4.3166,4.3993,4.3993,4.5104,4.5903,4.5903,4.5903,4.5903,4.5903,4.5903,4.5993,4.6188,4.6188,4.621,4.6232,4.6232,4.6847,4.8187,4.7992,4.8714,5.0438,5.0222,5.0246,5.0501,5.0477,5.0501,5.051,4.999,4.8485,4.6162,4.4057,4.3085,4.3002,4.3002,4.3002,4.3002,4.3002,4.3002,4.3002,4.3002,4.3002,4.3002,4.3002,4.3002,4.3002,4.3002,4.3002,4.3002,4.3002,4.3002,4.3002,4.3002,4.3002,4.3002,4.3002,4.3002,4.3002,4.3002,4.3002,4.3002,4.3002,4.3002,4.3002,4.3002,4.3002,4.3002,4.3002,4.3002,4.3039,4.314,4.3978,4.5003,4.6133,4.6313,4.6313,4.6313,4.6313,4.6313,4.6313,4.6313,4.6313,4.6313,4.6313,4.6313,4.6313,4.6313,4.6313,4.6313,4.6313,4.6313,4.6313,4.6313,4.6313,4.6313,4.6313,4.6313,2.9903,3.177,3.3717,3.4645,3.7281,4.0036,4.1529,4.199,4.2092,4.2092,4.2092,4.2092,4.2092,4.2092,4.2092,4.2092,4.3166,4.3993,4.3993,4.5104,4.5903,4.5903,4.5903,4.5903,4.5903,4.5903,4.5993,4.6188,4.6188,4.6291,4.6506,4.6506,4.7094,4.8389,4.8387,4.8934,5.0168,5.0135,5.0246,0.0,5.0294,5.0375,5.0728,5.024,4.8649,4.6228,4.4899,4.3835,4.3002,4.3002,4.3002,4.3002,4.3002,4.3002,4.3002,4.3002,4.3002,4.3002,4.3002,4.3002,4.3002,4.3002,4.3002,4.3002,4.3002,4.3002,4.3002,4.3002,4.3002,4.3002,4.3002,4.3002,4.3002,4.3002,4.3002,4.3002,4.3002,4.3002,4.3002,4.3002,4.3002,4.3002,4.3002,4.3002,4.3303,4.4141,4.4439,4.5003,4.6133,4.6313,4.6313,4.6313,4.6313,4.6313,4.6313,4.6313,4.6313,4.6313,4.6313,4.6313,4.6313,4.6313,4.6313,4.6313,4.6313,4.6313,4.6313,4.6313,4.6313,4.6313,4.6313,4.6313,3.05,3.2247,3.4295,3.6721,3.874,4.0452,4.1787,4.2092,4.2092,4.2092,4.2092,4.2092,4.2092,4.2092,4.2092,4.2092,4.3166,4.3993,4.3993,4.5104,4.5903,4.5903,4.5903,4.5903,4.5903,4.5903,4.6038,4.6358,4.638,4.6491,4.6734,4.6734,4.7148,4.7979,4.834,4.8974,4.9976,5.0204,5.0414,5.0623,5.0504,5.0504,5.0623,4.9713,4.8195,4.6254,4.5168,4.4042,4.3002,4.3002,4.3002,4.3002,4.3002,4.3002,4.3002,4.3002,4.3002,4.3002,4.3002,4.3002,4.3002,4.3002,4.3002,4.3002,4.3002,4.3002,4.3002,4.3002,4.3002,4.3002,4.3002,4.3002,4.3002,4.3002,4.3002,4.3002,4.3002,4.3002,4.3002,4.3002,4.3002,4.3002,4.3002,4.3002,4.335,4.4426,4.4589,4.5003,4.6133,4.6313,4.6313,4.6313,4.6313,4.6313,4.6313,4.6313,4.6313,4.6313,4.6313,4.6313,4.6313,4.6313,4.6313,4.6313,4.6313,4.6313,4.6313,4.6313,4.6313,4.6313,4.6313,4.6313,3.1249,3.2955,3.5081,3.8975,4.0017,4.0423,4.1642,4.202,4.2092,4.2092,4.2092,4.2092,4.2092,4.2092,4.2092,4.2092,4.3065,4.3863,4.3979,4.5003,4.5772,4.5933,4.5948,4.597,4.6015,4.6015,4.6194,4.6616,4.6661,4.6734,4.6953,4.6975,4.7162,4.7628,4.83,4.9043,4.9887,5.0304,5.0567,5.0751,5.0751,5.0623,5.039,4.9233,4.7827,4.6254,4.5342,4.4221,4.3002,4.3002,4.3002,4.3002,4.3002,4.3002,4.3002,4.3002,4.3002,4.3002,4.3002,4.3002,4.3002,4.3002,4.3002,4.3002,4.3002,4.3002,4.3002,4.3002,4.3002,4.3002,4.3002,4.3002,4.3002,4.3002,4.3002,4.3002,4.3002,4.3002,4.3002,4.3002,4.3002,4.3002,4.3002,4.309,4.3463,4.4439,4.4677,4.5116,4.6175,4.6313,4.6313,4.6313,4.6313,4.6313,4.6313,4.6313,4.6313,4.6313,4.6313,4.6313,4.6313,4.6313,4.6313,4.6313,4.6313,4.6313,4.6313,4.6313,4.6313,4.6313,4.6313,4.6313,3.1249,3.3819,3.6475,3.8755,3.9712,4.0292,4.1062,4.1671,4.2092,4.2092,4.2092,4.2092,4.2092,4.2092,4.2092,4.2092,4.2673,4.3347,4.3906,4.461,4.5316,4.6062,4.6165,4.6247,4.6484,4.6506,4.6602,4.6844,4.6851,4.6975,4.7229,4.7251,4.7543,4.8163,4.8858,4.9424,4.991,5.0304,5.0525,5.0534,5.0534,5.0414,5.0135,4.9951,4.8574,4.6307,4.615,4.4913,4.3002,4.3002,4.3002,4.3002,4.3002,4.3002,4.3002,4.3002,4.3002,4.3002,4.3002,4.3002,4.3002,4.3002,4.3002,4.3002,4.3002,4.3002,4.3002,4.3002,4.3002,4.3002,4.3002,4.3002,4.3002,4.3002,4.3002,4.3002,4.3002,4.3002,4.3002,4.3002,4.3002,4.3002,4.3002,4.3404,4.3903,4.4502,4.5045,4.5598,4.6225,4.6313,4.6313,4.6313,4.6313,4.6313,4.6313,4.6313,4.6313,4.6313,4.6313,4.6313,4.6313,4.6313,4.6313,4.6313,4.6313,4.6313,4.6313,4.6313,4.6313,4.6313,4.6313,4.6313,3.2118,3.4238,3.6241,3.8615,3.9654,4.0278,4.0945,4.1613,4.2092,4.2092,4.2092,4.2092,4.2092,4.2092,4.2092,4.2092,4.2684,4.3351,4.3913,4.4625,4.5361,4.6114,4.6188,4.6314,4.6572,4.6594,4.6668,4.6873,4.6894,4.7019,4.7287,4.7309,4.7444,4.7728,4.8753,4.9381,4.9566,5.0441,5.0876,5.0876,5.0644,5.0453,5.0318,5.0159,4.8699,4.6307,4.6307,4.5048,4.3002,4.3002,4.3002,4.3002,4.3002,4.3002,4.3002,4.3002,4.3002,4.3002,4.3002,4.3002,4.3002,4.3002,4.3002,4.3002,4.3002,4.3002,4.3002,4.3002,4.3002,4.3002,4.3002,4.3002,4.3002,4.3002,4.3002,4.3002,4.3002,4.3002,4.3002,4.3002,4.3002,4.3102,4.3388,4.3639,4.4104,4.497,4.5321,4.5686,4.6238,4.6313,4.6313,4.6313,4.6313,4.6313,4.6313,4.6313,4.6313,4.6313,4.6313,4.6313,4.6313,4.6313,4.6313,4.6313,4.6313,4.6313,4.6313,4.6313,4.6313,4.6313,4.6313,4.6313,3.2753,3.4441,3.599,3.8172,3.9305,4.0046,4.0699,4.1366,4.1889,4.2063,4.2092,4.2113,4.2175,4.2133,4.2113,4.2175,4.2677,4.3265,4.3852,4.4572,4.531,4.6057,4.6263,4.6476,4.6749,4.6771,4.6837,4.6997,4.6997,4.7084,4.7287,4.7309,4.7309,4.7309,4.8603,4.9292,4.9292,5.0486,5.105,5.0923,5.0581,5.0366,5.0294,5.0086,4.8813,4.6724,4.6438,4.5208,4.3406,4.3113,4.3002,4.3002,4.3002,4.3002,4.3002,4.3002,4.3002,4.3002,4.3002,4.3002,4.3002,4.3002,4.3002,4.3002,4.3002,4.3002,4.3002,4.3002,4.3212,4.3379,4.3085,4.3212,4.3351,4.3058,4.3002,4.3002,4.3002,4.3002,4.3002,4.3002,4.3002,4.3178,4.3702,4.3915,4.4342,4.5334,4.561,4.5849,4.6263,4.6313,4.6313,4.6313,4.6313,4.6313,4.6313,4.6313,4.6313,4.6313,4.6313,4.6313,4.6313,4.6313,4.6313,4.6313,4.6313,4.6313,4.6313,4.6313,4.6313,4.6313,4.6313,4.6313,3.2602,3.4458,3.6436,3.7211,3.8333,3.9407,4.0002,4.067,4.1323,4.1961,4.2092,4.2154,4.2366,4.2222,4.2154,4.2351,4.2421,4.2732,4.3599,4.4238,4.4971,4.5902,4.6531,4.6975,4.7244,4.7251,4.7266,4.7287,4.7287,4.7287,4.7309,4.7309,4.7309,4.7309,4.8603,4.9292,4.9292,5.0309,5.0609,5.0159,5.0135,4.999,4.9756,4.9732,4.905,4.7844,4.6776,4.5661,4.452,4.3462,4.3002,4.3002,4.3002,4.3002,4.3002,4.3002,4.3002,4.3002,4.3002,4.3002,4.3002,4.3002,4.3002,4.3002,4.3002,4.3002,4.3002,4.3002,4.378,4.4357,4.3268,4.3808,4.433,4.3252,4.3002,4.3002,4.3002,4.3002,4.3002,4.3002,4.3002,4.3178,4.3702,4.42,4.4752,4.5397,4.5937,4.6276,4.6313,4.6313,4.6313,4.6313,4.6313,4.6313,4.6313,4.6313,4.6313,4.6313,4.6313,4.6313,4.6313,4.6313,4.6313,4.6313,4.6313,4.6313,4.6313,4.6313,4.6313,4.6313,4.6313,4.6313,3.257,3.4205,3.5868,3.7,3.826,3.9363,3.9958,4.0612,4.1279,4.1961,4.2092,4.2154,4.2351,4.2345,4.2366,4.2561,4.2688,4.3005,4.3602,4.3986,4.4658,4.5855,4.6203,4.6587,4.7243,4.7309,4.7309,4.7309,4.7309,4.7309,4.7309,4.7309,4.7309,4.7309,4.8603,4.9696,5.0511,5.0881,5.0979,5.079,5.051,5.0318,5.0198,4.9854,4.9473,4.9026,4.7881,4.6373,4.4629,4.3462,4.3002,4.3002,4.3002,4.3002,4.3002,4.3002,4.3002,4.3002,4.3002,4.3489,4.396,4.3252,4.3947,4.4859,4.3421,4.3504,4.3932,4.3225,4.3295,4.3504,4.3113,4.3295,4.3504,4.3085,4.3002,4.3002,4.3002,4.3002,4.3002,4.3002,4.3291,4.3677,4.42,4.4794,4.5372,4.5937,4.6188,4.6313,4.6313,4.6313,4.6313,4.6313,4.6313,4.6313,4.6313,4.6313,4.6313,4.6313,4.6313,4.6313,4.6313,4.6313,4.6313,4.6313,4.6313,4.6313,4.6313,4.6313,4.6313,4.6313,4.6313,4.6313,3.2415,3.4103,3.5792,3.6725,3.7926,3.903,3.9654,4.0292,4.0945,4.1628,4.1932,4.2195,4.2453,4.2514,4.2561,4.2769,4.2915,4.3124,4.3497,4.3872,4.451,4.5626,4.5969,4.642,4.7228,4.7309,4.7309,4.7309,4.7309,0.0,4.7309,4.7309,4.7399,4.7623,4.8723,4.9816,5.0847,5.1001,5.1026,5.0947,5.0558,5.0318,5.0222,4.9854,4.9693,4.9644,4.8489,4.7165,4.5728,4.4588,4.4111,4.4111,4.4111,4.4111,4.4111,4.4111,4.4111,4.4111,4.4111,4.4602,4.5114,4.4344,4.5101,4.6018,4.4548,4.4643,4.5007,4.3878,4.4111,4.4507,4.3753,4.356,4.3477,4.3085,4.3002,4.3002,4.3002,4.3002,4.3065,4.324,4.3551,4.4028,4.4782,4.5234,4.5673,4.6225,4.6313,4.6313,4.6313,4.6313,4.6313,4.6313,4.6313,4.6313,4.6313,4.6313,4.6313,4.6313,4.6313,4.6313,4.6313,4.6313,4.6313,4.6313,4.6313,4.6313,4.6313,4.6313,4.6313,4.6313,4.6313,4.6313,0.0,0.0,0.0,3.6301,3.7259,3.8376,3.9044,3.9654,4.0263,4.096,4.1613,4.2207,4.2627,4.2708,4.2769,4.2975,4.3016,4.3076,4.327,4.3863,4.4506,4.5185,4.5852,4.6525,4.7219,4.7294,4.7309,4.7309,4.7309,4.7309,4.7309,4.7309,4.7608,4.8289,4.8947,4.9583,5.0181,5.0613,5.0704,5.0501,5.0246,4.9951,4.9693,4.9693,4.9693,4.9644,4.8539,4.8047,4.7971,4.6776,4.6307,4.6307,4.6307,4.6307,4.6307,4.6307,4.6307,4.6307,4.6307,4.6333,4.6359,4.6307,4.6359,4.6372,4.6333,4.6333,4.6123,4.5034,4.6294,4.7448,4.5275,4.471,4.4411,4.3268,4.3002,4.3014,4.3027,4.3027,4.319,4.3689,4.3827,4.4192,4.5296,4.5497,4.5698,4.6225,4.6313,4.6313,4.6313,4.6313,4.6313,4.6313,4.6313,4.6313,4.6313,4.6313,4.6313,4.6313,4.6313,4.6313,4.6313,4.6313,4.6313,4.6313,4.6313,4.6313,4.6313,4.6313,4.6313,4.6313,4.6313,4.6313,3.2755,0.0,0.0,0.0,0.0,0.0,3.9044,3.9334,3.9755,4.0873,4.1357,4.1821,4.2559,4.2815,4.2975,4.319,4.323,4.325,4.329,4.3454,4.3833,4.4511,4.517,4.5843,4.651,4.7025,4.7309,0.0,4.7309,4.7309,4.7309,4.7309,4.7608,4.8289,4.8947,4.9583,5.0181,5.0613,5.076,5.0704,5.0303,5.0062,4.999,4.9805,4.9693,4.9669,4.936,4.9237,4.9075,4.7112,4.6307,4.6307,4.6307,4.6307,4.6307,4.6307,4.6307,4.6307,4.6307,4.6828,4.7383,4.6568,4.7434,4.8435,4.6788,4.6893,4.7294,4.6176,4.6307,4.6438,4.5061,4.471,4.4411,4.3268,4.3002,4.3115,4.3489,4.3576,4.3614,4.3765,4.4455,4.5121,4.5434,4.5811,4.6137,4.6288,4.6313,4.6313,4.6313,4.6313,4.6313,4.6313,4.6313,4.6313,4.6313,4.6313,4.6313,4.6313,4.6313,4.6313,4.6313,4.6313,4.6313,4.6313,4.6313,4.6313,4.6313,4.6313,4.6313,4.6313,4.6313,4.6313,0.0,0.0,0.0,0.0,0.0,0.0,3.8696,3.9,3.9479,4.0481,4.1068,4.1668,4.255,4.2855,4.3076,4.327,4.329,4.329,4.329,4.329,4.3564,4.4222,4.4625,4.5259,4.6211,4.6644,4.6988,4.7279,4.7309,4.7309,4.7309,4.7309,4.7474,4.7863,4.8798,4.9403,4.9655,5.033,5.0671,5.0671,5.0279,5.0159,5.027,4.999,4.9878,4.9854,4.9756,4.9693,4.9595,4.826,4.7714,4.7714,4.7714,4.7714,4.7714,4.7714,4.7714,4.7714,4.7714,4.8159,4.8614,4.7917,4.8624,4.9459,4.8134,4.8184,4.8489,4.7331,4.7009,4.6764,4.5661,4.5369,4.4953,4.3379,4.3002,4.3152,4.3677,4.3978,4.4217,4.4455,4.5045,4.556,4.5799,4.61,4.6313,4.6313,4.6313,4.6313,4.6313,4.6313,4.6313,4.6313,4.6313,4.6313,4.6313,4.6313,4.6313,4.6313,4.6313,4.6313,4.6313,4.6313,4.6313,4.6313,4.6313,4.6313,4.6313,4.6313,4.6313,4.6313,4.6313,4.6313,0.0,0.0,0.0,0.0,0.0,0.0,3.8202,3.8667,3.9262,3.9871,4.063,4.1477,4.2412,4.2751,4.2986,4.3255,4.329,4.329,4.329,4.329,4.3514,4.4117,4.4252,4.476,4.5956,4.6151,4.6465,4.7145,4.7264,4.7309,4.7309,4.7309,4.7309,4.7309,4.8528,4.9104,4.8899,4.9896,5.0427,5.0501,5.0246,5.0246,5.0501,5.0222,5.011,5.0086,4.9829,4.9693,4.9693,4.9693,4.9693,4.9693,4.9693,4.9693,4.9693,4.9693,4.9693,4.9693,4.9693,4.9693,4.9693,4.9693,4.9693,4.9693,4.9693,4.9693,4.9498,4.8464,4.8173,4.7895,4.662,4.6307,4.5754,4.3532,4.3052,4.3253,4.3777,4.433,4.4895,4.546,4.5585,4.5736,4.6225,4.6313,4.6313,4.6313,4.6313,4.6313,4.6313,4.6313,4.6313,4.6313,4.6313,4.6313,4.6313,4.6313,4.6313,4.6313,4.6313,4.6313,4.6313,4.6313,4.6313,4.6313,4.6313,4.6313,4.6313,4.6313,4.6313,4.6313,4.6313,4.6313,0.0,0.0,0.0,0.0,0.0,0.0,3.8202,3.8304,3.858,3.9233,3.9639,4.029,4.1626,4.21,4.2495,4.3195,4.329,4.329,4.329,4.329,4.3349,4.3489,4.3967,4.4401,4.4655,4.5185,4.5783,4.6435,4.6988,4.7309,4.7309,4.7309,4.7309,4.7309,4.8094,4.8619,4.8884,4.9423,4.9955,5.0501,5.0246,5.0246,5.0501,5.0222,5.011,5.0086,4.9829,4.9693,4.9693,4.9693,4.9693,4.9693,4.9693,4.9693,4.9693,4.9693,4.9693,4.9693,4.9693,4.9693,4.9693,4.9693,4.9693,4.9693,4.9693,4.9693,4.9644,4.9434,4.936,4.8887,4.6814,4.6307,4.5754,4.3532,4.3341,4.379,4.4313,4.492,4.5485,4.6037,4.615,4.6188,4.6288,4.6313,4.6313,4.6313,4.6313,4.6313,4.6313,4.6313,4.6313,4.6313,4.6313,4.6313,4.6313,4.6313,4.6313,4.6313,4.6313,4.6313,4.6313,4.6313,4.6313,4.6313,4.6313,4.6313,4.6313,4.6313,4.6313,4.6313,4.6313,4.6313,0.0,0.0,0.0,3.6881,0.0,0.0,0.0,3.8202,3.8391,3.9059,3.9362,3.9953,4.1435,4.1922,4.2361,4.318,4.329,4.329,4.329,4.329,4.329,4.329,4.3609,4.3938,4.4267,4.4601,4.5229,4.6226,4.6614,4.6943,4.7294,4.7309,4.7309,4.7309,4.7938,4.8417,4.8686,4.9229,4.9846,5.0501,5.0366,5.0423,5.0623,5.0414,5.0246,5.0086,4.9829,4.9693,4.9693,4.9693,4.9693,4.9693,4.9693,4.9693,4.9693,4.9693,4.9693,4.9693,4.9693,4.9693,4.9693,4.9693,4.9693,4.9693,4.9693,4.9693,4.9693,4.9693,4.9693,4.9174,4.6905,4.6307,4.5754,4.3532,4.3401,4.3953,4.4476,4.5083,4.5648,4.62,4.6313,4.6313,4.6313,4.6313,4.6313,4.6313,4.6313,4.6313,4.6313,4.6313,4.6313,4.6313,4.6313,4.6313,4.6313,4.6313,4.6313,4.6313,4.6313,4.6313,4.6313,4.6313,4.6313,4.6313,4.6313,4.6313,4.6313,4.6313,4.6313,4.6313,4.6313,4.6313,0.0,0.0,0.0,0.0,0.0,3.8202,0.0,0.0,0.0,3.8899,3.9153,3.9661,4.1043,4.1479,4.1916,4.2733,4.3021,4.311,4.3071,4.316,4.327,4.329,4.329,4.3499,4.4042,4.4181,4.4764,4.6016,4.6183,4.6542,4.7264,4.7251,4.7251,4.7309,4.7774,4.8216,4.8557,4.9111,4.9775,5.0558,5.0558,5.0623,5.0784,5.0591,5.0342,5.0086,4.9829,4.9693,4.9693,4.9693,4.9693,4.9693,4.9693,4.9693,4.9693,4.9693,4.9693,4.9693,4.9693,4.9693,4.9693,4.9693,4.9693,4.9693,4.9693,4.9693,4.9693,4.9693,4.9693,4.9174,4.6905,4.6307,4.5754,4.3532,4.3476,4.4079,4.4502,4.5171,4.5773,4.6225,4.6313,4.6313,4.6313,4.6313,4.6313,4.6313,4.6313,4.6313,4.6313,4.6313,4.6313,4.6313,4.6313,4.6313,4.6313,4.6313,4.6313,4.6313,4.6313,4.6313,4.6313,4.6313,4.6313,4.6313,4.6313,4.6313,4.6313,4.6313,4.6313,4.6313,4.6313,4.6313,0.0,0.0,0.0,0.0,3.7752,0.0,3.8202,0.0,3.8217,3.8304,0.0,3.8631,3.9573,0.0,0.0,4.1213,4.2006,4.2423,4.2193,4.2664,4.3095,4.327,4.329,4.3319,4.3414,4.3786,4.4405,4.5328,4.5794,4.6398,4.7243,4.7062,4.704,4.7287,4.7137,4.7644,4.8823,4.8927,4.9573,5.0775,5.0775,5.0784,5.0784,5.0591,5.0342,5.0086,4.9829,4.9693,4.9693,4.9693,4.9693,4.9693,4.9693,4.9693,4.9693,4.9693,4.9693,4.9693,4.9693,4.9693,4.9693,4.9693,4.9693,4.9693,4.9693,4.9693,4.9693,4.9693,4.9693,4.9174,4.6905,4.6307,4.5754,4.3532,4.3777,4.4527,4.4577,4.546,4.6238,4.6301,4.6313,4.6313,4.6313,4.6313,4.6313,4.6313,4.6313,4.6313,4.6313,4.6313,4.6313,4.6313,4.6313,4.6313,4.6313,4.6313,4.6313,4.6313,4.6313,4.6313,4.6313,4.6313,4.6313,4.6313,4.6313,4.6313,4.6313,4.6313,4.6313,4.6313,4.6313,4.6313,0.0,0.0,0.0,0.0,0.0,0.0,3.8202,0.0,3.8202,0.0,0.0,0.0,0.0,0.0,0.0,0.0,4.1413,4.1573,4.1345,4.1853,4.2421,4.2906,4.295,0.0,4.295,4.3121,4.3606,4.4486,4.4938,4.5626,4.6653,4.6716,4.6902,4.7287,4.704,4.7355,4.8312,4.8539,4.9121,5.0047,5.0289,5.0394,5.0385,5.0303,5.011,4.9854,4.9756,4.9693,4.9693,4.9693,4.9693,4.9693,4.9693,4.9693,4.9693,4.9693,4.9693,4.9693,4.9693,4.9693,4.9693,4.9693,4.9693,4.9693,4.9693,4.9693,4.9693,4.9693,4.9693,4.9336,4.7703,4.728,4.6738,4.4507,4.4793,4.5428,4.4734,4.551,4.6313,4.6313,4.6313,4.6313,4.6313,4.6313,4.6313,4.6313,4.6313,4.6313,4.6313,4.6313,4.6313,4.6313,4.6313,4.6313,4.6313,4.6313,4.6313,4.6313,4.6313,4.6313,4.6313,4.6313,4.6313,4.6313,4.6313,4.6313,4.6313,4.6313,4.6313,4.6313,4.6313,4.6313,3.827,0.0,0.0,0.0,0.0,0.0,0.0,0.0,0.0,0.0,0.0,0.0,0.0,0.0,0.0,0.0,0.0,4.066,4.0473,4.0974,4.1621,4.2349,4.2585,0.0,0.0,4.2662,4.2989,4.394,4.4166,4.4849,4.6234,4.626,4.6534,4.7186,4.6953,4.7133,4.7807,4.8338,4.8942,4.9615,5.0019,5.0222,5.0222,5.0135,4.9951,4.9693,4.9693,4.9693,4.9693,4.9693,4.9693,4.9693,4.9693,4.9693,4.9693,4.9693,4.9693,4.9693,4.9693,4.9693,4.9693,4.9693,4.9693,4.9693,4.9693,4.9693,4.9693,4.9693,4.9693,4.9434,4.8313,4.7768,4.7048,4.5141,4.5282,4.5615,4.4792,4.551,4.6313,4.6313,4.6313,4.6313,4.6313,4.6313,4.6313,4.6313,4.6313,4.6313,4.6313,4.6313,4.6313,4.6313,4.6313,4.6313,4.6313,4.6313,4.6313,4.6313,4.6313,4.6313,4.6313,4.6313,4.6313,4.6313,4.6313,4.6313,4.6313,4.6313,4.6313,4.6313,4.6313,4.6313,0.0,0.0,0.0,3.9175,0.0,0.0,0.0,0.0,3.8258,0.0,0.0,0.0,0.0,0.0,0.0,0.0,0.0,0.0,0.0,4.0115,4.0837,4.1646,4.2305,4.2688,0.0,4.252,4.284,0.0,4.3649,4.428,4.6198,4.5679,4.5807,4.688,4.6727,4.6926,4.7598,4.8466,4.9225,4.9902,5.0295,5.0501,5.0477,5.0222,4.9951,4.9693,4.9693,4.9693,4.9693,4.9693,4.9693,4.9693,4.9693,4.9693,4.9693,4.9693,4.9693,4.9693,4.9693,4.9693,4.9693,4.9693,4.9693,4.9693,4.9693,4.9693,4.9693,4.9693,4.9693,4.9434,4.8313,4.7177,4.6071,4.4966,4.4694,4.4647,4.4618,4.551,4.6313,4.6313,4.6313,4.6313,4.6313,4.6313,4.6313,4.6313,4.6313,4.6313,4.6313,4.6313,4.6313,4.6313,4.6313,4.6313,4.6313,4.6313,4.6313,4.6313,4.6313,4.6313,4.6313,4.6313,4.6313,4.6313,4.6313,4.6313,4.6313,4.6313,4.6313,4.6313,4.6313,4.6313,0.0,0.0,3.9799,3.9799,0.0,0.0,0.0,0.0,0.0,0.0,0.0,0.0,0.0,0.0,0.0,0.0,0.0,0.0,0.0,0.0,4.0052,4.1161,4.1896,4.2304,0.0,0.0,4.2412,4.2905,4.3052,4.373,4.5105,4.5075,4.5552,4.6675,4.6469,4.6528,4.6941,4.7492,4.8078,4.871,4.9135,4.9557,4.9965,4.9878,4.9805,4.9693,4.9693,4.9693,4.9693,4.9693,4.9693,4.9693,4.9693,4.9693,4.9693,4.9693,4.9693,4.9693,4.9693,4.9693,4.9693,4.9693,4.9693,4.9693,4.9693,4.9693,4.9693,4.9693,4.9693,4.962,4.9237,4.8838,4.826,4.7165,4.6867,4.6634,4.59,4.6015,4.6313,4.6313,4.6313,4.6313,4.6313,4.6313,4.6313,4.6313,4.6313,4.6313,4.6313,4.6313,4.6313,4.6313,4.6313,4.6313,4.6313,4.6313,4.6313,4.6313,4.6313,4.6313,4.6313,4.6313,4.6313,4.6313,4.6313,4.6313,4.6313,4.6313,4.6313,4.6313,4.6313,4.6313,4.08,4.0686,0.0,4.0556,4.0455,0.0,4.0432,0.0,0.0,0.0,0.0,0.0,0.0,0.0,0.0,0.0,0.0,0.0,0.0,3.8783,3.9581,4.0612,4.1337,4.1831,4.2078,4.2092,4.2195,4.2372,4.2565,4.3144,0.0,4.4471,4.5062,4.6094,4.6174,4.6247,4.6351,4.692,4.7386,4.779,4.8399,4.8991,4.948,4.964,4.9693,4.9693,4.9693,4.9693,4.9693,4.9693,4.9693,4.9693,4.9693,4.9693,4.9693,4.9693,4.9693,4.9693,4.9693,4.9693,4.9693,4.9693,4.9693,4.9693,4.9693,4.9693,4.9751,4.9983,4.9882,4.9751,4.9983,4.9573,4.8902,4.8173,4.8011,4.7728,4.655,4.6631,4.6815,4.6391,4.6313,4.6313,4.6313,4.6313,4.6313,4.6313,4.6313,4.6313,4.6313,4.6313,4.6313,4.6313,4.6313,4.6313,4.6313,4.6313,4.6313,4.6313,4.6313,4.6313,4.6313,4.6313,4.6313,4.6313,4.6313,4.6313,4.6313,4.6313,4.6313,4.6313,4.6313,4.6313]}]]